Wetterdaten: Sonntag, 21.01.2024
Datum Zeit Temp. I. Temp. A. Feuchte I. Feuchte A. Luftdruck Regen Wind Richtung Richtung Sonnenschein Solar Taupunkt Windchill Windböen
21.01.2024 00:00 22,1 °C -8,3 °C 40 % 86 % 1030,6 hPa 0,0 l/m² 4,3 km/h (1 Bft) O 95 ° 0 min 0 W/m² -10,2 °C -8,3 °C 4,8 km/h (1 Bft)
21.01.2024 00:02 22,2 °C -8,2 °C 40 % 87 % 1030,6 hPa 0,0 l/m² 3,1 km/h (1 Bft) O 95 ° 0 min 0 W/m² -10,0 °C -8,2 °C 6,4 km/h (2 Bft)
21.01.2024 00:04 22,2 °C -7,9 °C 40 % 87 % 1030,6 hPa 0,0 l/m² 2,8 km/h (1 Bft) O 95 ° 0 min 0 W/m² -9,7 °C -7,9 °C 4,8 km/h (1 Bft)
21.01.2024 00:06 22,2 °C -7,8 °C 40 % 86 % 1030,6 hPa 0,0 l/m² 2,8 km/h (1 Bft) O 95 ° 0 min 0 W/m² -9,7 °C -7,8 °C 4,8 km/h (1 Bft)
21.01.2024 00:08 22,1 °C -8,1 °C 40 % 85 % 1030,5 hPa 0,0 l/m² 3,3 km/h (1 Bft) O 95 ° 0 min 0 W/m² -10,2 °C -8,1 °C 4,8 km/h (1 Bft)
21.01.2024 00:10 22,2 °C -8,1 °C 40 % 86 % 1030,5 hPa 0,0 l/m² 2,7 km/h (1 Bft) O 95 ° 0 min 0 W/m² -10,0 °C -8,1 °C 4,8 km/h (1 Bft)
21.01.2024 00:11 22,2 °C -7,9 °C 40 % 86 % 1030,5 hPa 0,0 l/m² 3,4 km/h (1 Bft) O 95 ° 0 min 0 W/m² -9,8 °C -7,9 °C 4,8 km/h (1 Bft)
21.01.2024 00:13 22,1 °C -7,8 °C 40 % 86 % 1030,5 hPa 0,0 l/m² 2,1 km/h (1 Bft) O 95 ° 0 min 0 W/m² -9,7 °C -7,8 °C 4,8 km/h (1 Bft)
21.01.2024 00:14 22,2 °C -7,7 °C 40 % 87 % 1030,5 hPa 0,0 l/m² 1,1 km/h (1 Bft) O 95 ° 0 min 0 W/m² -9,5 °C -7,7 °C 3,2 km/h (1 Bft)
21.01.2024 00:15 22,1 °C -7,7 °C 40 % 86 % 1030,5 hPa 0,0 l/m² 2,3 km/h (1 Bft) O 95 ° 0 min 0 W/m² -9,6 °C -7,7 °C 3,2 km/h (1 Bft)
21.01.2024 00:17 22,2 °C -8,0 °C 40 % 85 % 1030,5 hPa 0,0 l/m² 3,9 km/h (1 Bft) O 95 ° 0 min 0 W/m² -10,1 °C -8,0 °C 4,8 km/h (1 Bft)
21.01.2024 00:19 22,2 °C -8,3 °C 40 % 84 % 1030,4 hPa 0,0 l/m² 4,3 km/h (1 Bft) O 95 ° 0 min 0 W/m² -10,5 °C -8,3 °C 6,4 km/h (2 Bft)
21.01.2024 00:21 22,2 °C -8,6 °C 40 % 84 % 1030,5 hPa 0,0 l/m² 3,0 km/h (1 Bft) O 95 ° 0 min 0 W/m² -10,8 °C -8,6 °C 4,8 km/h (1 Bft)
21.01.2024 00:22 22,2 °C -8,7 °C 40 % 84 % 1030,5 hPa 0,0 l/m² 1,8 km/h (1 Bft) O 95 ° 0 min 0 W/m² -10,9 °C -8,7 °C 4,8 km/h (1 Bft)
21.01.2024 00:23 22,2 °C -8,9 °C 40 % 84 % 1030,5 hPa 0,0 l/m² 2,0 km/h (1 Bft) O 95 ° 0 min 0 W/m² -11,1 °C -8,9 °C 3,2 km/h (1 Bft)
21.01.2024 00:25 22,2 °C -9,2 °C 40 % 84 % 1030,5 hPa 0,0 l/m² 2,9 km/h (1 Bft) O 95 ° 0 min 0 W/m² -11,4 °C -9,2 °C 3,2 km/h (1 Bft)
21.01.2024 00:27 22,2 °C -9,3 °C 40 % 85 % 1030,5 hPa 0,0 l/m² 3,6 km/h (1 Bft) O 95 ° 0 min 0 W/m² -11,3 °C -9,3 °C 4,8 km/h (1 Bft)
21.01.2024 00:29 22,2 °C -9,2 °C 40 % 85 % 1030,4 hPa 0,0 l/m² 2,5 km/h (1 Bft) O 95 ° 0 min 0 W/m² -11,2 °C -9,2 °C 4,8 km/h (1 Bft)
21.01.2024 00:31 22,2 °C -9,1 °C 40 % 85 % 1030,5 hPa 0,0 l/m² 0,8 km/h (0 Bft) O 95 ° 0 min 0 W/m² -11,1 °C -9,1 °C 1,6 km/h (1 Bft)
21.01.2024 00:32 22,2 °C -9,0 °C 40 % 86 % 1030,4 hPa 0,0 l/m² 1,5 km/h (1 Bft) O 95 ° 0 min 0 W/m² -10,9 °C -9,0 °C 3,2 km/h (1 Bft)
21.01.2024 00:33 22,2 °C -8,9 °C 40 % 86 % 1030,4 hPa 0,0 l/m² 2,0 km/h (1 Bft) O 95 ° 0 min 0 W/m² -10,8 °C -8,9 °C 3,2 km/h (1 Bft)
21.01.2024 00:35 22,2 °C -9,0 °C 40 % 86 % 1030,5 hPa 0,0 l/m² 1,8 km/h (1 Bft) O 95 ° 0 min 0 W/m² -10,9 °C -9,0 °C 3,2 km/h (1 Bft)
21.01.2024 00:37 22,2 °C -9,4 °C 40 % 84 % 1030,5 hPa 0,0 l/m² 1,9 km/h (1 Bft) O 95 ° 0 min 0 W/m² -11,6 °C -9,4 °C 3,2 km/h (1 Bft)
21.01.2024 00:39 22,2 °C -9,7 °C 40 % 85 % 1030,5 hPa 0,0 l/m² 3,5 km/h (1 Bft) O 95 ° 0 min 0 W/m² -11,7 °C -9,7 °C 4,8 km/h (1 Bft)
21.01.2024 00:41 22,2 °C -9,7 °C 40 % 85 % 1030,5 hPa 0,0 l/m² 2,8 km/h (1 Bft) O 95 ° 0 min 0 W/m² -11,7 °C -9,7 °C 3,2 km/h (1 Bft)
21.01.2024 00:42 22,2 °C -9,7 °C 40 % 85 % 1030,5 hPa 0,0 l/m² 2,7 km/h (1 Bft) O 95 ° 0 min 0 W/m² -11,7 °C -9,7 °C 4,8 km/h (1 Bft)
21.01.2024 00:43 22,2 °C -9,7 °C 40 % 86 % 1030,4 hPa 0,0 l/m² 2,6 km/h (1 Bft) O 95 ° 0 min 0 W/m² -11,6 °C -9,7 °C 4,8 km/h (1 Bft)
21.01.2024 00:46 22,2 °C -9,6 °C 40 % 86 % 1030,5 hPa 0,0 l/m² 0,9 km/h (0 Bft) O 95 ° 0 min 0 W/m² -11,5 °C -9,6 °C 3,2 km/h (1 Bft)
21.01.2024 00:48 22,2 °C -9,4 °C 40 % 87 % 1030,4 hPa 0,0 l/m² 2,4 km/h (1 Bft) O 95 ° 0 min 0 W/m² -11,2 °C -9,4 °C 3,2 km/h (1 Bft)
21.01.2024 00:50 22,2 °C -9,2 °C 40 % 87 % 1030,4 hPa 0,0 l/m² 2,2 km/h (1 Bft) O 95 ° 0 min 0 W/m² -11,0 °C -9,2 °C 4,8 km/h (1 Bft)
21.01.2024 00:52 22,2 °C -8,9 °C 40 % 87 % 1030,4 hPa 0,0 l/m² 2,5 km/h (1 Bft) O 95 ° 0 min 0 W/m² -10,7 °C -8,9 °C 4,8 km/h (1 Bft)
21.01.2024 00:53 22,2 °C -8,8 °C 40 % 87 % 1030,4 hPa 0,0 l/m² 1,6 km/h (1 Bft) O 95 ° 0 min 0 W/m² -10,6 °C -8,8 °C 3,2 km/h (1 Bft)
21.01.2024 00:54 22,2 °C -8,8 °C 40 % 87 % 1030,4 hPa 0,0 l/m² 0,0 km/h (0 Bft) O 95 ° 0 min 0 W/m² -10,6 °C -8,8 °C 0,0 km/h (0 Bft)
21.01.2024 00:56 22,2 °C -8,8 °C 40 % 87 % 1030,4 hPa 0,0 l/m² 0,4 km/h (0 Bft) O 95 ° 0 min 0 W/m² -10,6 °C -8,8 °C 1,6 km/h (1 Bft)
21.01.2024 00:58 22,2 °C -8,9 °C 40 % 86 % 1030,4 hPa 0,0 l/m² 1,8 km/h (1 Bft) O 95 ° 0 min 0 W/m² -10,8 °C -8,9 °C 4,8 km/h (1 Bft)
21.01.2024 01:00 22,2 °C -8,9 °C 40 % 86 % 1030,4 hPa 0,0 l/m² 0,8 km/h (0 Bft) O 95 ° 0 min 0 W/m² -10,8 °C -8,9 °C 1,6 km/h (1 Bft)
21.01.2024 01:02 22,2 °C -8,9 °C 40 % 86 % 1030,4 hPa 0,0 l/m² 0,3 km/h (0 Bft) O 95 ° 0 min 0 W/m² -10,8 °C -8,9 °C 1,6 km/h (1 Bft)
21.01.2024 01:04 22,2 °C -9,1 °C 40 % 86 % 1030,4 hPa 0,0 l/m² 0,0 km/h (0 Bft) O 95 ° 0 min 0 W/m² -11,0 °C -9,1 °C 0,0 km/h (0 Bft)
21.01.2024 01:06 22,2 °C -9,3 °C 40 % 86 % 1030,4 hPa 0,0 l/m² 0,0 km/h (0 Bft) O 95 ° 0 min 0 W/m² -11,2 °C -9,3 °C 1,6 km/h (1 Bft)
21.01.2024 01:08 22,2 °C -9,4 °C 40 % 86 % 1030,4 hPa 0,0 l/m² 0,0 km/h (0 Bft) O 95 ° 0 min 0 W/m² -11,3 °C -9,4 °C 0,0 km/h (0 Bft)
21.01.2024 01:10 22,2 °C -9,5 °C 40 % 86 % 1030,4 hPa 0,0 l/m² 0,1 km/h (0 Bft) O 95 ° 0 min 0 W/m² -11,4 °C -9,5 °C 1,6 km/h (1 Bft)
21.01.2024 01:12 22,2 °C -9,6 °C 40 % 86 % 1030,4 hPa 0,0 l/m² 2,8 km/h (1 Bft) O 95 ° 0 min 0 W/m² -11,5 °C -9,6 °C 4,8 km/h (1 Bft)
21.01.2024 01:13 22,2 °C -9,6 °C 40 % 86 % 1030,4 hPa 0,0 l/m² 3,7 km/h (1 Bft) O 95 ° 0 min 0 W/m² -11,5 °C -9,6 °C 4,8 km/h (1 Bft)
21.01.2024 01:15 22,2 °C -9,6 °C 40 % 86 % 1030,4 hPa 0,0 l/m² 2,2 km/h (1 Bft) O 95 ° 0 min 0 W/m² -11,5 °C -9,6 °C 4,8 km/h (1 Bft)
21.01.2024 01:17 22,2 °C -9,6 °C 40 % 86 % 1030,3 hPa 0,0 l/m² 1,1 km/h (1 Bft) O 95 ° 0 min 0 W/m² -11,5 °C -9,6 °C 3,2 km/h (1 Bft)
21.01.2024 01:19 22,2 °C -9,6 °C 40 % 86 % 1030,2 hPa 0,0 l/m² 0,9 km/h (0 Bft) O 95 ° 0 min 0 W/m² -11,5 °C -9,6 °C 3,2 km/h (1 Bft)
21.01.2024 01:21 22,2 °C -9,7 °C 40 % 87 % 1030,2 hPa 0,0 l/m² 1,6 km/h (1 Bft) O 95 ° 0 min 0 W/m² -11,4 °C -9,7 °C 3,2 km/h (1 Bft)
21.01.2024 01:22 22,2 °C -9,7 °C 40 % 87 % 1030,3 hPa 0,0 l/m² 1,1 km/h (1 Bft) O 95 ° 0 min 0 W/m² -11,4 °C -9,7 °C 3,2 km/h (1 Bft)
21.01.2024 01:23 22,2 °C -9,7 °C 40 % 87 % 1030,3 hPa 0,0 l/m² 0,9 km/h (0 Bft) O 95 ° 0 min 0 W/m² -11,4 °C -9,7 °C 1,6 km/h (1 Bft)
21.01.2024 01:25 22,1 °C -9,7 °C 40 % 87 % 1030,2 hPa 0,0 l/m² 2,0 km/h (1 Bft) O 95 ° 0 min 0 W/m² -11,4 °C -9,7 °C 3,2 km/h (1 Bft)
21.01.2024 01:26 22,2 °C -9,8 °C 40 % 87 % 1030,2 hPa 0,0 l/m² 0,7 km/h (0 Bft) O 95 ° 0 min 0 W/m² -11,5 °C -9,8 °C 3,2 km/h (1 Bft)
21.01.2024 01:27 22,2 °C -9,8 °C 40 % 87 % 1030,2 hPa 0,0 l/m² 0,1 km/h (0 Bft) O 95 ° 0 min 0 W/m² -11,5 °C -9,8 °C 1,6 km/h (1 Bft)
21.01.2024 01:28 22,2 °C -9,9 °C 40 % 86 % 1030,1 hPa 0,0 l/m² 1,1 km/h (1 Bft) O 95 ° 0 min 0 W/m² -11,8 °C -9,9 °C 1,6 km/h (1 Bft)
21.01.2024 01:30 22,2 °C -9,8 °C 40 % 87 % 1030,2 hPa 0,0 l/m² 1,8 km/h (1 Bft) O 95 ° 0 min 0 W/m² -11,5 °C -9,8 °C 3,2 km/h (1 Bft)
21.01.2024 01:32 22,2 °C -9,7 °C 40 % 87 % 1030,2 hPa 0,0 l/m² 1,2 km/h (1 Bft) O 95 ° 0 min 0 W/m² -11,4 °C -9,7 °C 3,2 km/h (1 Bft)
21.01.2024 01:33 22,1 °C -9,7 °C 40 % 87 % 1030,2 hPa 0,0 l/m² 2,0 km/h (1 Bft) O 95 ° 0 min 0 W/m² -11,4 °C -9,7 °C 3,2 km/h (1 Bft)
21.01.2024 01:34 22,2 °C -9,6 °C 40 % 87 % 1030,2 hPa 0,0 l/m² 1,3 km/h (1 Bft) O 95 ° 0 min 0 W/m² -11,3 °C -9,6 °C 1,6 km/h (1 Bft)
21.01.2024 01:36 22,2 °C -9,5 °C 40 % 87 % 1030,2 hPa 0,0 l/m² 0,1 km/h (0 Bft) O 95 ° 0 min 0 W/m² -11,2 °C -9,5 °C 1,6 km/h (1 Bft)
21.01.2024 01:38 22,2 °C -9,3 °C 40 % 87 % 1030,1 hPa 0,0 l/m² 0,4 km/h (0 Bft) O 95 ° 0 min 0 W/m² -11,1 °C -9,3 °C 3,2 km/h (1 Bft)
21.01.2024 01:40 22,2 °C -9,4 °C 40 % 87 % 1030,2 hPa 0,0 l/m² 0,0 km/h (0 Bft) O 95 ° 0 min 0 W/m² -11,2 °C -9,4 °C 1,6 km/h (1 Bft)
21.01.2024 01:42 22,2 °C -9,4 °C 40 % 86 % 1030,1 hPa 0,0 l/m² 0,0 km/h (0 Bft) O 95 ° 0 min 0 W/m² -11,3 °C -9,4 °C 0,0 km/h (0 Bft)
21.01.2024 01:43 22,2 °C -9,6 °C 40 % 86 % 1030,1 hPa 0,0 l/m² 0,0 km/h (0 Bft) O 95 ° 0 min 0 W/m² -11,5 °C -9,6 °C 0,0 km/h (0 Bft)
21.01.2024 01:44 22,2 °C -9,6 °C 40 % 86 % 1030,1 hPa 0,0 l/m² 1,6 km/h (1 Bft) O 95 ° 0 min 0 W/m² -11,5 °C -9,6 °C 3,2 km/h (1 Bft)
21.01.2024 01:46 22,1 °C -9,8 °C 40 % 86 % 1030,0 hPa 0,0 l/m² 1,6 km/h (1 Bft) O 95 ° 0 min 0 W/m² -11,7 °C -9,8 °C 3,2 km/h (1 Bft)
21.01.2024 01:48 22,1 °C -9,9 °C 40 % 86 % 1030,0 hPa 0,0 l/m² 0,6 km/h (0 Bft) O 95 ° 0 min 0 W/m² -11,8 °C -9,9 °C 1,6 km/h (1 Bft)
21.01.2024 01:50 22,1 °C -9,9 °C 40 % 86 % 1030,0 hPa 0,0 l/m² 0,8 km/h (0 Bft) O 95 ° 0 min 0 W/m² -11,8 °C -9,9 °C 1,6 km/h (1 Bft)
21.01.2024 01:52 22,2 °C -9,9 °C 40 % 87 % 1030,0 hPa 0,0 l/m² 0,9 km/h (0 Bft) O 95 ° 0 min 0 W/m² -11,6 °C -9,9 °C 3,2 km/h (1 Bft)
21.01.2024 01:53 22,2 °C -9,9 °C 40 % 87 % 1030,0 hPa 0,0 l/m² 1,6 km/h (1 Bft) O 95 ° 0 min 0 W/m² -11,6 °C -9,9 °C 3,2 km/h (1 Bft)
21.01.2024 01:54 22,2 °C -9,9 °C 40 % 87 % 1030,0 hPa 0,0 l/m² 0,6 km/h (0 Bft) O 95 ° 0 min 0 W/m² -11,6 °C -9,9 °C 1,6 km/h (1 Bft)
21.01.2024 01:56 22,2 °C -9,8 °C 40 % 87 % 1030,0 hPa 0,0 l/m² 0,0 km/h (0 Bft) O 95 ° 0 min 0 W/m² -11,5 °C -9,8 °C 0,0 km/h (0 Bft)
21.01.2024 01:58 22,2 °C -9,9 °C 40 % 86 % 1030,1 hPa 0,0 l/m² 0,3 km/h (0 Bft) O 95 ° 0 min 0 W/m² -11,8 °C -9,9 °C 1,6 km/h (1 Bft)
21.01.2024 02:00 22,1 °C -10,1 °C 40 % 86 % 1030,1 hPa 0,0 l/m² 0,4 km/h (0 Bft) O 95 ° 0 min 0 W/m² -12,0 °C -10,1 °C 3,2 km/h (1 Bft)
21.01.2024 02:02 22,1 °C -10,1 °C 41 % 86 % 1030,1 hPa 0,0 l/m² 2,4 km/h (1 Bft) O 95 ° 0 min 0 W/m² -12,0 °C -10,1 °C 4,8 km/h (1 Bft)
21.01.2024 02:03 22,1 °C -10,2 °C 41 % 86 % 1030,1 hPa 0,0 l/m² 1,9 km/h (1 Bft) O 95 ° 0 min 0 W/m² -12,1 °C -10,2 °C 3,2 km/h (1 Bft)
21.01.2024 02:04 22,2 °C -10,1 °C 41 % 87 % 1030,0 hPa 0,0 l/m² 2,5 km/h (1 Bft) O 95 ° 0 min 0 W/m² -11,8 °C -10,1 °C 3,2 km/h (1 Bft)
21.01.2024 02:06 22,1 °C -9,9 °C 41 % 87 % 1030,0 hPa 0,0 l/m² 1,6 km/h (1 Bft) O 95 ° 0 min 0 W/m² -11,6 °C -9,9 °C 3,2 km/h (1 Bft)
21.01.2024 02:08 22,2 °C -9,8 °C 41 % 87 % 1030,0 hPa 0,0 l/m² 1,0 km/h (0 Bft) O 95 ° 0 min 0 W/m² -11,5 °C -9,8 °C 3,2 km/h (1 Bft)
21.01.2024 02:10 22,2 °C -9,6 °C 41 % 88 % 1030,1 hPa 0,0 l/m² 1,2 km/h (1 Bft) O 95 ° 0 min 0 W/m² -11,2 °C -9,6 °C 3,2 km/h (1 Bft)
21.01.2024 02:12 22,2 °C -9,4 °C 41 % 87 % 1030,0 hPa 0,0 l/m² 2,4 km/h (1 Bft) O 95 ° 0 min 0 W/m² -11,2 °C -9,4 °C 6,4 km/h (2 Bft)
21.01.2024 02:13 22,2 °C -9,3 °C 41 % 87 % 1030,0 hPa 0,0 l/m² 2,7 km/h (1 Bft) O 95 ° 0 min 0 W/m² -11,1 °C -9,3 °C 4,8 km/h (1 Bft)
21.01.2024 02:14 22,1 °C -9,3 °C 41 % 88 % 1030,0 hPa 0,0 l/m² 3,0 km/h (1 Bft) O 95 ° 0 min 0 W/m² -10,9 °C -9,3 °C 3,2 km/h (1 Bft)
21.01.2024 02:16 22,1 °C -9,3 °C 40 % 87 % 1029,9 hPa 0,0 l/m² 3,8 km/h (1 Bft) O 95 ° 0 min 0 W/m² -11,1 °C -9,3 °C 6,4 km/h (2 Bft)
21.01.2024 02:18 22,2 °C -9,4 °C 41 % 86 % 1029,9 hPa 0,0 l/m² 3,7 km/h (1 Bft) O 95 ° 0 min 0 W/m² -11,3 °C -9,4 °C 6,4 km/h (2 Bft)
21.01.2024 02:20 22,2 °C -9,5 °C 41 % 86 % 1029,8 hPa 0,0 l/m² 3,3 km/h (1 Bft) O 95 ° 0 min 0 W/m² -11,4 °C -9,5 °C 4,8 km/h (1 Bft)
21.01.2024 02:22 22,1 °C -9,4 °C 41 % 87 % 1029,8 hPa 0,0 l/m² 0,7 km/h (0 Bft) O 95 ° 0 min 0 W/m² -11,2 °C -9,4 °C 1,6 km/h (1 Bft)
21.01.2024 02:23 22,1 °C -9,4 °C 41 % 87 % 1029,8 hPa 0,0 l/m² 1,5 km/h (1 Bft) O 95 ° 0 min 0 W/m² -11,2 °C -9,4 °C 3,2 km/h (1 Bft)
21.01.2024 02:24 22,1 °C -9,4 °C 41 % 87 % 1029,8 hPa 0,0 l/m² 0,3 km/h (0 Bft) O 95 ° 0 min 0 W/m² -11,2 °C -9,4 °C 1,6 km/h (1 Bft)
21.01.2024 02:26 22,1 °C -9,3 °C 41 % 87 % 1029,8 hPa 0,0 l/m² 1,0 km/h (0 Bft) O 95 ° 0 min 0 W/m² -11,1 °C -9,3 °C 1,6 km/h (1 Bft)
21.01.2024 02:28 22,2 °C -9,3 °C 41 % 87 % 1029,8 hPa 0,0 l/m² 0,9 km/h (0 Bft) O 95 ° 0 min 0 W/m² -11,1 °C -9,3 °C 3,2 km/h (1 Bft)
21.01.2024 02:30 22,2 °C -9,2 °C 41 % 87 % 1029,8 hPa 0,0 l/m² 0,1 km/h (0 Bft) O 95 ° 0 min 0 W/m² -11,0 °C -9,2 °C 1,6 km/h (1 Bft)
21.01.2024 02:32 22,2 °C -9,2 °C 41 % 87 % 1029,8 hPa 0,0 l/m² 0,2 km/h (0 Bft) O 95 ° 0 min 0 W/m² -11,0 °C -9,2 °C 1,6 km/h (1 Bft)
21.01.2024 02:33 22,2 °C -9,2 °C 41 % 87 % 1029,7 hPa 0,0 l/m² 2,6 km/h (1 Bft) O 95 ° 0 min 0 W/m² -11,0 °C -9,2 °C 3,2 km/h (1 Bft)
21.01.2024 02:34 22,2 °C -9,3 °C 40 % 86 % 1029,7 hPa 0,0 l/m² 2,6 km/h (1 Bft) O 95 ° 0 min 0 W/m² -11,2 °C -9,3 °C 3,2 km/h (1 Bft)
21.01.2024 02:36 22,2 °C -9,4 °C 41 % 86 % 1029,7 hPa 0,0 l/m² 2,0 km/h (1 Bft) O 95 ° 0 min 0 W/m² -11,3 °C -9,4 °C 3,2 km/h (1 Bft)
21.01.2024 02:38 22,2 °C -9,5 °C 41 % 86 % 1029,7 hPa 0,0 l/m² 1,6 km/h (1 Bft) O 95 ° 0 min 0 W/m² -11,4 °C -9,5 °C 3,2 km/h (1 Bft)
21.01.2024 02:40 22,2 °C -9,6 °C 41 % 86 % 1029,7 hPa 0,0 l/m² 2,0 km/h (1 Bft) O 95 ° 0 min 0 W/m² -11,5 °C -9,6 °C 3,2 km/h (1 Bft)
21.01.2024 02:42 22,2 °C -9,7 °C 41 % 86 % 1029,7 hPa 0,0 l/m² 3,0 km/h (1 Bft) O 95 ° 0 min 0 W/m² -11,6 °C -9,7 °C 4,8 km/h (1 Bft)
21.01.2024 02:43 22,2 °C -9,7 °C 41 % 86 % 1029,7 hPa 0,0 l/m² 3,2 km/h (1 Bft) O 95 ° 0 min 0 W/m² -11,6 °C -9,7 °C 4,8 km/h (1 Bft)
21.01.2024 02:44 22,2 °C -9,7 °C 41 % 86 % 1029,7 hPa 0,0 l/m² 4,0 km/h (1 Bft) O 95 ° 0 min 0 W/m² -11,6 °C -9,7 °C 4,8 km/h (1 Bft)
21.01.2024 02:46 22,2 °C -9,7 °C 41 % 86 % 1029,6 hPa 0,0 l/m² 5,0 km/h (1 Bft) O 95 ° 0 min 0 W/m² -11,6 °C -9,7 °C 6,4 km/h (2 Bft)
21.01.2024 02:48 22,2 °C -9,8 °C 41 % 86 % 1029,6 hPa 0,0 l/m² 5,7 km/h (2 Bft) O 95 ° 0 min 0 W/m² -11,7 °C -9,8 °C 6,4 km/h (2 Bft)
21.01.2024 02:50 22,2 °C -9,8 °C 41 % 86 % 1029,6 hPa 0,0 l/m² 6,0 km/h (2 Bft) O 95 ° 0 min 0 W/m² -11,7 °C -9,8 °C 6,4 km/h (2 Bft)
21.01.2024 02:52 22,2 °C -9,9 °C 41 % 86 % 1029,6 hPa 0,0 l/m² 4,7 km/h (1 Bft) O 95 ° 0 min 0 W/m² -11,8 °C -9,9 °C 6,4 km/h (2 Bft)
21.01.2024 02:53 22,2 °C -9,9 °C 41 % 86 % 1029,5 hPa 0,0 l/m² 4,6 km/h (1 Bft) O 95 ° 0 min 0 W/m² -11,8 °C -9,9 °C 4,8 km/h (1 Bft)
21.01.2024 02:54 22,2 °C -9,8 °C 41 % 87 % 1029,6 hPa 0,0 l/m² 3,5 km/h (1 Bft) O 95 ° 0 min 0 W/m² -11,5 °C -9,8 °C 4,8 km/h (1 Bft)
21.01.2024 02:56 22,2 °C -9,7 °C 41 % 87 % 1029,5 hPa 0,0 l/m² 4,9 km/h (1 Bft) O 95 ° 0 min 0 W/m² -11,4 °C -9,7 °C 6,4 km/h (2 Bft)
21.01.2024 02:58 22,2 °C -9,4 °C 41 % 87 % 1029,6 hPa 0,0 l/m² 4,1 km/h (1 Bft) O 95 ° 0 min 0 W/m² -11,2 °C -9,4 °C 6,4 km/h (2 Bft)
21.01.2024 03:00 22,2 °C -9,2 °C 41 % 88 % 1029,7 hPa 0,0 l/m² 2,2 km/h (1 Bft) O 94 ° 0 min 0 W/m² -10,8 °C -9,2 °C 4,8 km/h (1 Bft)
21.01.2024 03:01 22,2 °C -9,1 °C 41 % 88 % 1029,7 hPa 0,0 l/m² 1,6 km/h (1 Bft) O 90 ° 0 min 0 W/m² -10,7 °C -9,1 °C 4,8 km/h (1 Bft)
21.01.2024 03:06 22,2 °C -8,8 °C 41 % 87 % 1029,6 hPa 0,0 l/m² 1,8 km/h (1 Bft) O 94 ° 0 min 0 W/m² -10,6 °C -8,8 °C 3,2 km/h (1 Bft)
21.01.2024 03:08 22,2 °C -8,8 °C 41 % 87 % 1029,7 hPa 0,0 l/m² 2,7 km/h (1 Bft) O 95 ° 0 min 0 W/m² -10,6 °C -8,8 °C 3,2 km/h (1 Bft)
21.01.2024 03:09 22,2 °C -8,7 °C 41 % 87 % 1029,6 hPa 0,0 l/m² 3,4 km/h (1 Bft) O 94 ° 0 min 0 W/m² -10,5 °C -8,7 °C 4,8 km/h (1 Bft)
21.01.2024 03:11 22,2 °C -8,7 °C 41 % 87 % 1029,6 hPa 0,0 l/m² 2,6 km/h (1 Bft) O 94 ° 0 min 0 W/m² -10,5 °C -8,7 °C 4,8 km/h (1 Bft)
21.01.2024 03:12 22,2 °C -8,7 °C 41 % 87 % 1029,6 hPa 0,0 l/m² 3,2 km/h (1 Bft) O 94 ° 0 min 0 W/m² -10,5 °C -8,7 °C 4,8 km/h (1 Bft)
21.01.2024 03:14 22,2 °C -8,6 °C 41 % 87 % 1029,6 hPa 0,0 l/m² 4,0 km/h (1 Bft) O 94 ° 0 min 0 W/m² -10,4 °C -8,6 °C 4,8 km/h (1 Bft)
21.01.2024 03:15 22,2 °C -8,6 °C 41 % 87 % 1029,4 hPa 0,0 l/m² 4,6 km/h (1 Bft) O 94 ° 0 min 0 W/m² -10,4 °C -8,6 °C 6,4 km/h (2 Bft)
21.01.2024 03:17 22,2 °C -8,6 °C 41 % 87 % 1029,3 hPa 0,0 l/m² 5,2 km/h (1 Bft) O 94 ° 0 min 0 W/m² -10,4 °C -8,6 °C 6,4 km/h (2 Bft)
21.01.2024 03:19 22,2 °C -8,6 °C 41 % 86 % 1029,4 hPa 0,0 l/m² 5,9 km/h (2 Bft) O 94 ° 0 min 0 W/m² -10,5 °C -8,6 °C 6,4 km/h (2 Bft)
21.01.2024 03:20 22,2 °C -8,7 °C 41 % 86 % 1029,3 hPa 0,0 l/m² 4,8 km/h (1 Bft) O 94 ° 0 min 0 W/m² -10,6 °C -8,7 °C 6,4 km/h (2 Bft)
21.01.2024 03:22 22,3 °C -8,8 °C 41 % 86 % 1029,4 hPa 0,0 l/m² 4,1 km/h (1 Bft) O 96 ° 0 min 0 W/m² -10,7 °C -8,8 °C 6,4 km/h (2 Bft)
21.01.2024 03:24 22,2 °C -8,8 °C 41 % 87 % 1029,3 hPa 0,0 l/m² 3,7 km/h (1 Bft) O 98 ° 0 min 0 W/m² -10,6 °C -8,8 °C 6,4 km/h (2 Bft)
21.01.2024 03:25 22,2 °C -8,7 °C 41 % 87 % 1029,4 hPa 0,0 l/m² 4,9 km/h (1 Bft) O-SO 110 ° 0 min 0 W/m² -10,5 °C -8,7 °C 9,7 km/h (2 Bft)
21.01.2024 03:27 22,2 °C -8,3 °C 41 % 88 % 1029,4 hPa 0,0 l/m² 1,9 km/h (1 Bft) O-SO 110 ° 0 min 0 W/m² -9,9 °C -8,3 °C 3,2 km/h (1 Bft)
21.01.2024 03:28 22,2 °C -8,1 °C 41 % 88 % 1029,4 hPa 0,0 l/m² 2,1 km/h (1 Bft) O-SO 110 ° 0 min 0 W/m² -9,7 °C -8,1 °C 3,2 km/h (1 Bft)
21.01.2024 03:30 22,2 °C -7,7 °C 41 % 88 % 1029,3 hPa 0,0 l/m² 4,8 km/h (1 Bft) O-SO 113 ° 0 min 0 W/m² -9,3 °C -7,7 °C 11,3 km/h (2 Bft)
21.01.2024 03:31 22,2 °C -7,4 °C 41 % 88 % 1029,3 hPa 0,0 l/m² 7,5 km/h (2 Bft) O-SO 123 ° 0 min 0 W/m² -9,0 °C -8,8 °C 12,9 km/h (3 Bft)
21.01.2024 03:32 22,2 °C -7,3 °C 41 % 87 % 1029,3 hPa 0,0 l/m² 6,8 km/h (2 Bft) SO 125 ° 0 min 0 W/m² -9,1 °C -7,8 °C 11,3 km/h (2 Bft)
21.01.2024 03:33 22,2 °C -7,2 °C 41 % 87 % 1029,2 hPa 0,0 l/m² 6,4 km/h (2 Bft) SO 125 ° 0 min 0 W/m² -9,0 °C -7,1 °C 8,0 km/h (2 Bft)
21.01.2024 03:35 22,2 °C -6,9 °C 41 % 87 % 1029,3 hPa 0,0 l/m² 6,4 km/h (2 Bft) SO 125 ° 0 min 0 W/m² -8,7 °C -6,8 °C 12,9 km/h (3 Bft)
21.01.2024 03:37 22,2 °C -6,8 °C 41 % 86 % 1029,2 hPa 0,0 l/m² 8,2 km/h (2 Bft) SO 126 ° 0 min 0 W/m² -8,7 °C -9,0 °C 12,9 km/h (3 Bft)
21.01.2024 03:38 22,2 °C -6,7 °C 41 % 86 % 1029,2 hPa 0,0 l/m² 5,8 km/h (2 Bft) SO 126 ° 0 min 0 W/m² -8,6 °C -6,7 °C 8,0 km/h (2 Bft)
21.01.2024 03:40 22,2 °C -6,6 °C 41 % 85 % 1029,1 hPa 0,0 l/m² 7,9 km/h (2 Bft) SO 130 ° 0 min 0 W/m² -8,7 °C -8,5 °C 12,9 km/h (3 Bft)
21.01.2024 03:41 22,2 °C -6,6 °C 41 % 85 % 1029,1 hPa 0,0 l/m² 11,0 km/h (2 Bft) SO 138 ° 0 min 0 W/m² -8,7 °C -11,7 °C 14,5 km/h (3 Bft)
21.01.2024 03:42 22,2 °C -6,6 °C 41 % 84 % 1029,1 hPa 0,0 l/m² 9,3 km/h (2 Bft) SO 136 ° 0 min 0 W/m² -8,8 °C -10,0 °C 14,5 km/h (3 Bft)
21.01.2024 03:43 22,2 °C -6,6 °C 41 % 84 % 1029,1 hPa 0,0 l/m² 8,4 km/h (2 Bft) SO 136 ° 0 min 0 W/m² -8,8 °C -9,0 °C 12,9 km/h (3 Bft)
21.01.2024 03:45 22,2 °C -6,5 °C 41 % 84 % 1029,1 hPa 0,0 l/m² 8,8 km/h (2 Bft) SO 136 ° 0 min 0 W/m² -8,7 °C -9,4 °C 12,9 km/h (3 Bft)
21.01.2024 03:47 22,2 °C -6,5 °C 41 % 83 % 1029,0 hPa 0,0 l/m² 5,5 km/h (2 Bft) SO 136 ° 0 min 0 W/m² -8,9 °C -6,5 °C 6,4 km/h (2 Bft)
21.01.2024 03:49 22,2 °C -6,6 °C 41 % 83 % 1029,1 hPa 0,0 l/m² 3,6 km/h (1 Bft) SO 136 ° 0 min 0 W/m² -9,0 °C -6,6 °C 4,8 km/h (1 Bft)
21.01.2024 03:50 22,3 °C -6,5 °C 41 % 83 % 1029,0 hPa 0,0 l/m² 4,0 km/h (1 Bft) SO 136 ° 0 min 0 W/m² -8,9 °C -6,5 °C 6,4 km/h (2 Bft)
21.01.2024 03:52 22,2 °C -6,5 °C 41 % 83 % 1029,0 hPa 0,0 l/m² 5,7 km/h (2 Bft) N-NO 30 ° 0 min 0 W/m² -8,9 °C -6,5 °C 9,7 km/h (2 Bft)
21.01.2024 03:53 22,2 °C -6,4 °C 41 % 83 % 1029,0 hPa 0,0 l/m² 3,5 km/h (1 Bft) N-NO 30 ° 0 min 0 W/m² -8,8 °C -6,4 °C 4,8 km/h (1 Bft)
21.01.2024 03:55 22,2 °C -6,4 °C 41 % 82 % 1029,1 hPa 0,0 l/m² 6,2 km/h (2 Bft) O-NO 69 ° 0 min 0 W/m² -9,0 °C -6,4 °C 11,3 km/h (2 Bft)
21.01.2024 03:57 22,2 °C -6,3 °C 41 % 82 % 1029,2 hPa 0,0 l/m² 2,5 km/h (1 Bft) O-NO 69 ° 0 min 0 W/m² -8,9 °C -6,3 °C 6,4 km/h (2 Bft)
21.01.2024 03:59 22,2 °C -6,2 °C 41 % 82 % 1029,2 hPa 0,0 l/m² 3,4 km/h (1 Bft) O-NO 61 ° 0 min 0 W/m² -8,8 °C -6,2 °C 6,4 km/h (2 Bft)
21.01.2024 04:01 22,2 °C -6,1 °C 41 % 81 % 1029,1 hPa 0,0 l/m² 2,8 km/h (1 Bft) O 96 ° 0 min 0 W/m² -8,8 °C -6,1 °C 8,0 km/h (2 Bft)
21.01.2024 04:02 22,2 °C -6,0 °C 41 % 81 % 1029,0 hPa 0,0 l/m² 3,8 km/h (1 Bft) O 92 ° 0 min 0 W/m² -8,7 °C -6,0 °C 6,4 km/h (2 Bft)
21.01.2024 04:03 22,2 °C -6,0 °C 41 % 81 % 1029,1 hPa 0,0 l/m² 2,1 km/h (1 Bft) O 92 ° 0 min 0 W/m² -8,7 °C -6,0 °C 4,8 km/h (1 Bft)
21.01.2024 04:04 22,2 °C -6,1 °C 41 % 80 % 1029,0 hPa 0,0 l/m² 2,3 km/h (1 Bft) O 92 ° 0 min 0 W/m² -9,0 °C -6,1 °C 4,8 km/h (1 Bft)
21.01.2024 04:05 22,2 °C -6,1 °C 41 % 80 % 1029,0 hPa 0,0 l/m² 6,6 km/h (2 Bft) O-NO 75 ° 0 min 0 W/m² -9,0 °C -6,3 °C 9,7 km/h (2 Bft)
21.01.2024 04:07 22,2 °C -6,2 °C 41 % 80 % 1029,0 hPa 0,0 l/m² 4,5 km/h (1 Bft) O-NO 73 ° 0 min 0 W/m² -9,1 °C -6,2 °C 8,0 km/h (2 Bft)
21.01.2024 04:09 22,2 °C -6,3 °C 41 % 80 % 1029,0 hPa 0,0 l/m² 5,7 km/h (2 Bft) O-NO 74 ° 0 min 0 W/m² -9,2 °C -6,3 °C 8,0 km/h (2 Bft)
21.01.2024 04:11 22,2 °C -6,4 °C 41 % 80 % 1029,0 hPa 0,0 l/m² 3,5 km/h (1 Bft) O-NO 73 ° 0 min 0 W/m² -9,3 °C -6,4 °C 4,8 km/h (1 Bft)
21.01.2024 04:12 22,2 °C -6,4 °C 41 % 80 % 1029,0 hPa 0,0 l/m² 5,2 km/h (1 Bft) O-NO 72 ° 0 min 0 W/m² -9,3 °C -6,4 °C 8,0 km/h (2 Bft)
21.01.2024 04:13 22,2 °C -6,4 °C 41 % 80 % 1028,9 hPa 0,0 l/m² 3,4 km/h (1 Bft) O-NO 72 ° 0 min 0 W/m² -9,3 °C -6,4 °C 4,8 km/h (1 Bft)
21.01.2024 04:14 22,2 °C -6,4 °C 41 % 80 % 1028,9 hPa 0,0 l/m² 3,9 km/h (1 Bft) O-NO 71 ° 0 min 0 W/m² -9,3 °C -6,4 °C 6,4 km/h (2 Bft)
21.01.2024 04:15 22,2 °C -6,4 °C 41 % 80 % 1029,0 hPa 0,0 l/m² 5,9 km/h (2 Bft) O-NO 65 ° 0 min 0 W/m² -9,3 °C -6,4 °C 9,7 km/h (2 Bft)
21.01.2024 04:17 22,2 °C -6,4 °C 41 % 80 % 1029,0 hPa 0,0 l/m² 4,0 km/h (1 Bft) O-NO 66 ° 0 min 0 W/m² -9,3 °C -6,4 °C 8,0 km/h (2 Bft)
21.01.2024 04:18 22,2 °C -6,5 °C 41 % 80 % 1028,9 hPa 0,0 l/m² 4,4 km/h (1 Bft) O-NO 67 ° 0 min 0 W/m² -9,4 °C -6,5 °C 6,4 km/h (2 Bft)
21.01.2024 04:20 22,2 °C -6,4 °C 41 % 79 % 1028,8 hPa 0,0 l/m² 1,7 km/h (1 Bft) O-NO 67 ° 0 min 0 W/m² -9,4 °C -6,4 °C 6,4 km/h (2 Bft)
21.01.2024 04:21 22,2 °C -6,4 °C 41 % 79 % 1028,7 hPa 0,0 l/m² 5,5 km/h (2 Bft) O-SO 119 ° 0 min 0 W/m² -9,4 °C -6,4 °C 9,7 km/h (2 Bft)
21.01.2024 04:23 22,2 °C -6,4 °C 41 % 79 % 1028,7 hPa 0,0 l/m² 2,5 km/h (1 Bft) O-SO 119 ° 0 min 0 W/m² -9,4 °C -6,4 °C 4,8 km/h (1 Bft)
21.01.2024 04:24 22,2 °C -6,4 °C 41 % 79 % 1028,7 hPa 0,0 l/m² 2,2 km/h (1 Bft) O-SO 119 ° 0 min 0 W/m² -9,4 °C -6,4 °C 4,8 km/h (1 Bft)
21.01.2024 04:26 22,2 °C -6,6 °C 41 % 79 % 1028,6 hPa 0,0 l/m² 2,9 km/h (1 Bft) O-SO 119 ° 0 min 0 W/m² -9,6 °C -6,6 °C 6,4 km/h (2 Bft)
21.01.2024 04:28 22,2 °C -6,6 °C 41 % 79 % 1028,5 hPa 0,0 l/m² 3,6 km/h (1 Bft) O-SO 119 ° 0 min 0 W/m² -9,6 °C -6,6 °C 6,4 km/h (2 Bft)
21.01.2024 04:30 22,2 °C -6,7 °C 41 % 79 % 1028,6 hPa 0,0 l/m² 0,8 km/h (0 Bft) O-SO 119 ° 0 min 0 W/m² -9,7 °C -6,7 °C 1,6 km/h (1 Bft)
21.01.2024 04:31 22,2 °C -6,7 °C 41 % 79 % 1028,6 hPa 0,0 l/m² 1,0 km/h (0 Bft) O-SO 119 ° 0 min 0 W/m² -9,7 °C -6,7 °C 3,2 km/h (1 Bft)
21.01.2024 04:33 22,2 °C -6,6 °C 41 % 79 % 1028,6 hPa 0,0 l/m² 1,4 km/h (1 Bft) O-SO 119 ° 0 min 0 W/m² -9,6 °C -6,6 °C 3,2 km/h (1 Bft)
21.01.2024 04:34 22,2 °C -6,6 °C 41 % 79 % 1028,6 hPa 0,0 l/m² 1,3 km/h (1 Bft) O-SO 119 ° 0 min 0 W/m² -9,6 °C -6,6 °C 3,2 km/h (1 Bft)
21.01.2024 04:36 22,2 °C -6,6 °C 41 % 79 % 1028,6 hPa 0,0 l/m² 2,7 km/h (1 Bft) O-SO 119 ° 0 min 0 W/m² -9,6 °C -6,6 °C 4,8 km/h (1 Bft)
21.01.2024 04:38 22,2 °C -6,7 °C 41 % 79 % 1028,6 hPa 0,0 l/m² 3,1 km/h (1 Bft) O-SO 119 ° 0 min 0 W/m² -9,7 °C -6,7 °C 4,8 km/h (1 Bft)
21.01.2024 04:40 22,2 °C -6,8 °C 41 % 79 % 1028,4 hPa 0,0 l/m² 3,5 km/h (1 Bft) O-SO 114 ° 0 min 0 W/m² -9,8 °C -6,8 °C 6,4 km/h (2 Bft)
21.01.2024 04:41 22,2 °C -6,8 °C 41 % 79 % 1028,4 hPa 0,0 l/m² 0,3 km/h (0 Bft) O-SO 114 ° 0 min 0 W/m² -9,8 °C -6,8 °C 1,6 km/h (1 Bft)
21.01.2024 04:43 22,2 °C -6,9 °C 41 % 79 % 1028,4 hPa 0,0 l/m² 0,1 km/h (0 Bft) O-SO 114 ° 0 min 0 W/m² -9,9 °C -6,9 °C 1,6 km/h (1 Bft)
21.01.2024 04:44 22,2 °C -6,9 °C 41 % 79 % 1028,5 hPa 0,0 l/m² 1,7 km/h (1 Bft) O-SO 114 ° 0 min 0 W/m² -9,9 °C -6,9 °C 3,2 km/h (1 Bft)
21.01.2024 04:46 22,2 °C -7,1 °C 41 % 79 % 1028,5 hPa 0,0 l/m² 2,6 km/h (1 Bft) O-SO 111 ° 0 min 0 W/m² -10,1 °C -7,1 °C 4,8 km/h (1 Bft)
21.01.2024 04:48 22,2 °C -7,2 °C 41 % 80 % 1028,5 hPa 0,0 l/m² 2,1 km/h (1 Bft) O-SO 111 ° 0 min 0 W/m² -10,0 °C -7,2 °C 4,8 km/h (1 Bft)
21.01.2024 04:50 22,2 °C -7,2 °C 41 % 80 % 1028,5 hPa 0,0 l/m² 1,5 km/h (1 Bft) O-SO 111 ° 0 min 0 W/m² -10,0 °C -7,2 °C 3,2 km/h (1 Bft)
21.01.2024 04:51 22,2 °C -7,3 °C 41 % 80 % 1028,5 hPa 0,0 l/m² 1,7 km/h (1 Bft) O-SO 111 ° 0 min 0 W/m² -10,1 °C -7,3 °C 3,2 km/h (1 Bft)
21.01.2024 04:53 22,2 °C -7,5 °C 41 % 80 % 1028,5 hPa 0,0 l/m² 2,5 km/h (1 Bft) O-SO 111 ° 0 min 0 W/m² -10,3 °C -7,5 °C 4,8 km/h (1 Bft)
21.01.2024 04:54 22,2 °C -7,6 °C 41 % 80 % 1028,5 hPa 0,0 l/m² 2,5 km/h (1 Bft) O-SO 111 ° 0 min 0 W/m² -10,4 °C -7,6 °C 3,2 km/h (1 Bft)
21.01.2024 04:56 22,2 °C -7,7 °C 41 % 81 % 1028,5 hPa 0,0 l/m² 3,4 km/h (1 Bft) O-SO 111 ° 0 min 0 W/m² -10,4 °C -7,7 °C 4,8 km/h (1 Bft)
21.01.2024 04:58 22,2 °C -7,6 °C 41 % 81 % 1028,5 hPa 0,0 l/m² 3,0 km/h (1 Bft) O-SO 111 ° 0 min 0 W/m² -10,3 °C -7,6 °C 4,8 km/h (1 Bft)
21.01.2024 05:00 22,2 °C -7,4 °C 41 % 81 % 1028,5 hPa 0,0 l/m² 3,3 km/h (1 Bft) O-SO 111 ° 0 min 0 W/m² -10,1 °C -7,4 °C 4,8 km/h (1 Bft)
21.01.2024 05:01 22,2 °C -7,4 °C 41 % 81 % 1028,5 hPa 0,0 l/m² 3,3 km/h (1 Bft) O-SO 111 ° 0 min 0 W/m² -10,1 °C -7,4 °C 4,8 km/h (1 Bft)
21.01.2024 05:03 22,2 °C -7,3 °C 41 % 81 % 1028,5 hPa 0,0 l/m² 4,6 km/h (1 Bft) O-SO 117 ° 0 min 0 W/m² -10,0 °C -7,3 °C 4,8 km/h (1 Bft)
21.01.2024 05:04 22,2 °C -7,3 °C 41 % 81 % 1028,5 hPa 0,0 l/m² 4,2 km/h (1 Bft) O-SO 121 ° 0 min 0 W/m² -10,0 °C -7,3 °C 4,8 km/h (1 Bft)
21.01.2024 05:06 22,2 °C -7,4 °C 41 % 81 % 1028,5 hPa 0,0 l/m² 3,8 km/h (1 Bft) SO 128 ° 0 min 0 W/m² -10,1 °C -7,4 °C 6,4 km/h (2 Bft)
21.01.2024 05:08 22,2 °C -7,7 °C 41 % 81 % 1028,5 hPa 0,0 l/m² 1,9 km/h (1 Bft) SO 128 ° 0 min 0 W/m² -10,4 °C -7,7 °C 3,2 km/h (1 Bft)
21.01.2024 05:10 22,2 °C -7,9 °C 41 % 82 % 1028,5 hPa 0,0 l/m² 1,2 km/h (1 Bft) SO 128 ° 0 min 0 W/m² -10,4 °C -7,9 °C 3,2 km/h (1 Bft)
21.01.2024 05:11 22,2 °C -7,9 °C 41 % 82 % 1028,5 hPa 0,0 l/m² 0,1 km/h (0 Bft) SO 128 ° 0 min 0 W/m² -10,4 °C -7,9 °C 1,6 km/h (1 Bft)
21.01.2024 05:13 22,2 °C -8,1 °C 41 % 83 % 1028,5 hPa 0,0 l/m² 0,0 km/h (0 Bft) SO 128 ° 0 min 0 W/m² -10,5 °C -8,1 °C 0,0 km/h (0 Bft)
21.01.2024 05:14 22,2 °C -8,1 °C 41 % 83 % 1028,5 hPa 0,0 l/m² 0,0 km/h (0 Bft) SO 128 ° 0 min 0 W/m² -10,5 °C -8,1 °C 0,0 km/h (0 Bft)
21.01.2024 05:16 22,2 °C -8,1 °C 41 % 84 % 1028,5 hPa 0,0 l/m² 0,0 km/h (0 Bft) SO 128 ° 0 min 0 W/m² -10,3 °C -8,1 °C 0,0 km/h (0 Bft)
21.01.2024 05:18 22,2 °C -8,0 °C 41 % 84 % 1028,5 hPa 0,0 l/m² 0,7 km/h (0 Bft) SO 128 ° 0 min 0 W/m² -10,2 °C -8,0 °C 4,8 km/h (1 Bft)
21.01.2024 05:20 22,2 °C -7,9 °C 41 % 84 % 1028,5 hPa 0,0 l/m² 1,3 km/h (1 Bft) SO 128 ° 0 min 0 W/m² -10,1 °C -7,9 °C 4,8 km/h (1 Bft)
21.01.2024 05:21 22,2 °C -7,8 °C 41 % 84 % 1028,5 hPa 0,0 l/m² 3,9 km/h (1 Bft) SO 130 ° 0 min 0 W/m² -10,0 °C -7,8 °C 6,4 km/h (2 Bft)
21.01.2024 05:23 22,2 °C -7,8 °C 41 % 84 % 1028,6 hPa 0,0 l/m² 4,1 km/h (1 Bft) SO 130 ° 0 min 0 W/m² -10,0 °C -7,8 °C 6,4 km/h (2 Bft)
21.01.2024 05:24 22,2 °C -7,7 °C 41 % 84 % 1028,6 hPa 0,0 l/m² 4,1 km/h (1 Bft) SO 130 ° 0 min 0 W/m² -9,9 °C -7,7 °C 4,8 km/h (1 Bft)
21.01.2024 05:26 22,2 °C -7,8 °C 41 % 83 % 1028,5 hPa 0,0 l/m² 2,7 km/h (1 Bft) SO 130 ° 0 min 0 W/m² -10,2 °C -7,8 °C 4,8 km/h (1 Bft)
21.01.2024 05:28 22,2 °C -7,9 °C 41 % 82 % 1028,4 hPa 0,0 l/m² 2,9 km/h (1 Bft) SO 130 ° 0 min 0 W/m² -10,4 °C -7,9 °C 4,8 km/h (1 Bft)
21.01.2024 05:30 22,2 °C -8,1 °C 41 % 82 % 1028,5 hPa 0,0 l/m² 4,3 km/h (1 Bft) SO 130 ° 0 min 0 W/m² -10,6 °C -8,1 °C 4,8 km/h (1 Bft)
21.01.2024 05:31 22,2 °C -8,2 °C 41 % 82 % 1028,5 hPa 0,0 l/m² 4,5 km/h (1 Bft) SO 131 ° 0 min 0 W/m² -10,7 °C -8,2 °C 6,4 km/h (2 Bft)
21.01.2024 05:33 22,2 °C -8,4 °C 41 % 82 % 1028,5 hPa 0,0 l/m² 3,5 km/h (1 Bft) SO 131 ° 0 min 0 W/m² -10,9 °C -8,4 °C 4,8 km/h (1 Bft)
21.01.2024 05:34 22,2 °C -8,4 °C 41 % 82 % 1028,4 hPa 0,0 l/m² 2,5 km/h (1 Bft) SO 131 ° 0 min 0 W/m² -10,9 °C -8,4 °C 3,2 km/h (1 Bft)
21.01.2024 05:36 22,2 °C -8,5 °C 41 % 82 % 1028,4 hPa 0,0 l/m² 1,8 km/h (1 Bft) SO 131 ° 0 min 0 W/m² -11,0 °C -8,5 °C 3,2 km/h (1 Bft)
21.01.2024 05:38 22,2 °C -8,6 °C 41 % 83 % 1028,4 hPa 0,0 l/m² 1,9 km/h (1 Bft) SO 131 ° 0 min 0 W/m² -11,0 °C -8,6 °C 3,2 km/h (1 Bft)
21.01.2024 05:40 22,2 °C -8,6 °C 41 % 83 % 1028,4 hPa 0,0 l/m² 0,0 km/h (0 Bft) SO 131 ° 0 min 0 W/m² -11,0 °C -8,6 °C 1,6 km/h (1 Bft)
21.01.2024 05:41 22,2 °C -8,6 °C 41 % 84 % 1028,3 hPa 0,0 l/m² 0,9 km/h (0 Bft) SO 131 ° 0 min 0 W/m² -10,8 °C -8,6 °C 3,2 km/h (1 Bft)
21.01.2024 05:43 22,3 °C -8,6 °C 41 % 84 % 1028,2 hPa 0,0 l/m² 1,9 km/h (1 Bft) SO 131 ° 0 min 0 W/m² -10,8 °C -8,6 °C 3,2 km/h (1 Bft)
21.01.2024 05:44 22,3 °C -8,5 °C 41 % 84 % 1028,2 hPa 0,0 l/m² 2,5 km/h (1 Bft) SO 131 ° 0 min 0 W/m² -10,7 °C -8,5 °C 3,2 km/h (1 Bft)
21.01.2024 05:46 22,2 °C -8,5 °C 41 % 84 % 1028,2 hPa 0,0 l/m² 3,0 km/h (1 Bft) SO 131 ° 0 min 0 W/m² -10,7 °C -8,5 °C 4,8 km/h (1 Bft)
21.01.2024 05:48 22,2 °C -8,4 °C 41 % 84 % 1028,2 hPa 0,0 l/m² 0,6 km/h (0 Bft) SO 131 ° 0 min 0 W/m² -10,6 °C -8,4 °C 1,6 km/h (1 Bft)
21.01.2024 05:50 22,2 °C -8,3 °C 41 % 85 % 1028,2 hPa 0,0 l/m² 2,2 km/h (1 Bft) SO 131 ° 0 min 0 W/m² -10,4 °C -8,3 °C 4,8 km/h (1 Bft)
21.01.2024 05:51 22,3 °C -8,2 °C 41 % 85 % 1028,2 hPa 0,0 l/m² 0,2 km/h (0 Bft) SO 131 ° 0 min 0 W/m² -10,3 °C -8,2 °C 1,6 km/h (1 Bft)
21.01.2024 05:53 22,3 °C -8,0 °C 41 % 85 % 1028,1 hPa 0,0 l/m² 1,5 km/h (1 Bft) SO 130 ° 0 min 0 W/m² -10,1 °C -8,0 °C 6,4 km/h (2 Bft)
21.01.2024 05:54 22,3 °C -7,9 °C 41 % 85 % 1028,1 hPa 0,0 l/m² 4,2 km/h (1 Bft) O 94 ° 0 min 0 W/m² -10,0 °C -7,9 °C 6,4 km/h (2 Bft)
21.01.2024 05:56 22,3 °C -7,7 °C 41 % 85 % 1028,2 hPa 0,0 l/m² 2,6 km/h (1 Bft) O 95 ° 0 min 0 W/m² -9,8 °C -7,7 °C 4,8 km/h (1 Bft)
21.01.2024 05:58 22,2 °C -7,6 °C 41 % 85 % 1028,1 hPa 0,0 l/m² 1,4 km/h (1 Bft) O 95 ° 0 min 0 W/m² -9,7 °C -7,6 °C 3,2 km/h (1 Bft)
21.01.2024 06:00 22,3 °C -7,6 °C 41 % 84 % 1028,1 hPa 0,0 l/m² 0,5 km/h (0 Bft) O 95 ° 0 min 0 W/m² -9,8 °C -7,6 °C 3,2 km/h (1 Bft)
21.01.2024 06:01 22,2 °C -7,7 °C 41 % 84 % 1028,1 hPa 0,0 l/m² 0,0 km/h (0 Bft) O 95 ° 0 min 0 W/m² -9,9 °C -7,7 °C 0,0 km/h (0 Bft)
21.01.2024 06:03 22,3 °C -7,9 °C 41 % 83 % 1028,1 hPa 0,0 l/m² 0,0 km/h (0 Bft) O 95 ° 0 min 0 W/m² -10,3 °C -7,9 °C 0,0 km/h (0 Bft)
21.01.2024 06:04 22,3 °C -8,0 °C 41 % 83 % 1028,1 hPa 0,0 l/m² 0,0 km/h (0 Bft) O 95 ° 0 min 0 W/m² -10,4 °C -8,0 °C 0,0 km/h (0 Bft)
21.01.2024 06:06 22,3 °C -8,2 °C 41 % 83 % 1028,2 hPa 0,0 l/m² 0,0 km/h (0 Bft) O 95 ° 0 min 0 W/m² -10,6 °C -8,2 °C 0,0 km/h (0 Bft)
21.01.2024 06:08 22,3 °C -8,3 °C 41 % 83 % 1028,1 hPa 0,0 l/m² 0,0 km/h (0 Bft) O 95 ° 0 min 0 W/m² -10,7 °C -8,3 °C 0,0 km/h (0 Bft)
21.01.2024 06:10 22,3 °C -8,3 °C 41 % 84 % 1028,2 hPa 0,0 l/m² 0,0 km/h (0 Bft) O 95 ° 0 min 0 W/m² -10,5 °C -8,3 °C 0,0 km/h (0 Bft)
21.01.2024 06:11 22,3 °C -8,3 °C 41 % 84 % 1028,0 hPa 0,0 l/m² 0,0 km/h (0 Bft) O 95 ° 0 min 0 W/m² -10,5 °C -8,3 °C 0,0 km/h (0 Bft)
21.01.2024 06:13 22,3 °C -8,4 °C 41 % 84 % 1028,1 hPa 0,0 l/m² 0,0 km/h (0 Bft) O 95 ° 0 min 0 W/m² -10,6 °C -8,4 °C 0,0 km/h (0 Bft)
21.01.2024 06:14 22,3 °C -8,5 °C 41 % 84 % 1028,1 hPa 0,0 l/m² 0,0 km/h (0 Bft) O 95 ° 0 min 0 W/m² -10,7 °C -8,5 °C 0,0 km/h (0 Bft)
21.01.2024 06:16 22,3 °C -8,6 °C 41 % 84 % 1028,0 hPa 0,0 l/m² 0,0 km/h (0 Bft) O 95 ° 0 min 0 W/m² -10,8 °C -8,6 °C 0,0 km/h (0 Bft)
21.01.2024 06:18 22,3 °C -8,7 °C 41 % 84 % 1028,0 hPa 0,0 l/m² 0,0 km/h (0 Bft) O 95 ° 0 min 0 W/m² -10,9 °C -8,7 °C 0,0 km/h (0 Bft)
21.01.2024 06:20 22,3 °C -8,8 °C 41 % 84 % 1028,0 hPa 0,0 l/m² 0,0 km/h (0 Bft) O 95 ° 0 min 0 W/m² -11,0 °C -8,8 °C 0,0 km/h (0 Bft)
21.01.2024 06:21 22,3 °C -8,8 °C 41 % 84 % 1027,9 hPa 0,0 l/m² 0,0 km/h (0 Bft) O 95 ° 0 min 0 W/m² -11,0 °C -8,8 °C 0,0 km/h (0 Bft)
21.01.2024 06:23 22,3 °C -8,9 °C 41 % 84 % 1028,0 hPa 0,0 l/m² 0,0 km/h (0 Bft) O 95 ° 0 min 0 W/m² -11,1 °C -8,9 °C 0,0 km/h (0 Bft)
21.01.2024 06:24 22,3 °C -9,0 °C 41 % 85 % 1028,0 hPa 0,0 l/m² 0,0 km/h (0 Bft) O 95 ° 0 min 0 W/m² -11,0 °C -9,0 °C 0,0 km/h (0 Bft)
21.01.2024 06:25 22,3 °C -9,0 °C 41 % 85 % 1028,0 hPa 0,0 l/m² 0,0 km/h (0 Bft) O 95 ° 0 min 0 W/m² -11,0 °C -9,0 °C 0,0 km/h (0 Bft)
21.01.2024 06:27 22,3 °C -9,1 °C 41 % 85 % 1027,9 hPa 0,0 l/m² 0,0 km/h (0 Bft) O 95 ° 0 min 0 W/m² -11,1 °C -9,1 °C 0,0 km/h (0 Bft)
21.01.2024 06:29 22,3 °C -9,2 °C 41 % 85 % 1027,9 hPa 0,0 l/m² 0,0 km/h (0 Bft) O 95 ° 0 min 0 W/m² -11,2 °C -9,2 °C 0,0 km/h (0 Bft)
21.01.2024 06:30 22,3 °C -9,2 °C 41 % 85 % 1028,0 hPa 0,0 l/m² 0,0 km/h (0 Bft) O 95 ° 0 min 0 W/m² -11,2 °C -9,2 °C 0,0 km/h (0 Bft)
21.01.2024 06:32 22,3 °C -9,3 °C 41 % 85 % 1027,9 hPa 0,0 l/m² 0,0 km/h (0 Bft) O 95 ° 0 min 0 W/m² -11,3 °C -9,3 °C 0,0 km/h (0 Bft)
21.01.2024 06:33 22,3 °C -9,4 °C 41 % 85 % 1027,9 hPa 0,0 l/m² 0,0 km/h (0 Bft) O 95 ° 0 min 0 W/m² -11,4 °C -9,4 °C 0,0 km/h (0 Bft)
21.01.2024 06:35 22,3 °C -9,4 °C 41 % 85 % 1027,8 hPa 0,0 l/m² 0,0 km/h (0 Bft) O 95 ° 0 min 0 W/m² -11,4 °C -9,4 °C 0,0 km/h (0 Bft)
21.01.2024 06:37 22,3 °C -9,4 °C 41 % 85 % 1027,8 hPa 0,0 l/m² 0,0 km/h (0 Bft) O 95 ° 0 min 0 W/m² -11,4 °C -9,4 °C 0,0 km/h (0 Bft)
21.01.2024 06:38 22,3 °C -9,5 °C 41 % 85 % 1027,7 hPa 0,0 l/m² 0,0 km/h (0 Bft) O 95 ° 0 min 0 W/m² -11,5 °C -9,5 °C 0,0 km/h (0 Bft)
21.01.2024 06:40 22,3 °C -9,5 °C 41 % 85 % 1027,8 hPa 0,0 l/m² 0,0 km/h (0 Bft) O 95 ° 0 min 0 W/m² -11,5 °C -9,5 °C 0,0 km/h (0 Bft)
21.01.2024 06:41 22,3 °C -9,6 °C 41 % 86 % 1027,8 hPa 0,0 l/m² 0,0 km/h (0 Bft) O 95 ° 0 min 0 W/m² -11,5 °C -9,6 °C 0,0 km/h (0 Bft)
21.01.2024 06:43 22,3 °C -9,6 °C 41 % 86 % 1027,7 hPa 0,0 l/m² 0,0 km/h (0 Bft) O 95 ° 0 min 0 W/m² -11,5 °C -9,6 °C 0,0 km/h (0 Bft)
21.01.2024 06:44 22,3 °C -9,6 °C 41 % 86 % 1027,8 hPa 0,0 l/m² 0,0 km/h (0 Bft) O 95 ° 0 min 0 W/m² -11,5 °C -9,6 °C 0,0 km/h (0 Bft)
21.01.2024 06:46 22,3 °C -9,5 °C 41 % 86 % 1027,7 hPa 0,0 l/m² 0,0 km/h (0 Bft) O 95 ° 0 min 0 W/m² -11,4 °C -9,5 °C 0,0 km/h (0 Bft)
21.01.2024 06:48 22,3 °C -9,4 °C 41 % 86 % 1027,6 hPa 0,0 l/m² 0,0 km/h (0 Bft) O 95 ° 0 min 0 W/m² -11,3 °C -9,4 °C 1,6 km/h (1 Bft)
21.01.2024 06:50 22,3 °C -9,4 °C 41 % 86 % 1027,7 hPa 0,0 l/m² 0,0 km/h (0 Bft) O 95 ° 0 min 0 W/m² -11,3 °C -9,4 °C 0,0 km/h (0 Bft)
21.01.2024 06:51 22,3 °C -9,4 °C 41 % 86 % 1027,6 hPa 0,0 l/m² 0,0 km/h (0 Bft) O 95 ° 0 min 0 W/m² -11,3 °C -9,4 °C 0,0 km/h (0 Bft)
21.01.2024 06:53 22,3 °C -9,4 °C 41 % 86 % 1027,6 hPa 0,0 l/m² 0,0 km/h (0 Bft) O 95 ° 0 min 0 W/m² -11,3 °C -9,4 °C 0,0 km/h (0 Bft)
21.01.2024 06:54 22,3 °C -9,4 °C 41 % 87 % 1027,6 hPa 0,0 l/m² 0,7 km/h (0 Bft) O 95 ° 0 min 0 W/m² -11,2 °C -9,4 °C 1,6 km/h (1 Bft)
21.01.2024 06:56 22,3 °C -9,3 °C 41 % 87 % 1027,7 hPa 0,0 l/m² 1,6 km/h (1 Bft) O 95 ° 0 min 0 W/m² -11,1 °C -9,3 °C 3,2 km/h (1 Bft)
21.01.2024 06:58 22,2 °C -9,4 °C 41 % 87 % 1027,6 hPa 0,0 l/m² 2,4 km/h (1 Bft) O 95 ° 0 min 0 W/m² -11,2 °C -9,4 °C 4,8 km/h (1 Bft)
21.01.2024 06:59 22,2 °C -9,4 °C 41 % 87 % 1027,6 hPa 0,0 l/m² 3,5 km/h (1 Bft) O 95 ° 0 min 0 W/m² -11,2 °C -9,4 °C 4,8 km/h (1 Bft)
21.01.2024 07:01 22,2 °C -9,4 °C 41 % 87 % 1027,5 hPa 0,0 l/m² 2,4 km/h (1 Bft) O 95 ° 0 min 0 W/m² -11,2 °C -9,4 °C 3,2 km/h (1 Bft)
21.01.2024 07:02 22,3 °C -9,4 °C 41 % 87 % 1027,6 hPa 0,0 l/m² 3,3 km/h (1 Bft) O 95 ° 0 min 0 W/m² -11,2 °C -9,4 °C 4,8 km/h (1 Bft)
21.01.2024 07:03 22,3 °C -9,4 °C 41 % 87 % 1027,6 hPa 0,0 l/m² 2,8 km/h (1 Bft) O 95 ° 0 min 0 W/m² -11,2 °C -9,4 °C 3,2 km/h (1 Bft)
21.01.2024 07:04 22,3 °C -9,4 °C 41 % 87 % 1027,6 hPa 0,0 l/m² 2,4 km/h (1 Bft) O 95 ° 0 min 0 W/m² -11,2 °C -9,4 °C 3,2 km/h (1 Bft)
21.01.2024 07:05 22,2 °C -9,4 °C 41 % 87 % 1027,6 hPa 0,0 l/m² 0,1 km/h (0 Bft) O 95 ° 0 min 0 W/m² -11,2 °C -9,4 °C 1,6 km/h (1 Bft)
21.01.2024 07:07 22,2 °C -9,4 °C 41 % 87 % 1027,5 hPa 0,0 l/m² 0,4 km/h (0 Bft) O 95 ° 0 min 0 W/m² -11,2 °C -9,4 °C 1,6 km/h (1 Bft)
21.01.2024 07:09 22,2 °C -9,3 °C 41 % 88 % 1027,6 hPa 0,0 l/m² 1,8 km/h (1 Bft) O 95 ° 0 min 0 W/m² -10,9 °C -9,3 °C 3,2 km/h (1 Bft)
21.01.2024 07:10 22,2 °C -9,2 °C 41 % 88 % 1027,5 hPa 0,0 l/m² 0,3 km/h (0 Bft) O 95 ° 0 min 0 W/m² -10,8 °C -9,2 °C 1,6 km/h (1 Bft)
21.01.2024 07:12 22,2 °C -9,1 °C 41 % 88 % 1027,6 hPa 0,0 l/m² 0,4 km/h (0 Bft) O 95 ° 0 min 0 W/m² -10,7 °C -9,1 °C 1,6 km/h (1 Bft)
21.01.2024 07:13 22,2 °C -9,1 °C 41 % 88 % 1027,6 hPa 0,0 l/m² 0,0 km/h (0 Bft) O 95 ° 0 min 0 W/m² -10,7 °C -9,1 °C 0,0 km/h (0 Bft)
21.01.2024 07:15 22,2 °C -9,0 °C 41 % 88 % 1027,6 hPa 0,0 l/m² 0,0 km/h (0 Bft) O 95 ° 0 min 0 W/m² -10,6 °C -9,0 °C 0,0 km/h (0 Bft)
21.01.2024 07:17 22,2 °C -8,9 °C 41 % 88 % 1027,5 hPa 0,0 l/m² 0,0 km/h (0 Bft) O 95 ° 0 min 0 W/m² -10,5 °C -8,9 °C 0,0 km/h (0 Bft)
21.01.2024 07:19 22,2 °C -8,9 °C 41 % 88 % 1027,5 hPa 0,0 l/m² 0,9 km/h (0 Bft) O 95 ° 0 min 0 W/m² -10,5 °C -8,9 °C 1,6 km/h (1 Bft)
21.01.2024 07:20 22,2 °C -8,9 °C 41 % 88 % 1027,5 hPa 0,0 l/m² 1,4 km/h (1 Bft) O 95 ° 0 min 0 W/m² -10,5 °C -8,9 °C 1,6 km/h (1 Bft)
21.01.2024 07:22 22,2 °C -8,9 °C 41 % 88 % 1027,5 hPa 0,0 l/m² 1,0 km/h (0 Bft) O 95 ° 0 min 0 W/m² -10,5 °C -8,9 °C 1,6 km/h (1 Bft)
21.01.2024 07:23 22,2 °C -8,9 °C 41 % 88 % 1027,5 hPa 0,0 l/m² 2,1 km/h (1 Bft) O 95 ° 0 min 0 W/m² -10,5 °C -8,9 °C 3,2 km/h (1 Bft)
21.01.2024 07:25 22,2 °C -8,8 °C 41 % 88 % 1027,5 hPa 0,0 l/m² 1,0 km/h (0 Bft) O 95 ° 0 min 0 W/m² -10,4 °C -8,8 °C 1,6 km/h (1 Bft)
21.01.2024 07:27 22,2 °C -8,8 °C 41 % 89 % 1027,5 hPa 0,0 l/m² 0,0 km/h (0 Bft) O 95 ° 0 min 0 W/m² -10,3 °C -8,8 °C 0,0 km/h (0 Bft)
21.01.2024 07:29 22,2 °C -8,7 °C 41 % 89 % 1027,5 hPa 0,0 l/m² 0,3 km/h (0 Bft) O 95 ° 0 min 0 W/m² -10,2 °C -8,7 °C 3,2 km/h (1 Bft)
21.01.2024 07:31 22,2 °C -8,6 °C 41 % 89 % 1027,5 hPa 0,0 l/m² 0,6 km/h (0 Bft) O 95 ° 0 min 0 W/m² -10,1 °C -8,6 °C 3,2 km/h (1 Bft)
21.01.2024 07:32 22,2 °C -8,5 °C 41 % 89 % 1027,5 hPa 0,0 l/m² 0,0 km/h (0 Bft) O 95 ° 0 min 0 W/m² -10,0 °C -8,5 °C 0,0 km/h (0 Bft)
21.01.2024 07:33 22,2 °C -8,4 °C 41 % 89 % 1027,4 hPa 0,0 l/m² 0,2 km/h (0 Bft) O 95 ° 0 min 0 W/m² -9,9 °C -8,4 °C 1,6 km/h (1 Bft)
21.01.2024 07:34 22,2 °C -8,4 °C 41 % 89 % 1027,4 hPa 0,0 l/m² 0,9 km/h (0 Bft) O 95 ° 0 min 0 W/m² -9,9 °C -8,4 °C 1,6 km/h (1 Bft)
21.01.2024 07:36 22,2 °C -8,4 °C 41 % 89 % 1027,4 hPa 0,0 l/m² 0,4 km/h (0 Bft) O 95 ° 0 min 0 W/m² -9,9 °C -8,4 °C 3,2 km/h (1 Bft)
21.01.2024 07:38 22,2 °C -8,6 °C 41 % 88 % 1027,5 hPa 0,0 l/m² 2,2 km/h (1 Bft) O 95 ° 0 min 0 W/m² -10,2 °C -8,6 °C 4,8 km/h (1 Bft)
21.01.2024 07:40 22,2 °C -8,7 °C 41 % 88 % 1027,4 hPa 0,0 l/m² 2,5 km/h (1 Bft) O 95 ° 0 min 0 W/m² -10,3 °C -8,7 °C 4,8 km/h (1 Bft)
21.01.2024 07:41 22,2 °C -8,6 °C 41 % 88 % 1027,5 hPa 0,0 l/m² 2,8 km/h (1 Bft) O 95 ° 0 min 0 W/m² -10,2 °C -8,6 °C 3,2 km/h (1 Bft)
21.01.2024 07:43 22,2 °C -8,7 °C 41 % 88 % 1027,4 hPa 0,0 l/m² 2,3 km/h (1 Bft) O 95 ° 0 min 0 W/m² -10,3 °C -8,7 °C 4,8 km/h (1 Bft)
21.01.2024 07:44 22,2 °C -8,6 °C 41 % 88 % 1027,4 hPa 0,0 l/m² 4,0 km/h (1 Bft) O 95 ° 0 min 0 W/m² -10,2 °C -8,6 °C 4,8 km/h (1 Bft)
21.01.2024 07:46 22,2 °C -8,5 °C 41 % 89 % 1027,4 hPa 0,0 l/m² 4,4 km/h (1 Bft) O 95 ° 0 min 0 W/m² -10,0 °C -8,5 °C 6,4 km/h (2 Bft)
21.01.2024 07:48 22,2 °C -8,3 °C 41 % 89 % 1027,3 hPa 0,0 l/m² 6,2 km/h (2 Bft) O 86 ° 0 min 0 W/m² -9,8 °C -8,3 °C 9,7 km/h (2 Bft)
21.01.2024 07:50 22,2 °C -8,1 °C 41 % 89 % 1027,4 hPa 0,0 l/m² 4,9 km/h (1 Bft) O 88 ° 0 min 0 W/m² -9,6 °C -8,1 °C 11,3 km/h (2 Bft)
21.01.2024 07:51 22,2 °C -7,9 °C 41 % 89 % 1027,3 hPa 0,0 l/m² 3,0 km/h (1 Bft) O 88 ° 0 min 0 W/m² -9,4 °C -7,9 °C 4,8 km/h (1 Bft)
21.01.2024 07:53 22,2 °C -7,8 °C 41 % 89 % 1027,3 hPa 0,0 l/m² 1,4 km/h (1 Bft) O 88 ° 0 min 0 W/m² -9,3 °C -7,8 °C 3,2 km/h (1 Bft)
21.01.2024 07:54 22,2 °C -7,8 °C 41 % 89 % 1027,3 hPa 0,0 l/m² 0,3 km/h (0 Bft) O 88 ° 0 min 7 W/m² -9,3 °C -7,8 °C 1,6 km/h (1 Bft)
21.01.2024 07:56 22,2 °C -7,8 °C 41 % 89 % 1027,3 hPa 0,0 l/m² 2,5 km/h (1 Bft) O 88 ° 0 min 9 W/m² -9,3 °C -7,8 °C 4,8 km/h (1 Bft)
21.01.2024 07:58 22,2 °C -7,8 °C 41 % 88 % 1027,3 hPa 0,0 l/m² 3,0 km/h (1 Bft) O 88 ° 0 min 11 W/m² -9,4 °C -7,8 °C 4,8 km/h (1 Bft)
21.01.2024 08:00 22,2 °C -7,8 °C 41 % 88 % 1027,2 hPa 0,0 l/m² 3,6 km/h (1 Bft) O 88 ° 0 min 9 W/m² -9,4 °C -7,8 °C 4,8 km/h (1 Bft)
21.01.2024 08:01 22,2 °C -7,8 °C 41 % 88 % 1027,2 hPa 0,0 l/m² 2,9 km/h (1 Bft) O 88 ° 0 min 9 W/m² -9,4 °C -7,8 °C 3,2 km/h (1 Bft)
21.01.2024 08:03 22,2 °C -7,7 °C 41 % 88 % 1027,3 hPa 0,0 l/m² 2,1 km/h (1 Bft) O 88 ° 0 min 9 W/m² -9,3 °C -7,7 °C 3,2 km/h (1 Bft)
21.01.2024 08:04 22,2 °C -7,6 °C 41 % 89 % 1027,1 hPa 0,0 l/m² 2,1 km/h (1 Bft) O 88 ° 0 min 9 W/m² -9,1 °C -7,6 °C 3,2 km/h (1 Bft)
21.01.2024 08:06 22,2 °C -7,4 °C 41 % 89 % 1027,1 hPa 0,0 l/m² 1,8 km/h (1 Bft) O 89 ° 0 min 7 W/m² -8,9 °C -7,4 °C 6,4 km/h (2 Bft)
21.01.2024 08:08 22,2 °C -7,1 °C 41 % 89 % 1027,1 hPa 0,0 l/m² 3,7 km/h (1 Bft) O-SO 121 ° 0 min 7 W/m² -8,6 °C -7,1 °C 8,0 km/h (2 Bft)
21.01.2024 08:10 22,2 °C -6,8 °C 41 % 89 % 1027,2 hPa 0,0 l/m² 4,3 km/h (1 Bft) SO 132 ° 0 min 5 W/m² -8,3 °C -6,8 °C 8,0 km/h (2 Bft)
21.01.2024 08:11 22,2 °C -6,5 °C 41 % 89 % 1027,2 hPa 0,0 l/m² 4,5 km/h (1 Bft) SO 131 ° 0 min 5 W/m² -8,0 °C -6,5 °C 11,3 km/h (2 Bft)
21.01.2024 08:13 22,3 °C -6,1 °C 41 % 89 % 1027,2 hPa 0,0 l/m² 5,9 km/h (2 Bft) SO 126 ° 0 min 7 W/m² -7,6 °C -6,1 °C 8,0 km/h (2 Bft)
21.01.2024 08:14 22,2 °C -5,9 °C 41 % 88 % 1027,2 hPa 0,0 l/m² 6,3 km/h (2 Bft) SO 126 ° 0 min 7 W/m² -7,6 °C -5,9 °C 8,0 km/h (2 Bft)
21.01.2024 08:16 22,2 °C -5,6 °C 41 % 87 % 1027,1 hPa 0,0 l/m² 6,7 km/h (2 Bft) O-SO 117 ° 0 min 7 W/m² -7,4 °C -5,9 °C 11,3 km/h (2 Bft)
21.01.2024 08:18 22,3 °C -5,3 °C 41 % 86 % 1027,0 hPa 0,0 l/m² 9,4 km/h (2 Bft) O-SO 113 ° 0 min 9 W/m² -7,3 °C -8,7 °C 12,9 km/h (3 Bft)
21.01.2024 08:20 22,3 °C -5,2 °C 41 % 86 % 1027,0 hPa 0,0 l/m² 5,7 km/h (2 Bft) O-SO 113 ° 0 min 9 W/m² -7,2 °C -5,2 °C 9,7 km/h (2 Bft)
21.01.2024 08:21 22,3 °C -5,1 °C 42 % 85 % 1027,0 hPa 0,0 l/m² 8,2 km/h (2 Bft) O-SO 112 ° 0 min 11 W/m² -7,2 °C -7,2 °C 11,3 km/h (2 Bft)
21.01.2024 08:23 22,3 °C -4,9 °C 42 % 84 % 1027,1 hPa 0,0 l/m² 6,1 km/h (2 Bft) O-SO 113 ° 0 min 12 W/m² -7,2 °C -4,9 °C 11,3 km/h (2 Bft)
21.01.2024 08:24 22,3 °C -4,8 °C 42 % 83 % 1027,1 hPa 0,0 l/m² 9,3 km/h (2 Bft) O-SO 115 ° 0 min 12 W/m² -7,2 °C -8,1 °C 12,9 km/h (3 Bft)
21.01.2024 08:26 22,3 °C -4,7 °C 42 % 83 % 1027,1 hPa 0,0 l/m² 7,1 km/h (2 Bft) O-SO 119 ° 0 min 14 W/m² -7,1 °C -5,5 °C 12,9 km/h (3 Bft)
21.01.2024 08:28 22,3 °C -4,6 °C 42 % 81 % 1027,0 hPa 0,0 l/m² 12,1 km/h (2 Bft) O 98 ° 0 min 16 W/m² -7,4 °C -10,4 °C 19,3 km/h (3 Bft)
21.01.2024 08:30 22,3 °C -4,4 °C 42 % 81 % 1026,8 hPa 0,0 l/m² 13,4 km/h (3 Bft) O 94 ° 0 min 18 W/m² -7,2 °C -11,2 °C 16,1 km/h (3 Bft)
21.01.2024 08:31 22,3 °C -4,3 °C 42 % 81 % 1026,9 hPa 0,0 l/m² 14,3 km/h (3 Bft) O-SO 109 ° 0 min 18 W/m² -7,1 °C -11,7 °C 19,3 km/h (3 Bft)
21.01.2024 08:33 22,3 °C -4,2 °C 42 % 80 % 1026,8 hPa 0,0 l/m² 14,1 km/h (3 Bft) O-SO 119 ° 0 min 19 W/m² -7,1 °C -11,4 °C 19,3 km/h (3 Bft)
21.01.2024 08:34 22,3 °C -4,1 °C 42 % 80 % 1026,9 hPa 0,0 l/m² 15,5 km/h (3 Bft) O-SO 123 ° 0 min 19 W/m² -7,0 °C -12,3 °C 20,9 km/h (4 Bft)
21.01.2024 08:36 22,3 °C -4,0 °C 42 % 79 % 1026,7 hPa 0,0 l/m² 15,7 km/h (3 Bft) O-SO 109 ° 0 min 21 W/m² -7,1 °C -12,3 °C 19,3 km/h (3 Bft)
21.01.2024 08:38 22,3 °C -3,9 °C 42 % 79 % 1026,6 hPa 0,0 l/m² 15,7 km/h (3 Bft) O-SO 105 ° 0 min 23 W/m² -7,0 °C -12,2 °C 20,9 km/h (4 Bft)
21.01.2024 08:40 22,3 °C -3,8 °C 42 % 78 % 1026,5 hPa 0,0 l/m² 15,2 km/h (3 Bft) O-SO 117 ° 0 min 25 W/m² -7,1 °C -11,7 °C 19,3 km/h (3 Bft)
21.01.2024 08:41 22,3 °C -3,8 °C 42 % 78 % 1026,5 hPa 0,0 l/m² 13,8 km/h (3 Bft) O-SO 121 ° 0 min 26 W/m² -7,1 °C -10,7 °C 17,7 km/h (3 Bft)
21.01.2024 08:43 22,3 °C -3,7 °C 42 % 78 % 1026,5 hPa 0,0 l/m² 15,4 km/h (3 Bft) O-SO 123 ° 0 min 28 W/m² -7,0 °C -11,7 °C 19,3 km/h (3 Bft)
21.01.2024 08:44 22,3 °C -3,7 °C 42 % 78 % 1026,6 hPa 0,0 l/m² 12,5 km/h (2 Bft) O-SO 115 ° 0 min 30 W/m² -7,0 °C -9,7 °C 14,5 km/h (3 Bft)
21.01.2024 08:46 22,3 °C -3,7 °C 42 % 77 % 1026,5 hPa 0,0 l/m² 11,9 km/h (2 Bft) O-SO 112 ° 0 min 32 W/m² -7,1 °C -9,2 °C 17,7 km/h (3 Bft)
21.01.2024 08:48 22,3 °C -3,8 °C 42 % 77 % 1026,5 hPa 0,0 l/m² 14,2 km/h (3 Bft) O-SO 107 ° 0 min 35 W/m² -7,2 °C -11,0 °C 17,7 km/h (3 Bft)
21.01.2024 08:50 22,3 °C -3,8 °C 42 % 77 % 1026,5 hPa 0,0 l/m² 12,7 km/h (3 Bft) O-SO 107 ° 0 min 37 W/m² -7,2 °C -9,9 °C 16,1 km/h (3 Bft)
21.01.2024 08:51 22,3 °C -3,7 °C 42 % 77 % 1026,6 hPa 0,0 l/m² 12,0 km/h (2 Bft) O 98 ° 0 min 37 W/m² -7,1 °C -9,3 °C 14,5 km/h (3 Bft)
21.01.2024 08:52 22,3 °C -3,7 °C 42 % 77 % 1026,6 hPa 0,0 l/m² 10,0 km/h (2 Bft) O-SO 107 ° 0 min 39 W/m² -7,1 °C -7,5 °C 12,9 km/h (3 Bft)
21.01.2024 08:53 22,3 °C -3,7 °C 42 % 77 % 1026,6 hPa 0,0 l/m² 11,0 km/h (2 Bft) O 101 ° 0 min 40 W/m² -7,1 °C -8,4 °C 14,5 km/h (3 Bft)
21.01.2024 08:54 22,4 °C -3,7 °C 42 % 77 % 1026,7 hPa 0,0 l/m² 9,3 km/h (2 Bft) O-SO 103 ° 0 min 40 W/m² -7,1 °C -6,9 °C 12,9 km/h (3 Bft)
21.01.2024 08:56 22,3 °C -3,8 °C 42 % 77 % 1026,7 hPa 0,0 l/m² 8,0 km/h (2 Bft) O 94 ° 0 min 44 W/m² -7,2 °C -5,6 °C 11,3 km/h (2 Bft)
21.01.2024 08:58 22,3 °C -3,8 °C 42 % 77 % 1026,7 hPa 0,0 l/m² 8,4 km/h (2 Bft) O-SO 102 ° 0 min 46 W/m² -7,2 °C -6,1 °C 12,9 km/h (3 Bft)
21.01.2024 09:00 22,4 °C -3,8 °C 42 % 77 % 1026,6 hPa 0,0 l/m² 10,3 km/h (2 Bft) O 95 ° 0 min 49 W/m² -7,2 °C -7,9 °C 12,9 km/h (3 Bft)
21.01.2024 09:01 22,4 °C -3,7 °C 42 % 77 % 1026,5 hPa 0,0 l/m² 11,2 km/h (2 Bft) O 92 ° 0 min 49 W/m² -7,1 °C -8,6 °C 12,9 km/h (3 Bft)
21.01.2024 09:02 22,4 °C -3,8 °C 42 % 77 % 1026,5 hPa 0,0 l/m² 11,2 km/h (2 Bft) O 94 ° 0 min 51 W/m² -7,2 °C -8,7 °C 12,9 km/h (3 Bft)
21.01.2024 09:04 22,4 °C -3,8 °C 42 % 77 % 1026,5 hPa 0,0 l/m² 11,7 km/h (2 Bft) O 92 ° 2 min 53 W/m² -7,2 °C -9,1 °C 14,5 km/h (3 Bft)
21.01.2024 09:06 22,4 °C -3,7 °C 42 % 77 % 1026,4 hPa 0,0 l/m² 11,7 km/h (2 Bft) O 94 ° 2 min 54 W/m² -7,1 °C -9,0 °C 14,5 km/h (3 Bft)
21.01.2024 09:08 22,4 °C -3,7 °C 42 % 77 % 1026,3 hPa 0,0 l/m² 12,6 km/h (3 Bft) O 95 ° 2 min 54 W/m² -7,1 °C -9,7 °C 16,1 km/h (3 Bft)
21.01.2024 09:10 22,4 °C -3,7 °C 41 % 77 % 1026,3 hPa 0,0 l/m² 12,2 km/h (2 Bft) O-SO 104 ° 2 min 58 W/m² -7,1 °C -9,4 °C 16,1 km/h (3 Bft)
21.01.2024 09:11 22,4 °C -3,7 °C 41 % 77 % 1026,3 hPa 0,0 l/m² 11,4 km/h (2 Bft) O-SO 102 ° 1 min 60 W/m² -7,1 °C -8,8 °C 14,5 km/h (3 Bft)
21.01.2024 09:12 22,4 °C -3,7 °C 41 % 77 % 1026,3 hPa 0,0 l/m² 13,0 km/h (3 Bft) O 94 ° 1 min 62 W/m² -7,1 °C -10,0 °C 16,1 km/h (3 Bft)
21.01.2024 09:14 22,4 °C -3,7 °C 41 % 77 % 1026,2 hPa 0,0 l/m² 12,4 km/h (2 Bft) O 101 ° 2 min 67 W/m² -7,1 °C -9,6 °C 17,7 km/h (3 Bft)
21.01.2024 09:16 22,4 °C -3,6 °C 41 % 77 % 1026,3 hPa 0,0 l/m² 14,0 km/h (3 Bft) O 101 ° 2 min 74 W/m² -7,0 °C -10,7 °C 16,1 km/h (3 Bft)
21.01.2024 09:18 22,4 °C -3,6 °C 41 % 77 % 1026,3 hPa 0,0 l/m² 13,3 km/h (3 Bft) O 97 ° 2 min 77 W/m² -7,0 °C -10,1 °C 16,1 km/h (3 Bft)
21.01.2024 09:20 22,4 °C -3,5 °C 41 % 77 % 1026,2 hPa 0,0 l/m² 14,2 km/h (3 Bft) O 96 ° 2 min 79 W/m² -6,9 °C -10,7 °C 16,1 km/h (3 Bft)
21.01.2024 09:21 22,4 °C -3,5 °C 41 % 77 % 1026,3 hPa 0,0 l/m² 12,0 km/h (2 Bft) O-SO 104 ° 1 min 81 W/m² -6,9 °C -9,0 °C 14,5 km/h (3 Bft)
21.01.2024 09:23 22,4 °C -3,4 °C 41 % 77 % 1026,2 hPa 0,0 l/m² 13,6 km/h (3 Bft) O 92 ° 2 min 81 W/m² -6,8 °C -10,1 °C 17,7 km/h (3 Bft)
21.01.2024 09:24 22,4 °C -3,4 °C 41 % 76 % 1026,2 hPa 0,0 l/m² 13,1 km/h (3 Bft) O-SO 111 ° 1 min 83 W/m² -7,0 °C -9,8 °C 16,1 km/h (3 Bft)
21.01.2024 09:26 22,4 °C -3,4 °C 41 % 76 % 1026,3 hPa 0,0 l/m² 12,8 km/h (3 Bft) O-SO 109 ° 2 min 84 W/m² -7,0 °C -9,5 °C 19,3 km/h (3 Bft)
21.01.2024 09:27 22,4 °C -3,3 °C 41 % 76 % 1026,2 hPa 0,0 l/m² 12,8 km/h (3 Bft) SO 128 ° 1 min 93 W/m² -6,9 °C -9,4 °C 16,1 km/h (3 Bft)
21.01.2024 09:29 22,4 °C -3,2 °C 41 % 76 % 1026,2 hPa 0,0 l/m² 13,8 km/h (3 Bft) O 101 ° 2 min 104 W/m² -6,8 °C -10,0 °C 17,7 km/h (3 Bft)
21.01.2024 09:30 22,4 °C -3,2 °C 41 % 76 % 1026,2 hPa 0,0 l/m² 13,9 km/h (3 Bft) O-SO 105 ° 1 min 102 W/m² -6,8 °C -10,1 °C 17,7 km/h (3 Bft)
21.01.2024 09:32 22,4 °C -3,1 °C 41 % 76 % 1026,2 hPa 0,0 l/m² 13,6 km/h (3 Bft) O-SO 105 ° 2 min 104 W/m² -6,7 °C -9,8 °C 16,1 km/h (3 Bft)
21.01.2024 09:33 22,4 °C -3,1 °C 41 % 76 % 1026,2 hPa 0,0 l/m² 12,0 km/h (2 Bft) O 100 ° 1 min 105 W/m² -6,7 °C -8,6 °C 14,5 km/h (3 Bft)
21.01.2024 09:35 22,4 °C -2,9 °C 41 % 75 % 1026,3 hPa 0,0 l/m² 12,5 km/h (2 Bft) O 97 ° 2 min 100 W/m² -6,7 °C -8,7 °C 16,1 km/h (3 Bft)
21.01.2024 09:37 22,4 °C -2,9 °C 41 % 76 % 1026,2 hPa 0,0 l/m² 12,2 km/h (2 Bft) O-SO 103 ° 2 min 83 W/m² -6,5 °C -8,5 °C 14,5 km/h (3 Bft)
21.01.2024 09:39 22,4 °C -2,9 °C 41 % 76 % 1026,3 hPa 0,0 l/m² 12,0 km/h (2 Bft) O-SO 110 ° 2 min 77 W/m² -6,5 °C -8,3 °C 14,5 km/h (3 Bft)
21.01.2024 09:40 22,4 °C -2,8 °C 41 % 76 % 1026,4 hPa 0,0 l/m² 11,9 km/h (2 Bft) O 92 ° 1 min 76 W/m² -6,4 °C -8,1 °C 14,5 km/h (3 Bft)
21.01.2024 09:42 22,4 °C -2,8 °C 41 % 76 % 1026,4 hPa 0,0 l/m² 13,4 km/h (3 Bft) O 98 ° 2 min 74 W/m² -6,4 °C -9,3 °C 17,7 km/h (3 Bft)
21.01.2024 09:43 22,4 °C -2,8 °C 41 % 76 % 1026,4 hPa 0,0 l/m² 12,3 km/h (2 Bft) O 88 ° 1 min 74 W/m² -6,4 °C -8,5 °C 16,1 km/h (3 Bft)
21.01.2024 09:45 22,4 °C -2,8 °C 41 % 76 % 1026,4 hPa 0,0 l/m² 14,4 km/h (3 Bft) O 88 ° 2 min 76 W/m² -6,4 °C -10,0 °C 17,7 km/h (3 Bft)
21.01.2024 09:47 22,4 °C -2,7 °C 41 % 76 % 1026,3 hPa 0,0 l/m² 15,4 km/h (3 Bft) O 92 ° 2 min 77 W/m² -6,3 °C -10,5 °C 17,7 km/h (3 Bft)
21.01.2024 09:49 22,4 °C -2,7 °C 41 % 76 % 1026,2 hPa 0,0 l/m² 14,7 km/h (3 Bft) O 90 ° 2 min 79 W/m² -6,3 °C -10,1 °C 17,7 km/h (3 Bft)
21.01.2024 09:50 22,4 °C -2,7 °C 41 % 76 % 1026,3 hPa 0,0 l/m² 15,8 km/h (3 Bft) O-SO 103 ° 1 min 81 W/m² -6,3 °C -10,8 °C 17,7 km/h (3 Bft)
21.01.2024 09:52 22,4 °C -2,6 °C 41 % 75 % 1026,2 hPa 0,0 l/m² 16,7 km/h (3 Bft) O 83 ° 2 min 81 W/m² -6,4 °C -11,2 °C 20,9 km/h (4 Bft)
21.01.2024 09:53 22,4 °C -2,5 °C 41 % 75 % 1026,3 hPa 0,0 l/m² 18,9 km/h (3 Bft) O 95 ° 1 min 83 W/m² -6,3 °C -12,3 °C 22,5 km/h (4 Bft)
21.01.2024 09:55 22,4 °C -2,4 °C 41 % 74 % 1026,1 hPa 0,0 l/m² 17,8 km/h (3 Bft) O 84 ° 2 min 84 W/m² -6,4 °C -11,6 °C 20,9 km/h (4 Bft)
21.01.2024 09:57 22,4 °C -2,3 °C 41 % 74 % 1026,0 hPa 0,0 l/m² 19,7 km/h (3 Bft) O-SO 103 ° 2 min 86 W/m² -6,3 °C -12,5 °C 27,4 km/h (5 Bft)
21.01.2024 09:59 22,4 °C -2,2 °C 41 % 73 % 1026,0 hPa 0,0 l/m² 18,4 km/h (3 Bft) O-SO 106 ° 2 min 86 W/m² -6,4 °C -11,6 °C 24,1 km/h (4 Bft)
21.01.2024 10:00 22,4 °C -2,2 °C 41 % 73 % 1026,0 hPa 0,0 l/m² 16,9 km/h (3 Bft) O 80 ° 1 min 86 W/m² -6,4 °C -10,8 °C 19,3 km/h (3 Bft)
21.01.2024 10:02 22,4 °C -2,2 °C 41 % 73 % 1026,1 hPa 0,0 l/m² 13,5 km/h (3 Bft) O 93 ° 2 min 86 W/m² -6,4 °C -8,6 °C 17,7 km/h (3 Bft)
21.01.2024 10:03 22,4 °C -2,2 °C 41 % 73 % 1026,1 hPa 0,0 l/m² 17,2 km/h (3 Bft) O-SO 103 ° 1 min 86 W/m² -6,4 °C -11,0 °C 22,5 km/h (4 Bft)
21.01.2024 10:05 22,3 °C -2,1 °C 41 % 72 % 1026,1 hPa 0,0 l/m² 13,3 km/h (3 Bft) O 85 ° 2 min 90 W/m² -6,5 °C -8,4 °C 19,3 km/h (3 Bft)
21.01.2024 10:07 22,4 °C -2,0 °C 41 % 72 % 1026,3 hPa 0,0 l/m² 13,6 km/h (3 Bft) O 83 ° 2 min 93 W/m² -6,4 °C -8,5 °C 16,1 km/h (3 Bft)
21.01.2024 10:09 22,4 °C -2,1 °C 41 % 73 % 1026,2 hPa 0,0 l/m² 11,4 km/h (2 Bft) O 90 ° 2 min 98 W/m² -6,3 °C -6,9 °C 16,1 km/h (3 Bft)
21.01.2024 10:11 22,4 °C -2,1 °C 39 % 72 % 1026,2 hPa 0,0 l/m² 12,3 km/h (2 Bft) O-NO 78 ° 2 min 100 W/m² -6,5 °C -7,6 °C 16,1 km/h (3 Bft)
21.01.2024 10:12 22,3 °C -2,0 °C 35 % 72 % 1026,1 hPa 0,0 l/m² 11,1 km/h (2 Bft) O-NO 68 ° 1 min 102 W/m² -6,4 °C -6,6 °C 14,5 km/h (3 Bft)
21.01.2024 10:13 22,3 °C -2,0 °C 35 % 71 % 1026,1 hPa 0,0 l/m² 11,4 km/h (2 Bft) O-NO 72 ° 1 min 102 W/m² -6,5 °C -6,8 °C 16,1 km/h (3 Bft)
21.01.2024 10:15 22,3 °C -1,9 °C 35 % 71 % 1026,1 hPa 0,0 l/m² 8,5 km/h (2 Bft) O 82 ° 2 min 105 W/m² -6,4 °C -4,1 °C 16,1 km/h (3 Bft)
21.01.2024 10:17 22,2 °C -1,9 °C 36 % 71 % 1026,1 hPa 0,0 l/m² 12,2 km/h (2 Bft) O-NO 78 ° 2 min 105 W/m² -6,4 °C -7,3 °C 17,7 km/h (3 Bft)
21.01.2024 10:19 22,2 °C -1,8 °C 36 % 72 % 1026,0 hPa 0,0 l/m² 13,7 km/h (3 Bft) O 101 ° 2 min 107 W/m² -6,2 °C -8,3 °C 16,1 km/h (3 Bft)
21.01.2024 10:20 22,2 °C -1,8 °C 37 % 71 % 1026,0 hPa 0,0 l/m² 13,1 km/h (3 Bft) O-SO 103 ° 1 min 109 W/m² -6,3 °C -7,9 °C 16,1 km/h (3 Bft)
21.01.2024 10:22 22,2 °C -1,9 °C 37 % 72 % 1025,9 hPa 0,0 l/m² 13,6 km/h (3 Bft) O 100 ° 2 min 111 W/m² -6,3 °C -8,4 °C 17,7 km/h (3 Bft)
21.01.2024 10:23 22,1 °C -1,9 °C 37 % 72 % 1025,9 hPa 0,0 l/m² 13,7 km/h (3 Bft) O-SO 102 ° 1 min 113 W/m² -6,3 °C -8,4 °C 16,1 km/h (3 Bft)
21.01.2024 10:25 22,1 °C -1,8 °C 37 % 71 % 1025,8 hPa 0,0 l/m² 13,5 km/h (3 Bft) O-SO 108 ° 2 min 114 W/m² -6,3 °C -8,2 °C 17,7 km/h (3 Bft)
21.01.2024 10:27 22,1 °C -1,8 °C 38 % 71 % 1025,9 hPa 0,0 l/m² 13,2 km/h (3 Bft) O-SO 114 ° 2 min 118 W/m² -6,3 °C -8,0 °C 14,5 km/h (3 Bft)
21.01.2024 10:29 22,1 °C -1,8 °C 38 % 72 % 1025,9 hPa 0,0 l/m² 12,1 km/h (2 Bft) O-SO 119 ° 2 min 120 W/m² -6,2 °C -7,2 °C 16,1 km/h (3 Bft)
21.01.2024 10:31 22,1 °C -1,8 °C 38 % 72 % 1025,8 hPa 0,0 l/m² 12,1 km/h (2 Bft) O-SO 110 ° 2 min 121 W/m² -6,2 °C -7,2 °C 14,5 km/h (3 Bft)
21.01.2024 10:32 22,1 °C -1,8 °C 38 % 72 % 1025,8 hPa 0,0 l/m² 12,4 km/h (2 Bft) O-SO 112 ° 1 min 123 W/m² -6,2 °C -7,4 °C 14,5 km/h (3 Bft)
21.01.2024 10:33 22,1 °C -1,8 °C 38 % 72 % 1025,8 hPa 0,0 l/m² 11,1 km/h (2 Bft) O-SO 109 ° 1 min 125 W/m² -6,2 °C -6,4 °C 12,9 km/h (3 Bft)
21.01.2024 10:34 22,1 °C -1,8 °C 38 % 72 % 1025,7 hPa 0,0 l/m² 13,0 km/h (3 Bft) O-SO 109 ° 1 min 125 W/m² -6,2 °C -7,8 °C 14,5 km/h (3 Bft)
21.01.2024 10:36 22,1 °C -1,7 °C 38 % 72 % 1025,7 hPa 0,0 l/m² 10,9 km/h (2 Bft) O-SO 109 ° 2 min 125 W/m² -6,1 °C -6,1 °C 14,5 km/h (3 Bft)
21.01.2024 10:38 22,1 °C -1,7 °C 38 % 71 % 1025,6 hPa 0,0 l/m² 10,8 km/h (2 Bft) O-SO 107 ° 2 min 123 W/m² -6,2 °C -6,0 °C 16,1 km/h (3 Bft)
21.01.2024 10:40 22,1 °C -1,6 °C 38 % 71 % 1025,7 hPa 0,0 l/m² 7,9 km/h (2 Bft) O-SO 114 ° 2 min 121 W/m² -6,2 °C -3,2 °C 11,3 km/h (2 Bft)
21.01.2024 10:41 22,1 °C -1,7 °C 38 % 72 % 1025,8 hPa 0,0 l/m² 6,7 km/h (2 Bft) O-SO 114 ° 1 min 121 W/m² -6,1 °C -2,0 °C 9,7 km/h (2 Bft)
21.01.2024 10:43 22,1 °C -1,7 °C 38 % 71 % 1025,7 hPa 0,0 l/m² 9,0 km/h (2 Bft) O-SO 115 ° 2 min 123 W/m² -6,2 °C -4,4 °C 11,3 km/h (2 Bft)
21.01.2024 10:44 22,1 °C -1,7 °C 38 % 72 % 1025,7 hPa 0,0 l/m² 10,2 km/h (2 Bft) O-SO 107 ° 1 min 127 W/m² -6,1 °C -5,5 °C 12,9 km/h (3 Bft)
21.01.2024 10:46 22,1 °C -1,6 °C 38 % 72 % 1025,7 hPa 0,0 l/m² 7,5 km/h (2 Bft) O-SO 114 ° 2 min 130 W/m² -6,0 °C -2,8 °C 11,3 km/h (2 Bft)
21.01.2024 10:48 22,1 °C -1,6 °C 38 % 72 % 1025,8 hPa 0,0 l/m² 5,0 km/h (1 Bft) O-SO 114 ° 2 min 132 W/m² -6,0 °C -1,6 °C 9,7 km/h (2 Bft)
21.01.2024 10:50 22,1 °C -1,6 °C 38 % 72 % 1025,9 hPa 0,0 l/m² 4,2 km/h (1 Bft) O-SO 114 ° 2 min 134 W/m² -6,0 °C -1,6 °C 6,4 km/h (2 Bft)
21.01.2024 10:51 22,1 °C -1,6 °C 38 % 72 % 1025,9 hPa 0,0 l/m² 5,6 km/h (2 Bft) O-SO 119 ° 1 min 134 W/m² -6,0 °C -1,6 °C 11,3 km/h (2 Bft)
21.01.2024 10:52 22,1 °C -1,6 °C 38 % 72 % 1025,9 hPa 0,0 l/m² 5,6 km/h (2 Bft) O-SO 117 ° 1 min 135 W/m² -6,0 °C -1,6 °C 6,4 km/h (2 Bft)
21.01.2024 10:54 22,1 °C -1,4 °C 39 % 71 % 1025,9 hPa 0,0 l/m² 9,7 km/h (2 Bft) SO 146 ° 2 min 139 W/m² -6,0 °C -4,7 °C 16,1 km/h (3 Bft)
21.01.2024 10:56 22,1 °C -0,9 °C 39 % 70 % 1026,0 hPa 0,0 l/m² 9,1 km/h (2 Bft) S-SO 150 ° 2 min 146 W/m² -5,7 °C -3,6 °C 12,9 km/h (3 Bft)
21.01.2024 10:58 22,1 °C -0,7 °C 39 % 69 % 1026,1 hPa 0,0 l/m² 10,2 km/h (2 Bft) S-SO 150 ° 2 min 151 W/m² -5,7 °C -4,4 °C 16,1 km/h (3 Bft)
21.01.2024 11:00 22,1 °C -0,3 °C 39 % 67 % 1026,1 hPa 0,0 l/m² 10,5 km/h (2 Bft) S-SO 150 ° 2 min 156 W/m² -5,7 °C -4,2 °C 16,1 km/h (3 Bft)
21.01.2024 11:01 22,1 °C -0,2 °C 39 % 67 % 1026,0 hPa 0,0 l/m² 11,5 km/h (2 Bft) S-SO 161 ° 1 min 160 W/m² -5,6 °C -4,9 °C 17,7 km/h (3 Bft)
21.01.2024 11:03 22,1 °C 0,0 °C 39 % 66 % 1026,0 hPa 0,0 l/m² 12,0 km/h (2 Bft) S-SO 150 ° 2 min 162 W/m² -5,6 °C -5,0 °C 16,1 km/h (3 Bft)
21.01.2024 11:04 22,1 °C 0,1 °C 39 % 66 % 1025,9 hPa 0,0 l/m² 12,0 km/h (2 Bft) S-SO 153 ° 1 min 162 W/m² -5,5 °C -4,9 °C 14,5 km/h (3 Bft)
21.01.2024 11:06 22,1 °C 0,2 °C 39 % 65 % 1025,9 hPa 0,0 l/m² 12,6 km/h (3 Bft) SO 144 ° 2 min 162 W/m² -5,6 °C -5,2 °C 17,7 km/h (3 Bft)
21.01.2024 11:08 22,1 °C 0,2 °C 39 % 66 % 1025,9 hPa 0,0 l/m² 9,9 km/h (2 Bft) S-SO 153 ° 2 min 158 W/m² -5,4 °C -3,1 °C 14,5 km/h (3 Bft)
21.01.2024 11:10 22,1 °C 0,2 °C 39 % 65 % 1025,9 hPa 0,0 l/m² 13,1 km/h (3 Bft) SO 146 ° 2 min 156 W/m² -5,6 °C -5,5 °C 17,7 km/h (3 Bft)
21.01.2024 11:11 22,1 °C 0,3 °C 38 % 65 % 1025,9 hPa 0,0 l/m² 11,9 km/h (2 Bft) S-SO 149 ° 1 min 158 W/m² -5,5 °C -4,6 °C 16,1 km/h (3 Bft)
21.01.2024 11:13 22,1 °C 0,3 °C 38 % 65 % 1025,8 hPa 0,0 l/m² 16,0 km/h (3 Bft) S-SO 153 ° 2 min 174 W/m² -5,5 °C -7,2 °C 19,3 km/h (3 Bft)
21.01.2024 11:14 22,1 °C 0,3 °C 38 % 64 % 1025,7 hPa 0,0 l/m² 15,0 km/h (3 Bft) SO 143 ° 1 min 179 W/m² -5,7 °C -6,6 °C 17,7 km/h (3 Bft)
21.01.2024 11:16 22,1 °C 0,3 °C 38 % 64 % 1025,7 hPa 0,0 l/m² 14,0 km/h (3 Bft) S-SO 147 ° 2 min 206 W/m² -5,7 °C -6,0 °C 19,3 km/h (3 Bft)
21.01.2024 11:18 22,1 °C 0,4 °C 38 % 64 % 1025,6 hPa 0,0 l/m² 13,9 km/h (3 Bft) S-SO 153 ° 2 min 260 W/m² -5,6 °C -5,8 °C 17,7 km/h (3 Bft)
21.01.2024 11:20 22,1 °C 0,6 °C 38 % 63 % 1025,6 hPa 0,0 l/m² 15,2 km/h (3 Bft) S-SO 150 ° 2 min 260 W/m² -5,6 °C -6,4 °C 20,9 km/h (4 Bft)
21.01.2024 11:21 22,1 °C 0,7 °C 38 % 63 % 1025,6 hPa 0,0 l/m² 15,3 km/h (3 Bft) S-SO 149 ° 1 min 243 W/m² -5,5 °C -6,3 °C 17,7 km/h (3 Bft)
21.01.2024 11:23 22,1 °C 0,7 °C 38 % 63 % 1025,6 hPa 0,0 l/m² 13,3 km/h (3 Bft) SO 142 ° 2 min 258 W/m² -5,5 °C -5,1 °C 16,1 km/h (3 Bft)
21.01.2024 11:24 22,1 °C 0,7 °C 38 % 63 % 1025,5 hPa 0,0 l/m² 12,3 km/h (2 Bft) S-SO 150 ° 1 min 225 W/m² -5,5 °C -4,4 °C 16,1 km/h (3 Bft)
21.01.2024 11:26 22,1 °C 0,8 °C 38 % 63 % 1025,5 hPa 0,0 l/m² 15,5 km/h (3 Bft) S-SO 149 ° 2 min 239 W/m² -5,4 °C -6,3 °C 22,5 km/h (4 Bft)
21.01.2024 11:28 22,1 °C 0,8 °C 38 % 63 % 1025,6 hPa 0,0 l/m² 11,9 km/h (2 Bft) S-SO 165 ° 2 min 225 W/m² -5,4 °C -4,0 °C 17,7 km/h (3 Bft)
21.01.2024 11:30 22,1 °C 0,8 °C 38 % 63 % 1025,6 hPa 0,0 l/m² 15,4 km/h (3 Bft) S-SO 151 ° 2 min 272 W/m² -5,4 °C -6,2 °C 19,3 km/h (3 Bft)
21.01.2024 11:31 22,1 °C 0,9 °C 38 % 63 % 1025,6 hPa 0,0 l/m² 14,7 km/h (3 Bft) S 175 ° 1 min 272 W/m² -5,3 °C -5,7 °C 17,7 km/h (3 Bft)
21.01.2024 11:33 22,1 °C 1,0 °C 38 % 63 % 1025,6 hPa 0,0 l/m² 14,6 km/h (3 Bft) S-SO 163 ° 2 min 258 W/m² -5,2 °C -5,5 °C 20,9 km/h (4 Bft)
21.01.2024 11:34 22,1 °C 1,1 °C 38 % 62 % 1025,6 hPa 0,0 l/m² 17,7 km/h (3 Bft) S-SO 163 ° 1 min 279 W/m² -5,3 °C -7,1 °C 25,7 km/h (4 Bft)
21.01.2024 11:36 22,1 °C 1,2 °C 38 % 61 % 1025,5 hPa 0,0 l/m² 17,4 km/h (3 Bft) S-SO 160 ° 2 min 302 W/m² -5,5 °C -6,8 °C 22,5 km/h (4 Bft)
21.01.2024 11:38 22,1 °C 1,3 °C 38 % 61 % 1025,5 hPa 0,0 l/m² 19,3 km/h (3 Bft) S 170 ° 2 min 308 W/m² -5,4 °C -7,6 °C 30,6 km/h (5 Bft)
21.01.2024 11:40 22,1 °C 1,5 °C 38 % 59 % 1025,5 hPa 0,0 l/m² 20,9 km/h (4 Bft) S-SO 166 ° 2 min 292 W/m² -5,6 °C -8,1 °C 29,0 km/h (5 Bft)
21.01.2024 11:41 22,1 °C 1,6 °C 38 % 59 % 1025,3 hPa 0,0 l/m² 19,0 km/h (3 Bft) S 169 ° 1 min 294 W/m² -5,5 °C -7,1 °C 27,4 km/h (5 Bft)
21.01.2024 11:43 22,1 °C 1,6 °C 38 % 59 % 1025,3 hPa 0,0 l/m² 19,1 km/h (3 Bft) S-SO 153 ° 2 min 311 W/m² -5,5 °C -7,2 °C 27,4 km/h (5 Bft)
21.01.2024 11:44 22,1 °C 1,7 °C 38 % 60 % 1025,4 hPa 0,0 l/m² 19,1 km/h (3 Bft) S-SO 153 ° 1 min 297 W/m² -5,2 °C -7,0 °C 25,7 km/h (4 Bft)
21.01.2024 11:46 22,1 °C 1,6 °C 39 % 59 % 1025,3 hPa 0,0 l/m² 18,5 km/h (3 Bft) S 177 ° 2 min 304 W/m² -5,5 °C -6,9 °C 25,7 km/h (4 Bft)
21.01.2024 11:48 22,1 °C 1,7 °C 39 % 59 % 1025,1 hPa 0,0 l/m² 20,2 km/h (4 Bft) S-SO 150 ° 2 min 332 W/m² -5,4 °C -7,5 °C 27,4 km/h (5 Bft)
21.01.2024 11:50 22,1 °C 1,9 °C 39 % 58 % 1025,1 hPa 0,0 l/m² 21,3 km/h (4 Bft) S-SO 153 ° 2 min 269 W/m² -5,5 °C -7,7 °C 27,4 km/h (5 Bft)
21.01.2024 11:51 22,2 °C 1,9 °C 39 % 60 % 1025,1 hPa 0,0 l/m² 18,6 km/h (3 Bft) S-SO 148 ° 1 min 302 W/m² -5,0 °C -6,5 °C 24,1 km/h (4 Bft)
21.01.2024 11:53 22,2 °C 1,9 °C 39 % 59 % 1025,1 hPa 0,0 l/m² 18,3 km/h (3 Bft) S 173 ° 2 min 274 W/m² -5,2 °C -6,4 °C 29,0 km/h (5 Bft)
21.01.2024 11:54 22,2 °C 1,9 °C 39 % 58 % 1025,0 hPa 0,0 l/m² 21,1 km/h (4 Bft) S-SO 155 ° 1 min 264 W/m² -5,5 °C -7,6 °C 27,4 km/h (5 Bft)
21.01.2024 11:56 22,2 °C 1,9 °C 39 % 59 % 1025,1 hPa 0,0 l/m² 19,9 km/h (4 Bft) S 181 ° 2 min 213 W/m² -5,2 °C -7,1 °C 32,2 km/h (5 Bft)
21.01.2024 11:58 22,2 °C 1,9 °C 39 % 58 % 1025,1 hPa 0,0 l/m² 22,2 km/h (4 Bft) S-SO 165 ° 2 min 206 W/m² -5,5 °C -8,1 °C 33,8 km/h (5 Bft)
21.01.2024 12:00 22,2 °C 1,9 °C 39 % 58 % 1025,0 hPa 0,0 l/m² 22,9 km/h (4 Bft) S-SO 159 ° 2 min 179 W/m² -5,5 °C -8,4 °C 35,4 km/h (5 Bft)
21.01.2024 12:01 22,2 °C 1,9 °C 39 % 58 % 1025,0 hPa 0,0 l/m² 20,3 km/h (4 Bft) S 174 ° 1 min 174 W/m² -5,5 °C -7,3 °C 25,7 km/h (4 Bft)
21.01.2024 12:03 22,2 °C 1,8 °C 39 % 59 % 1025,1 hPa 0,0 l/m² 18,4 km/h (3 Bft) S 169 ° 2 min 169 W/m² -5,3 °C -6,6 °C 27,4 km/h (5 Bft)
21.01.2024 12:04 22,2 °C 1,8 °C 39 % 59 % 1025,1 hPa 0,0 l/m² 21,3 km/h (4 Bft) S-SO 165 ° 1 min 167 W/m² -5,3 °C -7,9 °C 30,6 km/h (5 Bft)
21.01.2024 12:06 22,2 °C 1,8 °C 39 % 60 % 1025,2 hPa 0,0 l/m² 18,7 km/h (3 Bft) S 176 ° 2 min 163 W/m² -5,1 °C -6,7 °C 24,1 km/h (4 Bft)
21.01.2024 12:08 22,2 °C 1,8 °C 39 % 59 % 1025,2 hPa 0,0 l/m² 18,7 km/h (3 Bft) S 190 ° 2 min 163 W/m² -5,3 °C -6,7 °C 25,7 km/h (4 Bft)
21.01.2024 12:10 22,1 °C 1,8 °C 39 % 59 % 1025,2 hPa 0,0 l/m² 20,5 km/h (4 Bft) S 179 ° 2 min 160 W/m² -5,3 °C -7,5 °C 27,4 km/h (5 Bft)
21.01.2024 12:11 22,2 °C 1,8 °C 39 % 61 % 1025,2 hPa 0,0 l/m² 16,2 km/h (3 Bft) S 177 ° 1 min 155 W/m² -4,9 °C -5,5 °C 22,5 km/h (4 Bft)
21.01.2024 12:13 22,2 °C 1,8 °C 39 % 60 % 1025,3 hPa 0,0 l/m² 18,6 km/h (3 Bft) S 186 ° 2 min 151 W/m² -5,1 °C -6,7 °C 30,6 km/h (5 Bft)
21.01.2024 12:15 22,2 °C 1,8 °C 39 % 61 % 1025,3 hPa 0,0 l/m² 18,0 km/h (3 Bft) S-SO 166 ° 2 min 148 W/m² -4,9 °C -6,4 °C 22,5 km/h (4 Bft)
21.01.2024 12:17 22,1 °C 1,7 °C 39 % 60 % 1025,3 hPa 0,0 l/m² 17,9 km/h (3 Bft) S-SO 166 ° 2 min 144 W/m² -5,2 °C -6,5 °C 25,7 km/h (4 Bft)
21.01.2024 12:19 22,2 °C 1,7 °C 39 % 61 % 1025,1 hPa 0,0 l/m² 17,8 km/h (3 Bft) S 174 ° 2 min 142 W/m² -5,0 °C -6,4 °C 27,4 km/h (5 Bft)
21.01.2024 12:21 22,2 °C 1,7 °C 40 % 61 % 1025,0 hPa 0,0 l/m² 18,5 km/h (3 Bft) S-SO 159 ° 2 min 142 W/m² -5,0 °C -6,7 °C 24,1 km/h (4 Bft)
21.01.2024 12:22 22,2 °C 1,7 °C 41 % 60 % 1024,9 hPa 0,0 l/m² 18,3 km/h (3 Bft) S-SO 166 ° 1 min 142 W/m² -5,2 °C -6,7 °C 24,1 km/h (4 Bft)
21.01.2024 12:23 22,2 °C 1,7 °C 41 % 61 % 1024,9 hPa 0,0 l/m² 16,7 km/h (3 Bft) S-SO 168 ° 1 min 142 W/m² -5,0 °C -5,9 °C 22,5 km/h (4 Bft)
21.01.2024 12:25 22,2 °C 1,7 °C 41 % 60 % 1025,0 hPa 0,0 l/m² 18,1 km/h (3 Bft) S 188 ° 2 min 144 W/m² -5,2 °C -6,6 °C 29,0 km/h (5 Bft)
21.01.2024 12:27 22,2 °C 1,7 °C 42 % 61 % 1025,1 hPa 0,0 l/m² 18,4 km/h (3 Bft) S-SO 163 ° 2 min 144 W/m² -5,0 °C -6,7 °C 24,1 km/h (4 Bft)
21.01.2024 12:29 22,2 °C 1,7 °C 42 % 61 % 1025,1 hPa 0,0 l/m² 20,1 km/h (4 Bft) S 182 ° 2 min 141 W/m² -5,0 °C -7,5 °C 24,1 km/h (4 Bft)
21.01.2024 12:31 22,3 °C 1,7 °C 42 % 61 % 1025,1 hPa 0,0 l/m² 19,7 km/h (3 Bft) S 178 ° 2 min 135 W/m² -5,0 °C -7,3 °C 33,8 km/h (5 Bft)
21.01.2024 12:32 22,3 °C 1,7 °C 42 % 60 % 1025,1 hPa 0,0 l/m² 18,8 km/h (3 Bft) S 174 ° 1 min 134 W/m² -5,2 °C -6,9 °C 22,5 km/h (4 Bft)
21.01.2024 12:33 22,3 °C 1,8 °C 42 % 60 % 1025,1 hPa 0,0 l/m² 19,1 km/h (3 Bft) S 190 ° 1 min 132 W/m² -5,1 °C -6,9 °C 25,7 km/h (4 Bft)
21.01.2024 12:35 22,3 °C 1,8 °C 42 % 61 % 1025,1 hPa 0,0 l/m² 18,6 km/h (3 Bft) S-SO 167 ° 2 min 128 W/m² -4,9 °C -6,7 °C 25,7 km/h (4 Bft)
21.01.2024 12:37 22,3 °C 1,7 °C 42 % 61 % 1025,1 hPa 0,0 l/m² 18,6 km/h (3 Bft) S 185 ° 2 min 127 W/m² -5,0 °C -6,8 °C 25,7 km/h (4 Bft)
21.01.2024 12:39 22,3 °C 1,7 °C 42 % 61 % 1025,0 hPa 0,0 l/m² 19,3 km/h (3 Bft) S-SO 168 ° 2 min 130 W/m² -5,0 °C -7,1 °C 29,0 km/h (5 Bft)
21.01.2024 12:41 22,3 °C 1,7 °C 42 % 62 % 1024,9 hPa 0,0 l/m² 19,3 km/h (3 Bft) S 172 ° 2 min 137 W/m² -4,8 °C -7,1 °C 30,6 km/h (5 Bft)
21.01.2024 12:42 22,3 °C 1,7 °C 42 % 62 % 1024,9 hPa 0,0 l/m² 18,1 km/h (3 Bft) S 169 ° 1 min 139 W/m² -4,8 °C -6,6 °C 24,1 km/h (4 Bft)
21.01.2024 12:43 22,3 °C 1,7 °C 42 % 62 % 1024,9 hPa 0,0 l/m² 17,9 km/h (3 Bft) S-SO 167 ° 1 min 141 W/m² -4,8 °C -6,5 °C 24,1 km/h (4 Bft)
21.01.2024 12:45 22,3 °C 1,6 °C 42 % 62 % 1025,0 hPa 0,0 l/m² 17,2 km/h (3 Bft) S-SO 157 ° 2 min 141 W/m² -4,9 °C -6,2 °C 22,5 km/h (4 Bft)
21.01.2024 12:48 22,3 °C 1,7 °C 42 % 61 % 1025,0 hPa 0,0 l/m² 19,6 km/h (3 Bft) S-SO 163 ° 3 min 149 W/m² -5,0 °C -7,3 °C 27,4 km/h (5 Bft)
21.01.2024 12:50 22,3 °C 1,8 °C 38 % 61 % 1024,9 hPa 0,0 l/m² 19,5 km/h (3 Bft) S 184 ° 2 min 158 W/m² -4,9 °C -7,1 °C 29,0 km/h (5 Bft)
21.01.2024 12:52 22,2 °C 1,8 °C 37 % 61 % 1024,7 hPa 0,0 l/m² 18,8 km/h (3 Bft) S-SO 159 ° 2 min 171 W/m² -4,9 °C -6,8 °C 25,7 km/h (4 Bft)
21.01.2024 12:53 22,2 °C 1,8 °C 37 % 61 % 1024,7 hPa 0,0 l/m² 19,7 km/h (3 Bft) S-SO 166 ° 1 min 172 W/m² -4,9 °C -7,2 °C 25,7 km/h (4 Bft)
21.01.2024 12:54 22,2 °C 1,8 °C 36 % 61 % 1024,6 hPa 0,0 l/m² 17,2 km/h (3 Bft) S-SO 165 ° 1 min 167 W/m² -4,9 °C -6,0 °C 24,1 km/h (4 Bft)
21.01.2024 12:56 22,2 °C 1,8 °C 36 % 62 % 1024,5 hPa 0,0 l/m² 18,1 km/h (3 Bft) S 184 ° 2 min 165 W/m² -4,7 °C -6,4 °C 27,4 km/h (5 Bft)
21.01.2024 12:58 22,1 °C 1,8 °C 37 % 63 % 1024,6 hPa 0,0 l/m² 16,8 km/h (3 Bft) S 179 ° 2 min 167 W/m² -4,5 °C -5,8 °C 22,5 km/h (4 Bft)
21.01.2024 13:00 22,1 °C 1,8 °C 37 % 62 % 1024,6 hPa 0,0 l/m² 19,6 km/h (3 Bft) S-SO 167 ° 2 min 174 W/m² -4,7 °C -7,1 °C 27,4 km/h (5 Bft)
21.01.2024 13:02 22,0 °C 1,8 °C 37 % 63 % 1024,4 hPa 0,0 l/m² 18,4 km/h (3 Bft) S-SO 150 ° 2 min 172 W/m² -4,5 °C -6,6 °C 25,7 km/h (4 Bft)
21.01.2024 13:03 22,0 °C 1,8 °C 37 % 62 % 1024,4 hPa 0,0 l/m² 17,2 km/h (3 Bft) S-SO 163 ° 1 min 174 W/m² -4,7 °C -6,0 °C 25,7 km/h (4 Bft)
21.01.2024 13:04 22,1 °C 1,8 °C 37 % 62 % 1024,4 hPa 0,0 l/m² 17,7 km/h (3 Bft) S-SW 192 ° 1 min 174 W/m² -4,7 °C -6,2 °C 20,9 km/h (4 Bft)
21.01.2024 13:06 22,0 °C 1,8 °C 38 % 63 % 1024,6 hPa 0,0 l/m² 16,4 km/h (3 Bft) S-SW 200 ° 2 min 181 W/m² -4,5 °C -5,6 °C 20,9 km/h (4 Bft)
21.01.2024 13:08 22,0 °C 1,7 °C 38 % 64 % 1024,7 hPa 0,0 l/m² 16,3 km/h (3 Bft) SW 217 ° 2 min 193 W/m² -4,4 °C -5,6 °C 19,3 km/h (3 Bft)
21.01.2024 13:10 22,1 °C 1,4 °C 38 % 67 % 1024,9 hPa 0,0 l/m² 14,5 km/h (3 Bft) SW 218 ° 2 min 214 W/m² -4,0 °C -5,0 °C 19,3 km/h (3 Bft)
21.01.2024 13:12 22,0 °C 0,9 °C 38 % 68 % 1024,6 hPa 0,0 l/m² 14,9 km/h (3 Bft) SW 220 ° 2 min 236 W/m² -4,3 °C -5,8 °C 17,7 km/h (3 Bft)
21.01.2024 13:13 22,0 °C 0,7 °C 38 % 67 % 1024,6 hPa 0,0 l/m² 17,1 km/h (3 Bft) SW 221 ° 1 min 251 W/m² -4,7 °C -7,3 °C 20,9 km/h (4 Bft)
21.01.2024 13:14 22,0 °C 0,5 °C 38 % 68 % 1024,6 hPa 0,0 l/m² 15,7 km/h (3 Bft) S-SW 207 ° 1 min 251 W/m² -4,7 °C -6,8 °C 17,7 km/h (3 Bft)
21.01.2024 13:16 22,0 °C 0,3 °C 38 % 70 % 1024,6 hPa 0,0 l/m² 15,5 km/h (3 Bft) SW 221 ° 2 min 332 W/m² -4,5 °C -6,9 °C 17,7 km/h (3 Bft)
21.01.2024 13:18 22,0 °C 0,3 °C 38 % 69 % 1024,5 hPa 0,0 l/m² 16,1 km/h (3 Bft) S-SW 211 ° 2 min 260 W/m² -4,7 °C -7,3 °C 19,3 km/h (3 Bft)
21.01.2024 13:20 22,1 °C 0,3 °C 38 % 69 % 1024,5 hPa 0,0 l/m² 15,2 km/h (3 Bft) S-SW 211 ° 2 min 246 W/m² -4,7 °C -6,7 °C 17,7 km/h (3 Bft)
21.01.2024 13:22 22,1 °C 0,3 °C 39 % 70 % 1024,3 hPa 0,0 l/m² 13,8 km/h (3 Bft) S-SW 213 ° 2 min 141 W/m² -4,5 °C -5,9 °C 16,1 km/h (3 Bft)
21.01.2024 13:23 22,1 °C 0,3 °C 39 % 70 % 1024,3 hPa 0,0 l/m² 15,4 km/h (3 Bft) S-SW 205 ° 1 min 134 W/m² -4,5 °C -6,9 °C 17,7 km/h (3 Bft)
21.01.2024 13:24 22,1 °C 0,3 °C 39 % 69 % 1024,3 hPa 0,0 l/m² 14,3 km/h (3 Bft) S-SW 199 ° 1 min 128 W/m² -4,7 °C -6,2 °C 17,7 km/h (3 Bft)
21.01.2024 13:26 22,1 °C 0,3 °C 39 % 68 % 1023,8 hPa 0,0 l/m² 15,0 km/h (3 Bft) S-SW 198 ° 2 min 121 W/m² -4,9 °C -6,6 °C 17,7 km/h (3 Bft)
21.01.2024 13:28 22,1 °C 0,3 °C 39 % 68 % 1023,9 hPa 0,0 l/m² 16,4 km/h (3 Bft) S-SW 205 ° 2 min 114 W/m² -4,9 °C -7,4 °C 19,3 km/h (3 Bft)
21.01.2024 13:30 22,1 °C 0,4 °C 39 % 67 % 1023,9 hPa 0,0 l/m² 15,3 km/h (3 Bft) S-SW 211 ° 2 min 113 W/m² -5,0 °C -6,7 °C 19,3 km/h (3 Bft)
21.01.2024 13:32 22,1 °C 0,4 °C 39 % 68 % 1024,4 hPa 0,0 l/m² 17,3 km/h (3 Bft) SW 215 ° 2 min 113 W/m² -4,8 °C -7,8 °C 22,5 km/h (4 Bft)
21.01.2024 13:33 22,1 °C 0,4 °C 39 % 68 % 1024,4 hPa 0,0 l/m² 17,4 km/h (3 Bft) SW 223 ° 1 min 113 W/m² -4,8 °C -7,8 °C 19,3 km/h (3 Bft)
21.01.2024 13:34 22,1 °C 0,4 °C 39 % 68 % 1024,4 hPa 0,0 l/m² 14,6 km/h (3 Bft) SW 218 ° 1 min 114 W/m² -4,8 °C -6,3 °C 16,1 km/h (3 Bft)
21.01.2024 13:36 22,1 °C 0,4 °C 39 % 68 % 1024,5 hPa 0,0 l/m² 15,3 km/h (3 Bft) SW 219 ° 2 min 114 W/m² -4,8 °C -6,7 °C 20,9 km/h (4 Bft)
21.01.2024 13:38 22,1 °C 0,4 °C 39 % 68 % 1024,6 hPa 0,0 l/m² 16,7 km/h (3 Bft) SW 225 ° 2 min 114 W/m² -4,8 °C -7,5 °C 19,3 km/h (3 Bft)
21.01.2024 13:40 22,1 °C 0,4 °C 39 % 68 % 1024,5 hPa 0,0 l/m² 16,6 km/h (3 Bft) S-SW 209 ° 2 min 107 W/m² -4,8 °C -7,4 °C 20,9 km/h (4 Bft)
21.01.2024 13:42 22,1 °C 0,3 °C 39 % 68 % 1024,3 hPa 0,0 l/m² 14,2 km/h (3 Bft) S-SW 212 ° 2 min 105 W/m² -4,9 °C -6,1 °C 19,3 km/h (3 Bft)
21.01.2024 13:43 22,1 °C 0,3 °C 39 % 69 % 1024,3 hPa 0,0 l/m² 13,4 km/h (3 Bft) S-SW 212 ° 1 min 105 W/m² -4,7 °C -5,6 °C 16,1 km/h (3 Bft)
21.01.2024 13:44 22,1 °C 0,3 °C 39 % 69 % 1024,4 hPa 0,0 l/m² 13,7 km/h (3 Bft) S-SW 211 ° 1 min 107 W/m² -4,7 °C -5,8 °C 16,1 km/h (3 Bft)
21.01.2024 13:46 22,1 °C 0,2 °C 39 % 70 % 1024,4 hPa 0,0 l/m² 14,6 km/h (3 Bft) S-SW 205 ° 2 min 109 W/m² -4,6 °C -6,5 °C 17,7 km/h (3 Bft)
21.01.2024 13:48 22,1 °C 0,2 °C 39 % 69 % 1024,4 hPa 0,0 l/m² 14,6 km/h (3 Bft) S-SW 196 ° 2 min 111 W/m² -4,8 °C -6,5 °C 17,7 km/h (3 Bft)
21.01.2024 13:50 22,1 °C 0,2 °C 39 % 70 % 1024,4 hPa 0,0 l/m² 15,3 km/h (3 Bft) S-SW 205 ° 2 min 111 W/m² -4,6 °C -6,9 °C 19,3 km/h (3 Bft)
21.01.2024 13:52 22,1 °C 0,2 °C 40 % 70 % 1024,4 hPa 0,0 l/m² 15,2 km/h (3 Bft) S-SW 211 ° 2 min 114 W/m² -4,6 °C -6,9 °C 19,3 km/h (3 Bft)
21.01.2024 13:53 22,1 °C 0,3 °C 40 % 70 % 1024,4 hPa 0,0 l/m² 16,2 km/h (3 Bft) SW 216 ° 1 min 116 W/m² -4,5 °C -7,3 °C 19,3 km/h (3 Bft)
21.01.2024 13:54 22,1 °C 0,3 °C 39 % 70 % 1024,4 hPa 0,0 l/m² 17,1 km/h (3 Bft) S-SW 209 ° 1 min 120 W/m² -4,5 °C -7,8 °C 19,3 km/h (3 Bft)
21.01.2024 13:56 22,1 °C 0,4 °C 40 % 69 % 1024,1 hPa 0,0 l/m² 16,6 km/h (3 Bft) S 190 ° 2 min 128 W/m² -4,6 °C -7,4 °C 20,9 km/h (4 Bft)
21.01.2024 13:58 22,1 °C 0,4 °C 40 % 68 % 1024,0 hPa 0,0 l/m² 16,9 km/h (3 Bft) S-SW 208 ° 2 min 155 W/m² -4,8 °C -7,6 °C 20,9 km/h (4 Bft)
21.01.2024 14:00 22,1 °C 0,6 °C 40 % 68 % 1024,1 hPa 0,0 l/m² 18,0 km/h (3 Bft) S-SW 206 ° 2 min 207 W/m² -4,6 °C -7,9 °C 20,9 km/h (4 Bft)
21.01.2024 14:02 22,1 °C 0,7 °C 40 % 69 % 1024,0 hPa 0,0 l/m² 18,2 km/h (3 Bft) S-SW 211 ° 2 min 288 W/m² -4,3 °C -7,9 °C 20,9 km/h (4 Bft)
21.01.2024 14:03 22,1 °C 0,8 °C 40 % 68 % 1024,0 hPa 0,0 l/m² 19,9 km/h (4 Bft) S-SW 212 ° 1 min 275 W/m² -4,4 °C -8,6 °C 25,7 km/h (4 Bft)
21.01.2024 14:04 22,1 °C 0,9 °C 40 % 68 % 1023,9 hPa 0,0 l/m² 18,9 km/h (3 Bft) S-SW 201 ° 1 min 274 W/m² -4,3 °C -8,0 °C 20,9 km/h (4 Bft)
21.01.2024 14:06 22,1 °C 1,2 °C 40 % 67 % 1023,8 hPa 0,0 l/m² 20,4 km/h (4 Bft) S-SW 204 ° 2 min 271 W/m² -4,2 °C -8,3 °C 25,7 km/h (4 Bft)
21.01.2024 14:08 22,2 °C 1,4 °C 40 % 65 % 1023,7 hPa 0,0 l/m² 23,7 km/h (4 Bft) S-SW 198 ° 2 min 269 W/m² -4,4 °C -9,3 °C 30,6 km/h (5 Bft)
21.01.2024 14:10 22,1 °C 1,6 °C 40 % 65 % 1023,7 hPa 0,0 l/m² 20,9 km/h (4 Bft) SW 215 ° 2 min 267 W/m² -4,3 °C -8,0 °C 27,4 km/h (5 Bft)
21.01.2024 14:12 22,2 °C 1,6 °C 40 % 66 % 1023,9 hPa 0,0 l/m² 17,4 km/h (3 Bft) SW 228 ° 2 min 264 W/m² -4,1 °C -6,3 °C 22,5 km/h (4 Bft)
21.01.2024 14:13 22,2 °C 1,8 °C 40 % 65 % 1023,9 hPa 0,0 l/m² 13,5 km/h (3 Bft) SW 229 ° 1 min 263 W/m² -4,1 °C -3,9 °C 20,9 km/h (4 Bft)
21.01.2024 14:14 22,2 °C 1,9 °C 40 % 64 % 1023,9 hPa 0,0 l/m² 14,6 km/h (3 Bft) SW 218 ° 1 min 262 W/m² -4,2 °C -4,4 °C 19,3 km/h (3 Bft)
21.01.2024 14:16 22,2 °C 2,0 °C 40 % 64 % 1024,1 hPa 0,0 l/m² 15,6 km/h (3 Bft) SW 216 ° 2 min 260 W/m² -4,1 °C -4,9 °C 20,9 km/h (4 Bft)
21.01.2024 14:18 22,2 °C 2,1 °C 40 % 64 % 1024,2 hPa 0,0 l/m² 17,7 km/h (3 Bft) SW 217 ° 2 min 306 W/m² -4,0 °C -5,9 °C 24,1 km/h (4 Bft)
21.01.2024 14:20 22,2 °C 2,0 °C 40 % 64 % 1024,0 hPa 0,0 l/m² 17,6 km/h (3 Bft) S-SW 211 ° 2 min 254 W/m² -4,1 °C -5,9 °C 25,7 km/h (4 Bft)
21.01.2024 14:22 22,2 °C 1,9 °C 40 % 63 % 1024,0 hPa 0,0 l/m² 19,1 km/h (3 Bft) S-SW 212 ° 2 min 329 W/m² -4,4 °C -6,8 °C 25,7 km/h (4 Bft)
21.01.2024 14:23 22,2 °C 1,8 °C 40 % 62 % 1024,0 hPa 0,0 l/m² 14,2 km/h (3 Bft) S-SW 210 ° 1 min 343 W/m² -4,7 °C -4,3 °C 16,1 km/h (3 Bft)
21.01.2024 14:24 22,2 °C 1,8 °C 40 % 65 % 1023,9 hPa 0,0 l/m² 14,3 km/h (3 Bft) S-SW 204 ° 1 min 249 W/m² -4,1 °C -4,4 °C 17,7 km/h (3 Bft)
21.01.2024 14:26 22,2 °C 1,8 °C 40 % 66 % 1023,9 hPa 0,0 l/m² 13,0 km/h (3 Bft) SW 223 ° 2 min 246 W/m² -3,9 °C -3,6 °C 16,1 km/h (3 Bft)
21.01.2024 14:28 22,2 °C 1,8 °C 40 % 65 % 1024,0 hPa 0,0 l/m² 11,8 km/h (2 Bft) SW 227 ° 2 min 243 W/m² -4,1 °C -2,8 °C 16,1 km/h (3 Bft)
21.01.2024 14:30 22,2 °C 1,9 °C 40 % 66 % 1023,9 hPa 0,0 l/m² 10,6 km/h (2 Bft) SW 225 ° 2 min 206 W/m² -3,8 °C -1,8 °C 14,5 km/h (3 Bft)
21.01.2024 14:32 22,3 °C 1,9 °C 40 % 65 % 1023,8 hPa 0,0 l/m² 9,8 km/h (2 Bft) SW 225 ° 2 min 232 W/m² -4,0 °C -1,2 °C 12,9 km/h (3 Bft)
21.01.2024 14:33 22,3 °C 1,9 °C 40 % 65 % 1023,8 hPa 0,0 l/m² 10,4 km/h (2 Bft) SW 227 ° 1 min 209 W/m² -4,0 °C -1,7 °C 12,9 km/h (3 Bft)
21.01.2024 14:34 22,3 °C 1,9 °C 40 % 64 % 1023,7 hPa 0,0 l/m² 9,3 km/h (2 Bft) SW 228 ° 1 min 192 W/m² -4,2 °C -0,8 °C 11,3 km/h (2 Bft)
21.01.2024 14:36 22,2 °C 1,8 °C 40 % 68 % 1023,7 hPa 0,0 l/m² 8,6 km/h (2 Bft) SW 219 ° 2 min 225 W/m² -3,5 °C -0,3 °C 11,3 km/h (2 Bft)
21.01.2024 14:38 22,3 °C 1,7 °C 40 % 70 % 1023,8 hPa 0,2 l/m² 7,6 km/h (2 Bft) SW 219 ° 2 min 193 W/m² -3,2 °C 0,5 °C 11,3 km/h (2 Bft)
21.01.2024 14:40 22,3 °C 1,9 °C 40 % 68 % 1023,8 hPa 0,0 l/m² 9,3 km/h (2 Bft) S-SW 205 ° 2 min 227 W/m² -3,4 °C -0,8 °C 12,9 km/h (3 Bft)
21.01.2024 14:42 22,3 °C 2,3 °C 40 % 66 % 1023,8 hPa 0,0 l/m² 12,7 km/h (3 Bft) S 185 ° 2 min 224 W/m² -3,4 °C -2,8 °C 16,1 km/h (3 Bft)
21.01.2024 14:43 22,3 °C 2,4 °C 40 % 66 % 1023,8 hPa 0,0 l/m² 11,8 km/h (2 Bft) S 190 ° 1 min 222 W/m² -3,3 °C -2,1 °C 14,5 km/h (3 Bft)
21.01.2024 14:44 22,3 °C 2,6 °C 40 % 66 % 1023,8 hPa 0,0 l/m² 11,3 km/h (2 Bft) S 185 ° 1 min 221 W/m² -3,1 °C -1,5 °C 14,5 km/h (3 Bft)
21.01.2024 14:46 22,3 °C 2,8 °C 40 % 64 % 1023,8 hPa 0,0 l/m² 13,3 km/h (3 Bft) S 182 ° 2 min 217 W/m² -3,3 °C -2,6 °C 16,1 km/h (3 Bft)
21.01.2024 14:48 22,3 °C 2,9 °C 40 % 64 % 1023,8 hPa 0,0 l/m² 10,9 km/h (2 Bft) S-SW 193 ° 2 min 214 W/m² -3,2 °C -0,9 °C 14,5 km/h (3 Bft)
21.01.2024 14:50 22,3 °C 2,8 °C 40 % 63 % 1023,9 hPa 0,0 l/m² 11,0 km/h (2 Bft) S 189 ° 2 min 218 W/m² -3,5 °C -1,1 °C 14,5 km/h (3 Bft)
21.01.2024 14:52 22,3 °C 2,8 °C 40 % 65 % 1024,1 hPa 0,0 l/m² 8,7 km/h (2 Bft) W-SW 245 ° 2 min 185 W/m² -3,1 °C 0,7 °C 11,3 km/h (2 Bft)
21.01.2024 14:53 22,3 °C 2,9 °C 40 % 63 % 1024,1 hPa 0,0 l/m² 9,3 km/h (2 Bft) W 269 ° 1 min 176 W/m² -3,4 °C 0,3 °C 12,9 km/h (3 Bft)
21.01.2024 14:54 22,3 °C 2,8 °C 40 % 63 % 1024,0 hPa 0,0 l/m² 5,0 km/h (1 Bft) W 269 ° 1 min 179 W/m² -3,5 °C 2,8 °C 6,4 km/h (2 Bft)
21.01.2024 14:56 22,3 °C 2,8 °C 40 % 62 % 1024,0 hPa 0,0 l/m² 5,0 km/h (1 Bft) W-SW 254 ° 2 min 153 W/m² -3,7 °C 2,8 °C 8,0 km/h (2 Bft)
21.01.2024 14:58 22,3 °C 2,8 °C 40 % 63 % 1024,0 hPa 0,0 l/m² 10,7 km/h (2 Bft) S-SW 201 ° 2 min 141 W/m² -3,5 °C -0,9 °C 19,3 km/h (3 Bft)
21.01.2024 15:00 22,3 °C 2,8 °C 40 % 61 % 1024,1 hPa 0,0 l/m² 11,0 km/h (2 Bft) SW 231 ° 2 min 128 W/m² -4,0 °C -1,1 °C 16,1 km/h (3 Bft)
21.01.2024 15:02 22,3 °C 2,9 °C 41 % 60 % 1024,2 hPa 0,0 l/m² 15,3 km/h (3 Bft) SW 225 ° 2 min 107 W/m² -4,1 °C -3,6 °C 29,0 km/h (5 Bft)
21.01.2024 15:03 22,3 °C 2,9 °C 41 % 58 % 1024,2 hPa 0,0 l/m² 16,9 km/h (3 Bft) SW 220 ° 1 min 100 W/m² -4,5 °C -4,5 °C 20,9 km/h (4 Bft)
21.01.2024 15:04 22,3 °C 3,0 °C 41 % 59 % 1024,1 hPa 0,0 l/m² 13,9 km/h (3 Bft) SW 216 ° 1 min 97 W/m² -4,2 °C -2,7 °C 22,5 km/h (4 Bft)
21.01.2024 15:06 22,3 °C 2,8 °C 41 % 63 % 1024,2 hPa 0,0 l/m² 16,4 km/h (3 Bft) S-SW 205 ° 2 min 93 W/m² -3,5 °C -4,3 °C 22,5 km/h (4 Bft)
21.01.2024 15:08 22,3 °C 2,8 °C 41 % 62 % 1024,2 hPa 0,0 l/m² 17,6 km/h (3 Bft) S-SW 211 ° 2 min 88 W/m² -3,7 °C -4,9 °C 22,5 km/h (4 Bft)
21.01.2024 15:10 22,3 °C 2,7 °C 41 % 62 % 1024,2 hPa 0,0 l/m² 21,5 km/h (4 Bft) SW 219 ° 2 min 84 W/m² -3,8 °C -6,8 °C 30,6 km/h (5 Bft)
21.01.2024 15:12 22,3 °C 2,7 °C 41 % 63 % 1024,2 hPa 0,0 l/m² 20,4 km/h (4 Bft) S-SW 209 ° 2 min 90 W/m² -3,6 °C -6,3 °C 27,4 km/h (5 Bft)
21.01.2024 15:13 22,3 °C 2,7 °C 41 % 62 % 1024,2 hPa 0,0 l/m² 26,1 km/h (4 Bft) S-SW 207 ° 1 min 91 W/m² -3,8 °C -8,4 °C 29,0 km/h (5 Bft)
21.01.2024 15:14 22,3 °C 2,8 °C 41 % 61 % 1024,3 hPa 0,0 l/m² 20,6 km/h (4 Bft) S-SW 210 ° 1 min 88 W/m² -4,0 °C -6,3 °C 25,7 km/h (4 Bft)
21.01.2024 15:16 22,3 °C 2,8 °C 41 % 62 % 1024,2 hPa 0,0 l/m² 19,3 km/h (3 Bft) S-SW 205 ° 2 min 84 W/m² -3,7 °C -5,7 °C 22,5 km/h (4 Bft)
21.01.2024 15:18 22,3 °C 2,7 °C 41 % 63 % 1024,3 hPa 0,0 l/m² 22,1 km/h (4 Bft) SW 214 ° 2 min 84 W/m² -3,6 °C -7,0 °C 25,7 km/h (4 Bft)
21.01.2024 15:20 22,3 °C 2,7 °C 41 % 62 % 1024,3 hPa 0,0 l/m² 25,2 km/h (4 Bft) SW 219 ° 2 min 81 W/m² -3,8 °C -8,1 °C 30,6 km/h (5 Bft)
21.01.2024 15:22 22,2 °C 2,7 °C 41 % 63 % 1024,2 hPa 0,0 l/m² 21,8 km/h (4 Bft) S-SW 210 ° 2 min 79 W/m² -3,6 °C -6,9 °C 27,4 km/h (5 Bft)
21.01.2024 15:23 22,2 °C 2,7 °C 41 % 62 % 1024,2 hPa 0,0 l/m² 25,8 km/h (4 Bft) S-SW 211 ° 1 min 79 W/m² -3,8 °C -8,3 °C 30,6 km/h (5 Bft)
21.01.2024 15:24 22,2 °C 2,7 °C 41 % 62 % 1024,3 hPa 0,0 l/m² 24,8 km/h (4 Bft) S-SW 210 ° 1 min 81 W/m² -3,8 °C -8,0 °C 29,0 km/h (5 Bft)
21.01.2024 15:26 22,2 °C 2,6 °C 41 % 64 % 1024,2 hPa 0,0 l/m² 18,6 km/h (3 Bft) S-SW 209 ° 2 min 79 W/m² -3,5 °C -5,7 °C 22,5 km/h (4 Bft)
21.01.2024 15:28 22,2 °C 2,4 °C 41 % 64 % 1024,2 hPa 0,0 l/m² 18,7 km/h (3 Bft) SW 215 ° 2 min 79 W/m² -3,7 °C -6,0 °C 22,5 km/h (4 Bft)
21.01.2024 15:30 22,2 °C 2,5 °C 41 % 63 % 1024,2 hPa 0,0 l/m² 19,6 km/h (3 Bft) S-SW 211 ° 2 min 84 W/m² -3,8 °C -6,2 °C 24,1 km/h (4 Bft)
21.01.2024 15:32 22,2 °C 2,5 °C 41 % 63 % 1024,4 hPa 0,0 l/m² 15,7 km/h (3 Bft) SW 232 ° 2 min 83 W/m² -3,8 °C -4,3 °C 22,5 km/h (4 Bft)
21.01.2024 15:33 22,2 °C 2,5 °C 41 % 63 % 1024,4 hPa 0,0 l/m² 22,3 km/h (4 Bft) SW 223 ° 1 min 83 W/m² -3,8 °C -7,3 °C 27,4 km/h (5 Bft)
21.01.2024 15:34 22,2 °C 2,5 °C 41 % 63 % 1024,4 hPa 0,0 l/m² 20,9 km/h (4 Bft) S-SW 213 ° 1 min 77 W/m² -3,8 °C -6,8 °C 24,1 km/h (4 Bft)
21.01.2024 15:36 22,2 °C 2,5 °C 41 % 63 % 1024,2 hPa 0,0 l/m² 21,7 km/h (4 Bft) S-SW 199 ° 2 min 69 W/m² -3,8 °C -7,1 °C 29,0 km/h (5 Bft)
21.01.2024 15:38 22,2 °C 2,3 °C 41 % 64 % 1024,3 hPa 0,0 l/m² 16,6 km/h (3 Bft) S-SW 211 ° 2 min 65 W/m² -3,8 °C -5,1 °C 22,5 km/h (4 Bft)
21.01.2024 15:40 22,2 °C 2,3 °C 41 % 64 % 1024,3 hPa 0,0 l/m² 16,8 km/h (3 Bft) S-SW 202 ° 2 min 62 W/m² -3,8 °C -5,2 °C 24,1 km/h (4 Bft)
21.01.2024 15:42 22,2 °C 2,3 °C 41 % 64 % 1024,2 hPa 0,0 l/m² 16,9 km/h (3 Bft) S 189 ° 2 min 58 W/m² -3,8 °C -5,2 °C 22,5 km/h (4 Bft)
21.01.2024 15:43 22,2 °C 2,3 °C 41 % 65 % 1024,2 hPa 0,0 l/m² 17,9 km/h (3 Bft) S-SW 207 ° 1 min 56 W/m² -3,6 °C -5,7 °C 24,1 km/h (4 Bft)
21.01.2024 15:45 22,2 °C 2,3 °C 41 % 64 % 1024,4 hPa 0,0 l/m² 16,4 km/h (3 Bft) S-SW 201 ° 2 min 54 W/m² -3,8 °C -5,0 °C 19,3 km/h (3 Bft)
21.01.2024 15:47 22,2 °C 2,3 °C 41 % 64 % 1024,4 hPa 0,0 l/m² 16,1 km/h (3 Bft) SW 220 ° 0 min 51 W/m² -3,8 °C -4,8 °C 20,9 km/h (4 Bft)
21.01.2024 15:49 22,2 °C 2,3 °C 41 % 65 % 1024,5 hPa 0,0 l/m² 15,2 km/h (3 Bft) SW 217 ° 0 min 47 W/m² -3,6 °C -4,3 °C 24,1 km/h (4 Bft)
21.01.2024 15:51 22,2 °C 2,3 °C 42 % 65 % 1024,6 hPa 0,0 l/m² 12,6 km/h (3 Bft) S-SW 207 ° 0 min 44 W/m² -3,6 °C -2,7 °C 19,3 km/h (3 Bft)
21.01.2024 15:52 22,2 °C 2,3 °C 42 % 64 % 1024,6 hPa 0,0 l/m² 13,4 km/h (3 Bft) S-SW 209 ° 0 min 42 W/m² -3,8 °C -3,3 °C 17,7 km/h (3 Bft)
21.01.2024 15:53 22,2 °C 2,3 °C 42 % 64 % 1024,6 hPa 0,0 l/m² 9,6 km/h (2 Bft) SW 217 ° 0 min 42 W/m² -3,8 °C -0,6 °C 11,3 km/h (2 Bft)
21.01.2024 15:55 22,2 °C 2,3 °C 42 % 64 % 1024,5 hPa 0,0 l/m² 10,2 km/h (2 Bft) SW 219 ° 0 min 39 W/m² -3,8 °C -1,1 °C 16,1 km/h (3 Bft)
21.01.2024 15:57 22,2 °C 2,3 °C 42 % 64 % 1024,6 hPa 0,0 l/m² 10,0 km/h (2 Bft) S-SW 196 ° 0 min 35 W/m² -3,8 °C -0,9 °C 12,9 km/h (3 Bft)
21.01.2024 15:59 22,2 °C 2,3 °C 42 % 63 % 1024,5 hPa 0,0 l/m² 10,3 km/h (2 Bft) S-SW 198 ° 0 min 33 W/m² -4,0 °C -1,1 °C 14,5 km/h (3 Bft)
21.01.2024 16:01 22,2 °C 2,3 °C 42 % 64 % 1024,6 hPa 0,0 l/m² 4,1 km/h (1 Bft) S-SW 194 ° 0 min 30 W/m² -3,8 °C 2,3 °C 11,3 km/h (2 Bft)
21.01.2024 16:02 22,2 °C 2,2 °C 42 % 63 % 1024,6 hPa 0,0 l/m² 4,9 km/h (1 Bft) S-SW 194 ° 0 min 30 W/m² -4,1 °C 2,2 °C 6,4 km/h (2 Bft)
21.01.2024 16:03 22,2 °C 2,3 °C 42 % 63 % 1024,5 hPa 0,0 l/m² 6,3 km/h (2 Bft) S-SO 164 ° 0 min 28 W/m² -4,0 °C 2,3 °C 9,7 km/h (2 Bft)
21.01.2024 16:05 22,2 °C 2,2 °C 42 % 64 % 1024,4 hPa 0,0 l/m² 5,9 km/h (2 Bft) S-SO 155 ° 0 min 28 W/m² -3,9 °C 2,2 °C 8,0 km/h (2 Bft)
21.01.2024 16:07 22,2 °C 2,1 °C 42 % 64 % 1024,4 hPa 0,0 l/m² 8,0 km/h (2 Bft) SO 145 ° 0 min 26 W/m² -4,0 °C 0,6 °C 12,9 km/h (3 Bft)
21.01.2024 16:09 22,2 °C 2,1 °C 42 % 64 % 1024,4 hPa 0,0 l/m² 11,3 km/h (2 Bft) SO 134 ° 0 min 25 W/m² -4,0 °C -2,1 °C 14,5 km/h (3 Bft)
21.01.2024 16:11 22,2 °C 2,0 °C 42 % 65 % 1024,5 hPa 0,0 l/m² 7,6 km/h (2 Bft) SO 136 ° 0 min 21 W/m² -3,9 °C 0,8 °C 12,9 km/h (3 Bft)
21.01.2024 16:12 22,2 °C 1,9 °C 42 % 65 % 1024,5 hPa 0,0 l/m² 5,8 km/h (2 Bft) SO 132 ° 0 min 19 W/m² -4,0 °C 1,9 °C 8,0 km/h (2 Bft)
21.01.2024 16:13 22,2 °C 1,9 °C 42 % 66 % 1024,4 hPa 0,0 l/m² 6,8 km/h (2 Bft) O-SO 123 ° 0 min 19 W/m² -3,8 °C 1,5 °C 8,0 km/h (2 Bft)
21.01.2024 16:15 22,2 °C 1,8 °C 42 % 67 % 1024,4 hPa 0,0 l/m² 6,5 km/h (2 Bft) O-SO 123 ° 0 min 16 W/m² -3,7 °C 1,7 °C 11,3 km/h (2 Bft)
21.01.2024 16:17 22,2 °C 1,8 °C 42 % 66 % 1024,4 hPa 0,0 l/m² 9,7 km/h (2 Bft) O-SO 105 ° 0 min 14 W/m² -3,9 °C -1,2 °C 12,9 km/h (3 Bft)
21.01.2024 16:19 22,2 °C 1,8 °C 42 % 66 % 1024,4 hPa 0,0 l/m² 11,0 km/h (2 Bft) O-SO 105 ° 0 min 11 W/m² -3,9 °C -2,2 °C 14,5 km/h (3 Bft)
21.01.2024 16:21 22,2 °C 1,8 °C 42 % 66 % 1024,5 hPa 0,0 l/m² 11,0 km/h (2 Bft) O-SO 116 ° 0 min 9 W/m² -3,9 °C -2,2 °C 14,5 km/h (3 Bft)
21.01.2024 16:22 22,2 °C 1,9 °C 42 % 65 % 1024,5 hPa 0,0 l/m² 11,2 km/h (2 Bft) SO 125 ° 0 min 9 W/m² -4,0 °C -2,3 °C 12,9 km/h (3 Bft)
21.01.2024 16:23 22,2 °C 1,9 °C 42 % 65 % 1024,4 hPa 0,0 l/m² 10,3 km/h (2 Bft) O-SO 122 ° 0 min 9 W/m² -4,0 °C -1,6 °C 14,5 km/h (3 Bft)
21.01.2024 16:25 22,2 °C 1,9 °C 43 % 66 % 1024,4 hPa 0,0 l/m² 10,2 km/h (2 Bft) SO 127 ° 0 min 7 W/m² -3,8 °C -1,5 °C 12,9 km/h (3 Bft)
21.01.2024 16:27 22,2 °C 2,0 °C 43 % 64 % 1024,4 hPa 0,0 l/m² 13,0 km/h (3 Bft) SO 132 ° 0 min 5 W/m² -4,1 °C -3,4 °C 16,1 km/h (3 Bft)
21.01.2024 16:29 22,2 °C 2,0 °C 43 % 64 % 1024,3 hPa 0,0 l/m² 12,2 km/h (2 Bft) SO 136 ° 0 min 5 W/m² -4,1 °C -2,8 °C 16,1 km/h (3 Bft)
21.01.2024 16:31 22,2 °C 2,1 °C 42 % 65 % 1024,2 hPa 0,0 l/m² 14,1 km/h (3 Bft) S-SO 147 ° 0 min 5 W/m² -3,8 °C -3,9 °C 20,9 km/h (4 Bft)
21.01.2024 16:32 22,2 °C 2,1 °C 42 % 65 % 1024,2 hPa 0,0 l/m² 13,2 km/h (3 Bft) S-SO 150 ° 0 min 5 W/m² -3,8 °C -3,4 °C 14,5 km/h (3 Bft)
21.01.2024 16:33 22,2 °C 2,0 °C 42 % 66 % 1024,2 hPa 0,0 l/m² 12,9 km/h (3 Bft) S-SO 165 ° 0 min 0 W/m² -3,7 °C -3,3 °C 17,7 km/h (3 Bft)
21.01.2024 16:35 22,2 °C 1,9 °C 42 % 66 % 1024,2 hPa 0,0 l/m² 12,5 km/h (2 Bft) S-SO 152 ° 0 min 0 W/m² -3,8 °C -3,1 °C 17,7 km/h (3 Bft)
21.01.2024 16:37 22,2 °C 1,9 °C 42 % 65 % 1024,1 hPa 0,0 l/m² 17,0 km/h (3 Bft) S-SO 161 ° 0 min 0 W/m² -4,0 °C -5,8 °C 25,7 km/h (4 Bft)
21.01.2024 16:39 22,2 °C 2,0 °C 42 % 65 % 1024,1 hPa 0,0 l/m² 15,6 km/h (3 Bft) S-SW 192 ° 0 min 0 W/m² -3,9 °C -4,9 °C 25,7 km/h (4 Bft)
21.01.2024 16:41 22,2 °C 1,9 °C 42 % 66 % 1024,0 hPa 0,0 l/m² 15,7 km/h (3 Bft) S 178 ° 0 min 0 W/m² -3,8 °C -5,1 °C 19,3 km/h (3 Bft)
21.01.2024 16:42 22,2 °C 1,9 °C 42 % 66 % 1024,0 hPa 0,0 l/m² 14,7 km/h (3 Bft) S 182 ° 0 min 0 W/m² -3,8 °C -4,5 °C 17,7 km/h (3 Bft)
21.01.2024 16:43 22,2 °C 1,9 °C 42 % 66 % 1024,1 hPa 0,0 l/m² 14,1 km/h (3 Bft) S 180 ° 0 min 0 W/m² -3,8 °C -4,2 °C 17,7 km/h (3 Bft)
21.01.2024 16:45 22,2 °C 1,9 °C 42 % 66 % 1024,2 hPa 0,0 l/m² 12,7 km/h (3 Bft) S 181 ° 0 min 0 W/m² -3,8 °C -3,3 °C 17,7 km/h (3 Bft)
21.01.2024 16:47 22,2 °C 1,9 °C 42 % 66 % 1024,2 hPa 0,0 l/m² 12,2 km/h (2 Bft) S 184 ° 0 min 0 W/m² -3,8 °C -2,9 °C 17,7 km/h (3 Bft)
21.01.2024 16:49 22,2 °C 1,8 °C 43 % 67 % 1024,3 hPa 0,0 l/m² 12,7 km/h (3 Bft) S 186 ° 0 min 0 W/m² -3,7 °C -3,4 °C 16,1 km/h (3 Bft)
21.01.2024 16:51 22,2 °C 1,8 °C 43 % 67 % 1024,4 hPa 0,0 l/m² 11,6 km/h (2 Bft) S-SW 192 ° 0 min 0 W/m² -3,7 °C -2,7 °C 16,1 km/h (3 Bft)
21.01.2024 16:52 22,2 °C 1,8 °C 43 % 67 % 1024,4 hPa 0,0 l/m² 11,1 km/h (2 Bft) S 191 ° 0 min 0 W/m² -3,7 °C -2,3 °C 14,5 km/h (3 Bft)
21.01.2024 16:53 22,1 °C 1,8 °C 43 % 67 % 1024,3 hPa 0,0 l/m² 14,1 km/h (3 Bft) S 178 ° 0 min 0 W/m² -3,7 °C -4,3 °C 19,3 km/h (3 Bft)
21.01.2024 16:55 22,2 °C 1,8 °C 43 % 67 % 1024,4 hPa 0,0 l/m² 11,2 km/h (2 Bft) S 191 ° 0 min 0 W/m² -3,7 °C -2,4 °C 14,5 km/h (3 Bft)
21.01.2024 16:57 22,2 °C 1,7 °C 43 % 68 % 1024,3 hPa 0,0 l/m² 10,3 km/h (2 Bft) S 182 ° 0 min 0 W/m² -3,6 °C -1,8 °C 12,9 km/h (3 Bft)
21.01.2024 16:59 22,2 °C 1,7 °C 43 % 68 % 1024,3 hPa 0,0 l/m² 12,2 km/h (2 Bft) S 181 ° 0 min 0 W/m² -3,6 °C -3,2 °C 19,3 km/h (3 Bft)
21.01.2024 17:01 22,2 °C 1,7 °C 43 % 67 % 1024,2 hPa 0,0 l/m² 11,7 km/h (2 Bft) S 173 ° 0 min 0 W/m² -3,8 °C -2,8 °C 17,7 km/h (3 Bft)
21.01.2024 17:02 22,2 °C 1,8 °C 43 % 67 % 1024,2 hPa 0,0 l/m² 13,9 km/h (3 Bft) S 169 ° 0 min 0 W/m² -3,7 °C -4,2 °C 17,7 km/h (3 Bft)
21.01.2024 17:03 22,2 °C 1,8 °C 43 % 67 % 1024,2 hPa 0,0 l/m² 15,3 km/h (3 Bft) S-SO 149 ° 0 min 0 W/m² -3,7 °C -5,0 °C 17,7 km/h (3 Bft)
21.01.2024 17:05 22,2 °C 1,8 °C 43 % 67 % 1024,2 hPa 0,0 l/m² 13,1 km/h (3 Bft) S 176 ° 0 min 0 W/m² -3,7 °C -3,7 °C 19,3 km/h (3 Bft)
21.01.2024 17:07 22,2 °C 1,8 °C 43 % 67 % 1024,1 hPa 0,0 l/m² 12,2 km/h (2 Bft) S 169 ° 0 min 0 W/m² -3,7 °C -3,1 °C 16,1 km/h (3 Bft)
21.01.2024 17:09 22,2 °C 1,8 °C 43 % 67 % 1024,1 hPa 0,0 l/m² 10,1 km/h (2 Bft) S-SO 161 ° 0 min 0 W/m² -3,7 °C -1,5 °C 14,5 km/h (3 Bft)
21.01.2024 17:11 22,3 °C 1,8 °C 43 % 66 % 1024,2 hPa 0,0 l/m² 8,3 km/h (2 Bft) S-SO 165 ° 0 min 0 W/m² -3,9 °C -0,0 °C 11,3 km/h (2 Bft)
21.01.2024 17:12 22,3 °C 1,8 °C 43 % 66 % 1024,2 hPa 0,0 l/m² 8,2 km/h (2 Bft) S-SO 166 ° 0 min 0 W/m² -3,9 °C 0,1 °C 9,7 km/h (2 Bft)
21.01.2024 17:13 22,3 °C 1,7 °C 43 % 66 % 1024,2 hPa 0,0 l/m² 5,9 km/h (2 Bft) S-SO 166 ° 0 min 0 W/m² -4,0 °C 1,7 °C 9,7 km/h (2 Bft)
21.01.2024 17:15 22,3 °C 1,7 °C 43 % 67 % 1024,2 hPa 0,0 l/m² 4,9 km/h (1 Bft) S-SO 166 ° 0 min 0 W/m² -3,8 °C 1,7 °C 8,0 km/h (2 Bft)
21.01.2024 17:17 22,3 °C 1,6 °C 43 % 67 % 1024,3 hPa 0,0 l/m² 6,8 km/h (2 Bft) S 172 ° 0 min 0 W/m² -3,9 °C 1,2 °C 12,9 km/h (3 Bft)
21.01.2024 17:19 22,3 °C 1,5 °C 43 % 66 % 1024,2 hPa 0,0 l/m² 4,5 km/h (1 Bft) S-SW 199 ° 0 min 0 W/m² -4,1 °C 1,5 °C 11,3 km/h (2 Bft)
21.01.2024 17:21 22,3 °C 1,5 °C 43 % 66 % 1024,4 hPa 0,0 l/m² 4,8 km/h (1 Bft) S 185 ° 0 min 0 W/m² -4,1 °C 1,5 °C 9,7 km/h (2 Bft)
21.01.2024 17:22 22,3 °C 1,5 °C 43 % 66 % 1024,4 hPa 0,0 l/m² 4,6 km/h (1 Bft) S 185 ° 0 min 0 W/m² -4,1 °C 1,5 °C 6,4 km/h (2 Bft)
21.01.2024 17:23 22,3 °C 1,4 °C 44 % 66 % 1024,4 hPa 0,0 l/m² 1,6 km/h (1 Bft) S 185 ° 0 min 0 W/m² -4,2 °C 1,4 °C 3,2 km/h (1 Bft)
21.01.2024 17:25 22,3 °C 1,4 °C 44 % 66 % 1024,3 hPa 0,0 l/m² 1,4 km/h (1 Bft) S 185 ° 0 min 0 W/m² -4,2 °C 1,4 °C 3,2 km/h (1 Bft)
21.01.2024 17:27 22,3 °C 1,4 °C 44 % 66 % 1024,6 hPa 0,0 l/m² 4,1 km/h (1 Bft) S 191 ° 0 min 0 W/m² -4,2 °C 1,4 °C 8,0 km/h (2 Bft)
21.01.2024 17:29 22,3 °C 1,4 °C 44 % 65 % 1024,5 hPa 0,0 l/m² 3,2 km/h (1 Bft) W-SW 252 ° 0 min 0 W/m² -4,4 °C 1,4 °C 8,0 km/h (2 Bft)
21.01.2024 17:31 22,3 °C 1,4 °C 43 % 65 % 1024,4 hPa 0,0 l/m² 4,4 km/h (1 Bft) S-SW 194 ° 0 min 0 W/m² -4,4 °C 1,4 °C 8,0 km/h (2 Bft)
21.01.2024 17:32 22,3 °C 1,4 °C 43 % 65 % 1024,4 hPa 0,0 l/m² 13,7 km/h (3 Bft) S 178 ° 0 min 0 W/m² -4,4 °C -4,5 °C 17,7 km/h (3 Bft)
21.01.2024 17:33 22,3 °C 1,4 °C 42 % 65 % 1024,3 hPa 0,0 l/m² 11,4 km/h (2 Bft) S 186 ° 0 min 0 W/m² -4,4 °C -3,0 °C 14,5 km/h (3 Bft)
21.01.2024 17:35 22,3 °C 1,5 °C 42 % 65 % 1024,3 hPa 0,0 l/m² 15,7 km/h (3 Bft) S 176 ° 0 min 0 W/m² -4,3 °C -5,6 °C 22,5 km/h (4 Bft)
21.01.2024 17:37 22,2 °C 1,6 °C 42 % 65 % 1024,3 hPa 0,0 l/m² 10,6 km/h (2 Bft) S 181 ° 0 min 0 W/m² -4,3 °C -2,1 °C 17,7 km/h (3 Bft)
21.01.2024 17:39 22,2 °C 1,7 °C 43 % 65 % 1024,3 hPa 0,0 l/m² 17,2 km/h (3 Bft) S-SW 206 ° 0 min 0 W/m² -4,2 °C -6,1 °C 25,7 km/h (4 Bft)
21.01.2024 17:41 22,2 °C 1,6 °C 43 % 65 % 1024,3 hPa 0,0 l/m² 11,3 km/h (2 Bft) S-SW 198 ° 0 min 0 W/m² -4,3 °C -2,7 °C 16,1 km/h (3 Bft)
21.01.2024 17:42 22,2 °C 1,6 °C 43 % 65 % 1024,3 hPa 0,0 l/m² 13,9 km/h (3 Bft) S-SW 211 ° 0 min 0 W/m² -4,3 °C -4,4 °C 19,3 km/h (3 Bft)
21.01.2024 17:43 22,2 °C 1,6 °C 43 % 65 % 1024,3 hPa 0,0 l/m² 17,1 km/h (3 Bft) S-SW 198 ° 0 min 0 W/m² -4,3 °C -6,2 °C 20,9 km/h (4 Bft)
21.01.2024 17:45 22,2 °C 1,6 °C 43 % 65 % 1024,3 hPa 0,0 l/m² 17,5 km/h (3 Bft) S-SW 207 ° 0 min 0 W/m² -4,3 °C -6,4 °C 22,5 km/h (4 Bft)
21.01.2024 17:47 22,2 °C 1,6 °C 43 % 66 % 1024,2 hPa 0,0 l/m² 16,2 km/h (3 Bft) S-SW 199 ° 0 min 0 W/m² -4,1 °C -5,7 °C 22,5 km/h (4 Bft)
21.01.2024 17:49 22,2 °C 1,6 °C 43 % 66 % 1024,2 hPa 0,0 l/m² 21,0 km/h (4 Bft) S-SW 199 ° 0 min 0 W/m² -4,1 °C -8,0 °C 27,4 km/h (5 Bft)
21.01.2024 17:51 22,1 °C 1,6 °C 43 % 66 % 1024,3 hPa 0,0 l/m² 17,0 km/h (3 Bft) S-SW 203 ° 0 min 0 W/m² -4,1 °C -6,1 °C 22,5 km/h (4 Bft)
21.01.2024 17:52 22,1 °C 1,5 °C 43 % 66 % 1024,3 hPa 0,0 l/m² 12,7 km/h (3 Bft) S-SW 204 ° 0 min 0 W/m² -4,1 °C -3,7 °C 16,1 km/h (3 Bft)
21.01.2024 17:53 22,1 °C 1,4 °C 43 % 67 % 1024,2 hPa 0,0 l/m² 12,3 km/h (2 Bft) S-SW 209 ° 0 min 0 W/m² -4,0 °C -3,6 °C 16,1 km/h (3 Bft)
21.01.2024 17:55 22,1 °C 1,4 °C 43 % 67 % 1024,1 hPa 0,0 l/m² 13,5 km/h (3 Bft) S-SW 207 ° 0 min 0 W/m² -4,0 °C -4,4 °C 17,7 km/h (3 Bft)
21.01.2024 17:57 22,1 °C 1,3 °C 43 % 67 % 1024,3 hPa 0,0 l/m² 14,3 km/h (3 Bft) S-SW 213 ° 0 min 0 W/m² -4,1 °C -5,0 °C 19,3 km/h (3 Bft)
21.01.2024 17:59 22,1 °C 1,3 °C 43 % 67 % 1024,3 hPa 0,0 l/m² 15,9 km/h (3 Bft) SW 215 ° 0 min 0 W/m² -4,1 °C -5,9 °C 19,3 km/h (3 Bft)
21.01.2024 18:01 22,0 °C 1,3 °C 43 % 68 % 1024,2 hPa 0,0 l/m² 14,0 km/h (3 Bft) S-SW 201 ° 0 min 0 W/m² -3,9 °C -4,8 °C 17,7 km/h (3 Bft)
21.01.2024 18:02 22,0 °C 1,3 °C 43 % 68 % 1024,2 hPa 0,0 l/m² 13,1 km/h (3 Bft) S-SW 195 ° 0 min 0 W/m² -3,9 °C -4,2 °C 19,3 km/h (3 Bft)
21.01.2024 18:03 22,1 °C 1,3 °C 43 % 68 % 1024,2 hPa 0,0 l/m² 15,8 km/h (3 Bft) S-SW 200 ° 0 min 0 W/m² -3,9 °C -5,9 °C 19,3 km/h (3 Bft)
21.01.2024 18:05 22,0 °C 1,2 °C 44 % 68 % 1024,3 hPa 0,0 l/m² 11,4 km/h (2 Bft) S-SW 211 ° 0 min 0 W/m² -4,0 °C -3,2 °C 14,5 km/h (3 Bft)
21.01.2024 18:07 22,0 °C 1,2 °C 44 % 68 % 1024,3 hPa 0,0 l/m² 10,3 km/h (2 Bft) S-SW 209 ° 0 min 0 W/m² -4,0 °C -2,4 °C 14,5 km/h (3 Bft)
21.01.2024 18:09 22,0 °C 1,1 °C 44 % 68 % 1024,3 hPa 0,0 l/m² 6,7 km/h (2 Bft) S-SW 209 ° 0 min 0 W/m² -4,1 °C 0,8 °C 11,3 km/h (2 Bft)
21.01.2024 18:11 22,0 °C 1,1 °C 44 % 68 % 1024,3 hPa 0,0 l/m² 6,8 km/h (2 Bft) SW 225 ° 0 min 0 W/m² -4,1 °C 0,7 °C 11,3 km/h (2 Bft)
21.01.2024 18:13 22,0 °C 1,1 °C 44 % 68 % 1024,2 hPa 0,0 l/m² 4,6 km/h (1 Bft) SW 225 ° 0 min 0 W/m² -4,1 °C 1,1 °C 6,4 km/h (2 Bft)
21.01.2024 18:14 21,9 °C 1,1 °C 44 % 68 % 1024,2 hPa 0,0 l/m² 3,8 km/h (1 Bft) SW 221 ° 0 min 0 W/m² -4,1 °C 1,1 °C 6,4 km/h (2 Bft)
21.01.2024 18:15 21,9 °C 1,1 °C 44 % 68 % 1024,2 hPa 0,0 l/m² 0,8 km/h (0 Bft) SW 221 ° 0 min 0 W/m² -4,1 °C 1,1 °C 1,6 km/h (1 Bft)
21.01.2024 18:17 21,9 °C 1,1 °C 44 % 68 % 1024,2 hPa 0,0 l/m² 3,0 km/h (1 Bft) S-SW 205 ° 0 min 0 W/m² -4,1 °C 1,1 °C 6,4 km/h (2 Bft)
21.01.2024 18:18 21,9 °C 1,1 °C 44 % 68 % 1024,2 hPa 0,0 l/m² 2,9 km/h (1 Bft) S-SW 205 ° 0 min 0 W/m² -4,1 °C 1,1 °C 4,8 km/h (1 Bft)
21.01.2024 18:20 21,9 °C 0,9 °C 44 % 68 % 1024,2 hPa 0,0 l/m² 2,6 km/h (1 Bft) S-SW 205 ° 0 min 0 W/m² -4,3 °C 0,9 °C 6,4 km/h (2 Bft)
21.01.2024 18:22 21,9 °C 0,8 °C 44 % 69 % 1024,2 hPa 0,0 l/m² 0,3 km/h (0 Bft) S-SW 205 ° 0 min 0 W/m² -4,2 °C 0,8 °C 1,6 km/h (1 Bft)
21.01.2024 18:23 21,9 °C 0,8 °C 44 % 69 % 1024,2 hPa 0,0 l/m² 0,8 km/h (0 Bft) S-SW 205 ° 0 min 0 W/m² -4,2 °C 0,8 °C 1,6 km/h (1 Bft)
21.01.2024 18:24 21,9 °C 0,8 °C 44 % 69 % 1024,3 hPa 0,0 l/m² 0,3 km/h (0 Bft) S-SW 205 ° 0 min 0 W/m² -4,2 °C 0,8 °C 1,6 km/h (1 Bft)
21.01.2024 18:26 21,9 °C 0,8 °C 44 % 69 % 1024,2 hPa 0,0 l/m² 1,0 km/h (0 Bft) S-SW 205 ° 0 min 0 W/m² -4,2 °C 0,8 °C 3,2 km/h (1 Bft)
21.01.2024 18:28 21,9 °C 0,8 °C 44 % 69 % 1024,1 hPa 0,0 l/m² 1,5 km/h (1 Bft) S-SW 205 ° 0 min 0 W/m² -4,2 °C 0,8 °C 3,2 km/h (1 Bft)
21.01.2024 18:30 21,9 °C 1,0 °C 44 % 69 % 1024,2 hPa 0,0 l/m² 3,2 km/h (1 Bft) S-SW 205 ° 0 min 0 W/m² -4,0 °C 1,0 °C 8,0 km/h (2 Bft)
21.01.2024 18:32 21,9 °C 1,2 °C 44 % 69 % 1024,2 hPa 0,0 l/m² 5,7 km/h (2 Bft) S 186 ° 0 min 0 W/m² -3,8 °C 1,2 °C 8,0 km/h (2 Bft)
21.01.2024 18:33 21,9 °C 1,2 °C 44 % 69 % 1024,2 hPa 0,0 l/m² 5,7 km/h (2 Bft) S 180 ° 0 min 0 W/m² -3,8 °C 1,2 °C 6,4 km/h (2 Bft)
21.01.2024 18:34 21,8 °C 1,3 °C 44 % 69 % 1024,2 hPa 0,0 l/m² 5,9 km/h (2 Bft) S 177 ° 0 min 0 W/m² -3,7 °C 1,3 °C 8,0 km/h (2 Bft)
21.01.2024 18:36 21,9 °C 1,4 °C 44 % 69 % 1024,2 hPa 0,0 l/m² 9,7 km/h (2 Bft) S 177 ° 0 min 0 W/m² -3,7 °C -1,7 °C 14,5 km/h (3 Bft)
21.01.2024 18:38 21,8 °C 1,4 °C 44 % 69 % 1024,1 hPa 0,0 l/m² 7,7 km/h (2 Bft) S 172 ° 0 min 0 W/m² -3,7 °C 0,1 °C 11,3 km/h (2 Bft)
21.01.2024 18:40 21,8 °C 1,4 °C 44 % 69 % 1024,2 hPa 0,0 l/m² 8,7 km/h (2 Bft) S 169 ° 0 min 0 W/m² -3,7 °C -0,8 °C 12,9 km/h (3 Bft)
21.01.2024 18:42 21,8 °C 1,4 °C 44 % 69 % 1024,1 hPa 0,0 l/m² 10,0 km/h (2 Bft) S 171 ° 0 min 0 W/m² -3,7 °C -1,9 °C 19,3 km/h (3 Bft)
21.01.2024 18:43 21,8 °C 1,4 °C 44 % 69 % 1024,1 hPa 0,0 l/m² 9,9 km/h (2 Bft) S 177 ° 0 min 0 W/m² -3,7 °C -1,8 °C 14,5 km/h (3 Bft)
21.01.2024 18:45 21,8 °C 1,4 °C 44 % 69 % 1024,0 hPa 0,0 l/m² 8,7 km/h (2 Bft) S 172 ° 0 min 0 W/m² -3,7 °C -0,8 °C 14,5 km/h (3 Bft)
21.01.2024 18:47 21,8 °C 1,6 °C 44 % 68 % 1023,9 hPa 0,0 l/m² 12,2 km/h (2 Bft) S-SW 209 ° 0 min 0 W/m² -3,7 °C -3,3 °C 17,7 km/h (3 Bft)
21.01.2024 18:49 21,8 °C 1,6 °C 44 % 68 % 1024,0 hPa 0,0 l/m² 10,4 km/h (2 Bft) S-SW 192 ° 0 min 0 W/m² -3,7 °C -2,0 °C 16,1 km/h (3 Bft)
21.01.2024 18:51 21,8 °C 1,7 °C 45 % 68 % 1023,9 hPa 0,0 l/m² 12,0 km/h (2 Bft) S 170 ° 0 min 0 W/m² -3,6 °C -3,0 °C 16,1 km/h (3 Bft)
21.01.2024 18:52 21,8 °C 1,7 °C 45 % 68 % 1023,9 hPa 0,0 l/m² 8,0 km/h (2 Bft) S-SO 163 ° 0 min 0 W/m² -3,6 °C 0,1 °C 9,7 km/h (2 Bft)
21.01.2024 18:53 21,8 °C 1,8 °C 45 % 67 % 1024,0 hPa 0,0 l/m² 10,8 km/h (2 Bft) S-SO 153 ° 0 min 0 W/m² -3,7 °C -2,1 °C 16,1 km/h (3 Bft)
21.01.2024 18:55 21,8 °C 1,8 °C 45 % 68 % 1023,9 hPa 0,0 l/m² 13,5 km/h (3 Bft) S 171 ° 0 min 0 W/m² -3,5 °C -3,9 °C 20,9 km/h (4 Bft)
21.01.2024 18:57 21,8 °C 1,8 °C 45 % 68 % 1023,9 hPa 0,0 l/m² 12,1 km/h (2 Bft) S-SO 165 ° 0 min 0 W/m² -3,5 °C -3,0 °C 17,7 km/h (3 Bft)
21.01.2024 18:59 21,8 °C 1,9 °C 45 % 68 % 1023,9 hPa 0,0 l/m² 13,0 km/h (3 Bft) S-SO 159 ° 0 min 0 W/m² -3,4 °C -3,5 °C 19,3 km/h (3 Bft)
21.01.2024 19:01 21,8 °C 1,9 °C 45 % 68 % 1023,8 hPa 0,0 l/m² 14,1 km/h (3 Bft) S-SW 194 ° 0 min 0 W/m² -3,4 °C -4,2 °C 19,3 km/h (3 Bft)
21.01.2024 19:02 21,8 °C 1,9 °C 45 % 68 % 1023,8 hPa 0,0 l/m² 11,1 km/h (2 Bft) S 170 ° 0 min 0 W/m² -3,4 °C -2,2 °C 17,7 km/h (3 Bft)
21.01.2024 19:03 21,8 °C 1,9 °C 45 % 68 % 1023,9 hPa 0,0 l/m² 11,2 km/h (2 Bft) S 171 ° 0 min 0 W/m² -3,4 °C -2,3 °C 16,1 km/h (3 Bft)
21.01.2024 19:05 21,8 °C 2,0 °C 45 % 68 % 1023,9 hPa 0,0 l/m² 12,4 km/h (2 Bft) S-SO 161 ° 0 min 0 W/m² -3,3 °C -3,0 °C 19,3 km/h (3 Bft)
21.01.2024 19:07 21,8 °C 2,0 °C 45 % 68 % 1023,9 hPa 0,0 l/m² 15,3 km/h (3 Bft) S 181 ° 0 min 0 W/m² -3,3 °C -4,7 °C 20,9 km/h (4 Bft)
21.01.2024 19:08 21,8 °C 2,0 °C 45 % 68 % 1023,9 hPa 0,0 l/m² 16,3 km/h (3 Bft) S 182 ° 0 min 0 W/m² -3,3 °C -5,3 °C 20,9 km/h (4 Bft)
21.01.2024 19:09 21,8 °C 2,0 °C 45 % 68 % 1023,8 hPa 0,0 l/m² 20,1 km/h (4 Bft) S 169 ° 0 min 0 W/m² -3,3 °C -7,1 °C 27,4 km/h (5 Bft)
21.01.2024 19:10 21,8 °C 2,0 °C 45 % 68 % 1023,8 hPa 0,0 l/m² 18,8 km/h (3 Bft) S 172 ° 0 min 0 W/m² -3,3 °C -6,5 °C 22,5 km/h (4 Bft)
21.01.2024 19:12 21,8 °C 2,1 °C 45 % 69 % 1023,8 hPa 0,0 l/m² 16,3 km/h (3 Bft) S-SW 194 ° 0 min 0 W/m² -3,0 °C -5,1 °C 22,5 km/h (4 Bft)
21.01.2024 19:13 21,8 °C 2,1 °C 45 % 69 % 1023,8 hPa 0,0 l/m² 20,4 km/h (4 Bft) S-SO 165 ° 0 min 0 W/m² -3,0 °C -7,1 °C 27,4 km/h (5 Bft)
21.01.2024 19:14 21,8 °C 2,1 °C 45 % 69 % 1023,8 hPa 0,0 l/m² 18,6 km/h (3 Bft) S-SW 196 ° 0 min 0 W/m² -3,0 °C -6,3 °C 20,9 km/h (4 Bft)
21.01.2024 19:16 21,8 °C 2,0 °C 45 % 69 % 1023,8 hPa 0,0 l/m² 18,0 km/h (3 Bft) S-SW 206 ° 0 min 0 W/m² -3,1 °C -6,1 °C 24,1 km/h (4 Bft)
21.01.2024 19:18 21,8 °C 2,1 °C 45 % 69 % 1023,9 hPa 0,0 l/m² 22,5 km/h (4 Bft) S 174 ° 0 min 0 W/m² -3,0 °C -8,0 °C 30,6 km/h (5 Bft)
21.01.2024 19:20 21,8 °C 2,0 °C 45 % 70 % 1023,9 hPa 0,0 l/m² 18,4 km/h (3 Bft) S 178 ° 0 min 0 W/m² -2,9 °C -6,3 °C 33,8 km/h (5 Bft)
21.01.2024 19:22 21,8 °C 2,1 °C 45 % 70 % 1023,9 hPa 0,0 l/m² 23,8 km/h (4 Bft) S 184 ° 0 min 0 W/m² -2,8 °C -8,4 °C 30,6 km/h (5 Bft)
21.01.2024 19:23 21,8 °C 2,1 °C 45 % 70 % 1023,9 hPa 0,0 l/m² 20,8 km/h (4 Bft) S-SW 193 ° 0 min 0 W/m² -2,8 °C -7,3 °C 25,7 km/h (4 Bft)
21.01.2024 19:24 21,8 °C 2,1 °C 45 % 70 % 1024,0 hPa 0,0 l/m² 23,3 km/h (4 Bft) S 190 ° 0 min 0 W/m² -2,8 °C -8,3 °C 29,0 km/h (5 Bft)
21.01.2024 19:26 21,8 °C 2,1 °C 45 % 70 % 1024,0 hPa 0,0 l/m² 20,5 km/h (4 Bft) S 186 ° 0 min 0 W/m² -2,8 °C -7,1 °C 29,0 km/h (5 Bft)
21.01.2024 19:28 21,8 °C 2,1 °C 45 % 71 % 1023,9 hPa 0,0 l/m² 19,2 km/h (3 Bft) S 182 ° 0 min 0 W/m² -2,6 °C -6,6 °C 29,0 km/h (5 Bft)
21.01.2024 19:30 21,8 °C 2,1 °C 45 % 70 % 1023,9 hPa 0,0 l/m² 20,4 km/h (4 Bft) S 183 ° 0 min 0 W/m² -2,8 °C -7,1 °C 25,7 km/h (4 Bft)
21.01.2024 19:32 21,8 °C 2,1 °C 45 % 71 % 1023,8 hPa 0,0 l/m² 22,0 km/h (4 Bft) S 181 ° 0 min 0 W/m² -2,6 °C -7,8 °C 30,6 km/h (5 Bft)
21.01.2024 19:33 21,8 °C 2,2 °C 45 % 71 % 1023,8 hPa 0,0 l/m² 20,2 km/h (4 Bft) S-SW 194 ° 0 min 0 W/m² -2,5 °C -6,9 °C 25,7 km/h (4 Bft)
21.01.2024 19:34 21,8 °C 2,2 °C 45 % 71 % 1023,9 hPa 0,0 l/m² 24,0 km/h (4 Bft) S-SW 200 ° 0 min 0 W/m² -2,5 °C -8,4 °C 32,2 km/h (5 Bft)
21.01.2024 19:36 21,8 °C 2,2 °C 45 % 71 % 1023,9 hPa 0,0 l/m² 22,3 km/h (4 Bft) S 175 ° 0 min 0 W/m² -2,5 °C -7,7 °C 32,2 km/h (5 Bft)
21.01.2024 19:38 21,8 °C 2,2 °C 45 % 71 % 1023,8 hPa 0,0 l/m² 25,4 km/h (4 Bft) S 181 ° 0 min 0 W/m² -2,5 °C -8,9 °C 35,4 km/h (5 Bft)
21.01.2024 19:40 21,8 °C 2,2 °C 45 % 70 % 1023,7 hPa 0,0 l/m² 28,3 km/h (5 Bft) S 171 ° 0 min 0 W/m² -2,7 °C -9,8 °C 35,4 km/h (5 Bft)
21.01.2024 19:42 21,8 °C 2,2 °C 45 % 70 % 1023,6 hPa 0,0 l/m² 28,4 km/h (5 Bft) S 182 ° 0 min 0 W/m² -2,7 °C -9,8 °C 37,0 km/h (5 Bft)
21.01.2024 19:43 21,8 °C 2,2 °C 45 % 70 % 1023,6 hPa 0,0 l/m² 27,2 km/h (5 Bft) S 178 ° 0 min 0 W/m² -2,7 °C -9,5 °C 33,8 km/h (5 Bft)
21.01.2024 19:44 21,8 °C 2,2 °C 45 % 70 % 1023,5 hPa 0,0 l/m² 25,5 km/h (4 Bft) S-SW 198 ° 0 min 0 W/m² -2,7 °C -8,9 °C 32,2 km/h (5 Bft)
21.01.2024 19:46 21,8 °C 2,3 °C 46 % 70 % 1023,4 hPa 0,0 l/m² 29,3 km/h (5 Bft) S 187 ° 0 min 0 W/m² -2,6 °C -10,0 °C 43,5 km/h (6 Bft)
21.01.2024 19:48 21,8 °C 2,3 °C 46 % 70 % 1023,6 hPa 0,0 l/m² 28,4 km/h (5 Bft) S 185 ° 0 min 0 W/m² -2,6 °C -9,7 °C 37,0 km/h (5 Bft)
21.01.2024 19:50 21,8 °C 2,3 °C 47 % 70 % 1023,4 hPa 0,0 l/m² 28,3 km/h (5 Bft) S 188 ° 0 min 0 W/m² -2,6 °C -9,7 °C 38,6 km/h (6 Bft)
21.01.2024 19:52 21,8 °C 2,3 °C 48 % 70 % 1023,3 hPa 0,0 l/m² 31,5 km/h (5 Bft) S 173 ° 0 min 0 W/m² -2,6 °C -10,6 °C 43,5 km/h (6 Bft)
21.01.2024 19:53 21,8 °C 2,3 °C 48 % 70 % 1023,3 hPa 0,0 l/m² 29,2 km/h (5 Bft) S 188 ° 0 min 0 W/m² -2,6 °C -9,9 °C 41,8 km/h (6 Bft)
21.01.2024 19:54 21,8 °C 2,3 °C 48 % 70 % 1023,4 hPa 0,0 l/m² 24,7 km/h (4 Bft) S 178 ° 0 min 0 W/m² -2,6 °C -8,5 °C 33,8 km/h (5 Bft)
21.01.2024 19:56 21,8 °C 2,3 °C 48 % 71 % 1023,4 hPa 0,0 l/m² 26,6 km/h (4 Bft) S 183 ° 0 min 0 W/m² -2,4 °C -9,1 °C 35,4 km/h (5 Bft)
21.01.2024 19:58 21,8 °C 2,3 °C 48 % 71 % 1023,3 hPa 0,0 l/m² 27,1 km/h (5 Bft) S-SW 193 ° 0 min 0 W/m² -2,4 °C -9,3 °C 38,6 km/h (6 Bft)
21.01.2024 20:00 21,8 °C 2,3 °C 49 % 71 % 1023,1 hPa 0,0 l/m² 28,7 km/h (5 Bft) S 172 ° 0 min 0 W/m² -2,4 °C -9,8 °C 38,6 km/h (6 Bft)
21.01.2024 20:02 21,8 °C 2,3 °C 49 % 71 % 1023,1 hPa 0,0 l/m² 27,7 km/h (5 Bft) S 170 ° 0 min 0 W/m² -2,4 °C -9,5 °C 37,0 km/h (5 Bft)
21.01.2024 20:03 21,8 °C 2,3 °C 49 % 71 % 1023,1 hPa 0,0 l/m² 26,0 km/h (4 Bft) S-SO 158 ° 0 min 0 W/m² -2,4 °C -8,9 °C 37,0 km/h (5 Bft)
21.01.2024 20:04 21,8 °C 2,3 °C 49 % 71 % 1023,2 hPa 0,0 l/m² 26,9 km/h (4 Bft) S-SO 168 ° 0 min 0 W/m² -2,4 °C -9,2 °C 33,8 km/h (5 Bft)
21.01.2024 20:06 21,8 °C 2,3 °C 49 % 71 % 1023,4 hPa 0,0 l/m² 21,6 km/h (4 Bft) S-SO 157 ° 0 min 0 W/m² -2,4 °C -7,3 °C 32,2 km/h (5 Bft)
21.01.2024 20:08 21,8 °C 2,3 °C 47 % 71 % 1023,5 hPa 0,0 l/m² 17,6 km/h (3 Bft) S-SO 155 ° 0 min 0 W/m² -2,4 °C -5,6 °C 27,4 km/h (5 Bft)
21.01.2024 20:10 21,8 °C 2,3 °C 47 % 71 % 1023,7 hPa 0,0 l/m² 16,1 km/h (3 Bft) S-SO 157 ° 0 min 0 W/m² -2,4 °C -4,8 °C 22,5 km/h (4 Bft)
21.01.2024 20:12 21,8 °C 2,3 °C 47 % 71 % 1024,2 hPa 0,0 l/m² 11,4 km/h (2 Bft) S 173 ° 0 min 0 W/m² -2,4 °C -1,9 °C 17,7 km/h (3 Bft)
21.01.2024 20:13 21,8 °C 2,3 °C 47 % 72 % 1024,2 hPa 0,0 l/m² 11,8 km/h (2 Bft) S 175 ° 0 min 0 W/m² -2,2 °C -2,2 °C 17,7 km/h (3 Bft)
21.01.2024 20:14 21,8 °C 2,3 °C 47 % 72 % 1024,2 hPa 0,0 l/m² 7,6 km/h (2 Bft) S-SO 165 ° 0 min 0 W/m² -2,2 °C 1,1 °C 14,5 km/h (3 Bft)
21.01.2024 20:16 21,8 °C 2,3 °C 47 % 72 % 1024,0 hPa 0,0 l/m² 6,8 km/h (2 Bft) S-SO 149 ° 0 min 0 W/m² -2,2 °C 1,9 °C 11,3 km/h (2 Bft)
21.01.2024 20:18 21,8 °C 2,3 °C 47 % 72 % 1023,8 hPa 0,0 l/m² 10,4 km/h (2 Bft) S 177 ° 0 min 0 W/m² -2,2 °C -1,2 °C 17,7 km/h (3 Bft)
21.01.2024 20:20 21,8 °C 2,4 °C 47 % 72 % 1023,7 hPa 0,0 l/m² 17,6 km/h (3 Bft) S-SO 165 ° 0 min 0 W/m² -2,1 °C -5,4 °C 25,7 km/h (4 Bft)
21.01.2024 20:22 21,8 °C 2,4 °C 47 % 72 % 1023,7 hPa 0,0 l/m² 16,7 km/h (3 Bft) S-SO 167 ° 0 min 0 W/m² -2,1 °C -5,0 °C 30,6 km/h (5 Bft)
21.01.2024 20:23 21,8 °C 2,4 °C 47 % 72 % 1023,7 hPa 0,0 l/m² 19,9 km/h (4 Bft) S 169 ° 0 min 0 W/m² -2,1 °C -6,5 °C 29,0 km/h (5 Bft)
21.01.2024 20:24 21,8 °C 2,5 °C 47 % 72 % 1023,5 hPa 0,0 l/m² 18,2 km/h (3 Bft) S-SO 152 ° 0 min 0 W/m² -2,0 °C -5,6 °C 20,9 km/h (4 Bft)
21.01.2024 20:26 21,8 °C 2,5 °C 47 % 72 % 1023,3 hPa 0,0 l/m² 21,4 km/h (4 Bft) S-SO 167 ° 0 min 0 W/m² -2,0 °C -7,0 °C 30,6 km/h (5 Bft)
21.01.2024 20:28 21,8 °C 2,5 °C 47 % 73 % 1023,2 hPa 0,0 l/m² 21,3 km/h (4 Bft) S 181 ° 0 min 0 W/m² -1,8 °C -6,9 °C 32,2 km/h (5 Bft)
21.01.2024 20:30 21,8 °C 2,5 °C 47 % 73 % 1023,0 hPa 0,0 l/m² 23,2 km/h (4 Bft) S 172 ° 0 min 0 W/m² -1,8 °C -7,7 °C 32,2 km/h (5 Bft)
21.01.2024 20:32 21,8 °C 2,6 °C 47 % 73 % 1023,0 hPa 0,0 l/m² 21,8 km/h (4 Bft) S-SO 163 ° 0 min 0 W/m² -1,7 °C -7,0 °C 32,2 km/h (5 Bft)
21.01.2024 20:33 21,8 °C 2,6 °C 47 % 73 % 1023,0 hPa 0,0 l/m² 25,1 km/h (4 Bft) S 173 ° 0 min 0 W/m² -1,7 °C -8,2 °C 32,2 km/h (5 Bft)
21.01.2024 20:34 21,8 °C 2,5 °C 47 % 73 % 1023,0 hPa 0,0 l/m² 25,3 km/h (4 Bft) S-SO 153 ° 0 min 0 W/m² -1,8 °C -8,4 °C 29,0 km/h (5 Bft)
21.01.2024 20:36 21,8 °C 2,5 °C 46 % 73 % 1022,8 hPa 0,0 l/m² 23,9 km/h (4 Bft) S 175 ° 0 min 0 W/m² -1,8 °C -7,9 °C 40,2 km/h (6 Bft)
21.01.2024 20:38 21,8 °C 2,5 °C 46 % 73 % 1022,8 hPa 0,0 l/m² 24,0 km/h (4 Bft) S-SO 165 ° 0 min 0 W/m² -1,8 °C -8,0 °C 33,8 km/h (5 Bft)
21.01.2024 20:40 21,8 °C 2,4 °C 46 % 74 % 1022,9 hPa 0,0 l/m² 20,1 km/h (4 Bft) S-SO 156 ° 0 min 0 W/m² -1,7 °C -6,6 °C 27,4 km/h (5 Bft)
21.01.2024 20:42 21,8 °C 2,4 °C 46 % 74 % 1023,1 hPa 0,0 l/m² 21,9 km/h (4 Bft) S 174 ° 0 min 0 W/m² -1,7 °C -7,3 °C 29,0 km/h (5 Bft)
21.01.2024 20:43 21,8 °C 2,4 °C 46 % 74 % 1023,1 hPa 0,0 l/m² 22,1 km/h (4 Bft) S-SO 164 ° 0 min 0 W/m² -1,7 °C -7,4 °C 29,0 km/h (5 Bft)
21.01.2024 20:44 21,8 °C 2,4 °C 46 % 74 % 1023,2 hPa 0,0 l/m² 19,0 km/h (3 Bft) S 183 ° 0 min 0 W/m² -1,7 °C -6,1 °C 29,0 km/h (5 Bft)
21.01.2024 20:46 21,8 °C 2,5 °C 46 % 74 % 1023,3 hPa 0,0 l/m² 15,8 km/h (3 Bft) S 179 ° 0 min 0 W/m² -1,7 °C -4,4 °C 22,5 km/h (4 Bft)
21.01.2024 20:48 21,8 °C 2,4 °C 46 % 74 % 1023,3 hPa 0,0 l/m² 14,4 km/h (3 Bft) S 182 ° 0 min 0 W/m² -1,7 °C -3,7 °C 19,3 km/h (3 Bft)
21.01.2024 20:50 21,9 °C 2,4 °C 46 % 74 % 1023,3 hPa 0,0 l/m² 16,8 km/h (3 Bft) S-SW 201 ° 0 min 0 W/m² -1,7 °C -5,0 °C 22,5 km/h (4 Bft)
21.01.2024 20:52 21,8 °C 2,4 °C 46 % 74 % 1023,1 hPa 0,0 l/m² 18,3 km/h (3 Bft) S 189 ° 0 min 0 W/m² -1,7 °C -5,8 °C 25,7 km/h (4 Bft)
21.01.2024 20:53 21,8 °C 2,4 °C 46 % 74 % 1023,1 hPa 0,0 l/m² 19,5 km/h (3 Bft) S-SO 167 ° 0 min 0 W/m² -1,7 °C -6,3 °C 24,1 km/h (4 Bft)
21.01.2024 20:54 21,8 °C 2,4 °C 46 % 74 % 1022,9 hPa 0,0 l/m² 17,7 km/h (3 Bft) S 182 ° 0 min 0 W/m² -1,7 °C -5,5 °C 22,5 km/h (4 Bft)
21.01.2024 20:56 21,8 °C 2,4 °C 46 % 74 % 1022,9 hPa 0,0 l/m² 21,0 km/h (4 Bft) S 173 ° 0 min 0 W/m² -1,7 °C -7,0 °C 25,7 km/h (4 Bft)
21.01.2024 20:58 21,8 °C 2,4 °C 46 % 74 % 1022,7 hPa 0,0 l/m² 18,4 km/h (3 Bft) S 184 ° 0 min 0 W/m² -1,7 °C -5,8 °C 27,4 km/h (5 Bft)
21.01.2024 21:00 21,9 °C 2,3 °C 46 % 75 % 1022,6 hPa 0,0 l/m² 20,0 km/h (4 Bft) S 183 ° 0 min 0 W/m² -1,7 °C -6,7 °C 29,0 km/h (5 Bft)
21.01.2024 21:02 21,8 °C 2,3 °C 46 % 75 % 1022,7 hPa 0,0 l/m² 18,2 km/h (3 Bft) S 170 ° 0 min 0 W/m² -1,7 °C -5,8 °C 27,4 km/h (5 Bft)
21.01.2024 21:03 21,9 °C 2,3 °C 46 % 76 % 1022,7 hPa 0,0 l/m² 19,5 km/h (3 Bft) S 171 ° 0 min 0 W/m² -1,5 °C -6,4 °C 25,7 km/h (4 Bft)
21.01.2024 21:04 21,9 °C 2,3 °C 46 % 76 % 1022,7 hPa 0,0 l/m² 18,1 km/h (3 Bft) S-SO 157 ° 0 min 0 W/m² -1,5 °C -5,8 °C 27,4 km/h (5 Bft)
21.01.2024 21:05 21,9 °C 2,3 °C 46 % 76 % 1022,8 hPa 0,0 l/m² 15,1 km/h (3 Bft) S-SO 161 ° 0 min 0 W/m² -1,5 °C -4,3 °C 19,3 km/h (3 Bft)
21.01.2024 21:06 21,9 °C 2,3 °C 46 % 76 % 1022,8 hPa 0,0 l/m² 14,0 km/h (3 Bft) S 170 ° 0 min 0 W/m² -1,5 °C -3,6 °C 16,1 km/h (3 Bft)
21.01.2024 21:08 21,9 °C 2,2 °C 46 % 76 % 1022,9 hPa 0,0 l/m² 13,4 km/h (3 Bft) S 175 ° 0 min 0 W/m² -1,6 °C -3,4 °C 19,3 km/h (3 Bft)
21.01.2024 21:10 21,9 °C 2,3 °C 46 % 76 % 1022,9 hPa 0,0 l/m² 11,6 km/h (2 Bft) S-SO 149 ° 0 min 0 W/m² -1,5 °C -2,1 °C 16,1 km/h (3 Bft)
21.01.2024 21:12 21,9 °C 2,2 °C 46 % 77 % 1022,8 hPa 0,0 l/m² 13,8 km/h (3 Bft) S 182 ° 0 min 0 W/m² -1,4 °C -3,6 °C 20,9 km/h (4 Bft)
21.01.2024 21:13 21,9 °C 2,2 °C 46 % 77 % 1022,8 hPa 0,0 l/m² 14,5 km/h (3 Bft) S-SO 163 ° 0 min 0 W/m² -1,4 °C -4,0 °C 17,7 km/h (3 Bft)
21.01.2024 21:14 21,9 °C 2,2 °C 46 % 77 % 1022,9 hPa 0,0 l/m² 13,3 km/h (3 Bft) S 178 ° 0 min 0 W/m² -1,4 °C -3,3 °C 17,7 km/h (3 Bft)
21.01.2024 21:16 21,9 °C 2,2 °C 46 % 77 % 1022,8 hPa 0,0 l/m² 17,5 km/h (3 Bft) S-SO 163 ° 0 min 0 W/m² -1,4 °C -5,6 °C 24,1 km/h (4 Bft)
21.01.2024 21:18 21,9 °C 2,3 °C 46 % 77 % 1022,8 hPa 0,0 l/m² 16,4 km/h (3 Bft) S 178 ° 0 min 0 W/m² -1,3 °C -5,0 °C 25,7 km/h (4 Bft)
21.01.2024 21:20 21,9 °C 2,3 °C 46 % 77 % 1022,7 hPa 0,0 l/m² 18,3 km/h (3 Bft) S-SO 163 ° 0 min 0 W/m² -1,3 °C -5,9 °C 25,7 km/h (4 Bft)
21.01.2024 21:22 21,9 °C 2,3 °C 46 % 77 % 1022,7 hPa 0,0 l/m² 21,0 km/h (4 Bft) S 179 ° 0 min 0 W/m² -1,3 °C -7,1 °C 32,2 km/h (5 Bft)
21.01.2024 21:23 21,9 °C 2,3 °C 46 % 78 % 1022,7 hPa 0,0 l/m² 19,8 km/h (3 Bft) S 175 ° 0 min 0 W/m² -1,1 °C -6,6 °C 24,1 km/h (4 Bft)
21.01.2024 21:24 21,9 °C 2,3 °C 46 % 78 % 1022,8 hPa 0,0 l/m² 16,8 km/h (3 Bft) S 175 ° 0 min 0 W/m² -1,1 °C -5,2 °C 20,9 km/h (4 Bft)
21.01.2024 21:26 21,9 °C 2,4 °C 45 % 78 % 1022,7 hPa 0,0 l/m² 21,7 km/h (4 Bft) S 184 ° 0 min 0 W/m² -1,0 °C -7,2 °C 25,7 km/h (4 Bft)
21.01.2024 21:28 21,9 °C 2,4 °C 46 % 78 % 1022,7 hPa 0,0 l/m² 21,4 km/h (4 Bft) S-SW 194 ° 0 min 0 W/m² -1,0 °C -7,1 °C 29,0 km/h (5 Bft)
21.01.2024 21:30 22,0 °C 2,5 °C 45 % 78 % 1022,7 hPa 0,0 l/m² 17,9 km/h (3 Bft) S-SW 193 ° 0 min 0 W/m² -0,9 °C -5,4 °C 25,7 km/h (4 Bft)
21.01.2024 21:32 22,0 °C 2,5 °C 46 % 78 % 1022,8 hPa 0,0 l/m² 16,5 km/h (3 Bft) S 180 ° 0 min 0 W/m² -0,9 °C -4,8 °C 24,1 km/h (4 Bft)
21.01.2024 21:33 22,0 °C 2,5 °C 46 % 78 % 1022,8 hPa 0,0 l/m² 16,7 km/h (3 Bft) S 171 ° 0 min 0 W/m² -0,9 °C -4,9 °C 22,5 km/h (4 Bft)
21.01.2024 21:34 22,0 °C 2,5 °C 46 % 78 % 1022,8 hPa 0,0 l/m² 16,6 km/h (3 Bft) S-SO 163 ° 0 min 0 W/m² -0,9 °C -4,8 °C 19,3 km/h (3 Bft)
21.01.2024 21:36 22,0 °C 2,5 °C 46 % 78 % 1022,8 hPa 0,0 l/m² 15,6 km/h (3 Bft) S 171 ° 0 min 0 W/m² -0,9 °C -4,3 °C 20,9 km/h (4 Bft)
21.01.2024 21:38 22,0 °C 2,4 °C 46 % 79 % 1022,8 hPa 0,0 l/m² 14,1 km/h (3 Bft) S-SO 167 ° 0 min 0 W/m² -0,9 °C -3,6 °C 22,5 km/h (4 Bft)
21.01.2024 21:40 22,1 °C 2,4 °C 46 % 79 % 1022,9 hPa 0,0 l/m² 15,5 km/h (3 Bft) S 175 ° 0 min 0 W/m² -0,9 °C -4,3 °C 24,1 km/h (4 Bft)
21.01.2024 21:42 22,0 °C 2,4 °C 46 % 79 % 1022,8 hPa 0,0 l/m² 13,2 km/h (3 Bft) S-SO 150 ° 0 min 0 W/m² -0,9 °C -3,0 °C 20,9 km/h (4 Bft)
21.01.2024 21:43 22,0 °C 2,4 °C 46 % 79 % 1022,8 hPa 0,0 l/m² 13,1 km/h (3 Bft) S 174 ° 0 min 0 W/m² -0,9 °C -3,0 °C 16,1 km/h (3 Bft)
21.01.2024 21:45 22,1 °C 2,4 °C 46 % 79 % 1022,8 hPa 0,0 l/m² 11,8 km/h (2 Bft) S-SO 164 ° 0 min 0 W/m² -0,9 °C -2,1 °C 16,1 km/h (3 Bft)
21.01.2024 21:47 22,1 °C 2,4 °C 46 % 80 % 1022,7 hPa 0,0 l/m² 11,6 km/h (2 Bft) S-SO 166 ° 0 min 0 W/m² -0,7 °C -2,0 °C 17,7 km/h (3 Bft)
21.01.2024 21:49 22,1 °C 2,4 °C 46 % 80 % 1022,7 hPa 0,0 l/m² 12,2 km/h (2 Bft) S-SO 161 ° 0 min 0 W/m² -0,7 °C -2,4 °C 16,1 km/h (3 Bft)
21.01.2024 21:51 22,1 °C 2,4 °C 46 % 80 % 1022,7 hPa 0,0 l/m² 12,7 km/h (3 Bft) S-SO 161 ° 0 min 0 W/m² -0,7 °C -2,7 °C 17,7 km/h (3 Bft)
21.01.2024 21:52 22,1 °C 2,4 °C 46 % 80 % 1022,7 hPa 0,0 l/m² 15,1 km/h (3 Bft) S-SO 163 ° 0 min 0 W/m² -0,7 °C -4,1 °C 22,5 km/h (4 Bft)
21.01.2024 21:53 22,1 °C 2,4 °C 46 % 80 % 1022,7 hPa 0,0 l/m² 12,8 km/h (3 Bft) S 175 ° 0 min 0 W/m² -0,7 °C -2,8 °C 19,3 km/h (3 Bft)
21.01.2024 21:55 22,1 °C 2,5 °C 46 % 81 % 1022,8 hPa 0,0 l/m² 13,4 km/h (3 Bft) S-SO 167 ° 0 min 0 W/m² -0,4 °C -3,0 °C 17,7 km/h (3 Bft)
21.01.2024 21:57 22,1 °C 2,6 °C 46 % 81 % 1022,6 hPa 0,0 l/m² 14,3 km/h (3 Bft) SO 140 ° 0 min 0 W/m² -0,3 °C -3,4 °C 17,7 km/h (3 Bft)
21.01.2024 21:59 22,1 °C 2,5 °C 46 % 81 % 1022,5 hPa 0,0 l/m² 12,5 km/h (2 Bft) S-SO 167 ° 0 min 0 W/m² -0,4 °C -2,5 °C 17,7 km/h (3 Bft)
21.01.2024 22:01 22,1 °C 2,6 °C 46 % 81 % 1022,4 hPa 0,0 l/m² 13,6 km/h (3 Bft) S-SO 161 ° 0 min 0 W/m² -0,3 °C -3,0 °C 17,7 km/h (3 Bft)
21.01.2024 22:02 22,1 °C 2,5 °C 46 % 81 % 1022,4 hPa 0,0 l/m² 11,1 km/h (2 Bft) S 173 ° 0 min 0 W/m² -0,4 °C -1,5 °C 16,1 km/h (3 Bft)
21.01.2024 22:03 22,1 °C 2,5 °C 46 % 81 % 1022,3 hPa 0,0 l/m² 12,0 km/h (2 Bft) S-SO 151 ° 0 min 0 W/m² -0,4 °C -2,1 °C 19,3 km/h (3 Bft)
21.01.2024 22:05 22,1 °C 2,5 °C 46 % 81 % 1022,3 hPa 0,0 l/m² 12,8 km/h (3 Bft) S 169 ° 0 min 0 W/m² -0,4 °C -2,6 °C 19,3 km/h (3 Bft)
21.01.2024 22:07 22,1 °C 2,6 °C 46 % 81 % 1022,2 hPa 0,0 l/m² 15,8 km/h (3 Bft) S-SO 160 ° 0 min 0 W/m² -0,3 °C -4,3 °C 20,9 km/h (4 Bft)
21.01.2024 22:09 22,1 °C 2,6 °C 46 % 81 % 1022,4 hPa 0,0 l/m² 13,2 km/h (3 Bft) S-SO 167 ° 0 min 0 W/m² -0,3 °C -2,8 °C 17,7 km/h (3 Bft)
21.01.2024 22:11 22,1 °C 2,6 °C 46 % 81 % 1022,4 hPa 0,0 l/m² 13,8 km/h (3 Bft) S 177 ° 0 min 0 W/m² -0,3 °C -3,1 °C 19,3 km/h (3 Bft)
21.01.2024 22:12 22,1 °C 2,6 °C 46 % 82 % 1022,4 hPa 0,0 l/m² 13,2 km/h (3 Bft) S-SO 159 ° 0 min 0 W/m² -0,2 °C -2,8 °C 16,1 km/h (3 Bft)
21.01.2024 22:13 22,1 °C 2,6 °C 46 % 82 % 1022,4 hPa 0,0 l/m² 13,2 km/h (3 Bft) S-SO 162 ° 0 min 0 W/m² -0,2 °C -2,8 °C 17,7 km/h (3 Bft)
21.01.2024 22:15 22,1 °C 2,6 °C 46 % 82 % 1022,4 hPa 0,0 l/m² 13,1 km/h (3 Bft) S 171 ° 0 min 0 W/m² -0,2 °C -2,7 °C 17,7 km/h (3 Bft)
21.01.2024 22:17 22,1 °C 2,5 °C 46 % 82 % 1022,3 hPa 0,0 l/m² 14,4 km/h (3 Bft) S 175 ° 0 min 0 W/m² -0,3 °C -3,6 °C 19,3 km/h (3 Bft)
21.01.2024 22:19 22,1 °C 2,5 °C 46 % 82 % 1022,1 hPa 0,0 l/m² 15,3 km/h (3 Bft) S 175 ° 0 min 0 W/m² -0,3 °C -4,1 °C 19,3 km/h (3 Bft)
21.01.2024 22:21 22,1 °C 2,6 °C 46 % 82 % 1022,2 hPa 0,0 l/m² 14,7 km/h (3 Bft) S-SW 194 ° 0 min 0 W/m² -0,2 °C -3,7 °C 20,9 km/h (4 Bft)
21.01.2024 22:22 22,1 °C 2,6 °C 46 % 82 % 1022,2 hPa 0,0 l/m² 15,9 km/h (3 Bft) S-SW 193 ° 0 min 0 W/m² -0,2 °C -4,3 °C 24,1 km/h (4 Bft)
21.01.2024 22:23 22,1 °C 2,7 °C 46 % 82 % 1022,1 hPa 0,0 l/m² 17,6 km/h (3 Bft) S 178 ° 0 min 0 W/m² -0,1 °C -5,1 °C 24,1 km/h (4 Bft)
21.01.2024 22:25 22,1 °C 2,7 °C 46 % 82 % 1022,1 hPa 0,0 l/m² 16,5 km/h (3 Bft) S-SO 167 ° 0 min 0 W/m² -0,1 °C -4,5 °C 20,9 km/h (4 Bft)
21.01.2024 22:27 22,0 °C 2,8 °C 46 % 82 % 1021,9 hPa 0,0 l/m² 19,2 km/h (3 Bft) S 172 ° 0 min 0 W/m² 0,0 °C -5,7 °C 25,7 km/h (4 Bft)
21.01.2024 22:29 22,0 °C 2,9 °C 46 % 82 % 1021,9 hPa 0,2 l/m² 18,6 km/h (3 Bft) S-SO 166 ° 0 min 0 W/m² 0,1 °C -5,3 °C 25,7 km/h (4 Bft)
21.01.2024 22:31 22,0 °C 2,9 °C 46 % 82 % 1021,8 hPa 0,0 l/m² 17,9 km/h (3 Bft) S 173 ° 0 min 0 W/m² 0,1 °C -4,9 °C 24,1 km/h (4 Bft)
21.01.2024 22:32 22,0 °C 2,9 °C 46 % 82 % 1021,8 hPa 0,0 l/m² 18,3 km/h (3 Bft) S 180 ° 0 min 0 W/m² 0,1 °C -5,1 °C 22,5 km/h (4 Bft)
21.01.2024 22:33 22,0 °C 2,9 °C 46 % 82 % 1021,7 hPa 0,0 l/m² 17,3 km/h (3 Bft) S 182 ° 0 min 0 W/m² 0,1 °C -4,7 °C 22,5 km/h (4 Bft)
21.01.2024 22:35 22,0 °C 2,9 °C 46 % 82 % 1021,7 hPa 0,0 l/m² 17,7 km/h (3 Bft) S-SO 165 ° 0 min 0 W/m² 0,1 °C -4,8 °C 24,1 km/h (4 Bft)
21.01.2024 22:37 22,0 °C 2,9 °C 46 % 82 % 1021,7 hPa 0,0 l/m² 19,7 km/h (3 Bft) S-SW 192 ° 0 min 0 W/m² 0,1 °C -5,8 °C 25,7 km/h (4 Bft)
21.01.2024 22:39 22,0 °C 2,9 °C 46 % 82 % 1021,6 hPa 0,0 l/m² 19,8 km/h (3 Bft) S 169 ° 0 min 0 W/m² 0,1 °C -5,8 °C 25,7 km/h (4 Bft)
21.01.2024 22:41 22,0 °C 3,0 °C 46 % 82 % 1021,5 hPa 0,0 l/m² 18,2 km/h (3 Bft) SO 145 ° 0 min 0 W/m² 0,2 °C -5,0 °C 25,7 km/h (4 Bft)
21.01.2024 22:42 22,0 °C 3,1 °C 46 % 82 % 1021,5 hPa 0,0 l/m² 16,5 km/h (3 Bft) S 178 ° 0 min 0 W/m² 0,3 °C -4,0 °C 24,1 km/h (4 Bft)
21.01.2024 22:43 22,0 °C 3,1 °C 46 % 82 % 1021,6 hPa 0,0 l/m² 17,9 km/h (3 Bft) S-SO 158 ° 0 min 0 W/m² 0,3 °C -4,7 °C 22,5 km/h (4 Bft)
21.01.2024 22:45 22,0 °C 3,1 °C 46 % 82 % 1021,5 hPa 0,0 l/m² 19,0 km/h (3 Bft) S 181 ° 0 min 0 W/m² 0,3 °C -5,2 °C 24,1 km/h (4 Bft)
21.01.2024 22:47 21,9 °C 3,1 °C 46 % 82 % 1021,5 hPa 0,0 l/m² 17,6 km/h (3 Bft) S 181 ° 0 min 0 W/m² 0,3 °C -4,6 °C 22,5 km/h (4 Bft)
21.01.2024 22:49 21,9 °C 3,1 °C 46 % 82 % 1021,4 hPa 0,0 l/m² 22,5 km/h (4 Bft) S 178 ° 0 min 0 W/m² 0,3 °C -6,6 °C 32,2 km/h (5 Bft)
21.01.2024 22:51 21,9 °C 3,2 °C 46 % 82 % 1021,3 hPa 0,0 l/m² 24,8 km/h (4 Bft) S 187 ° 0 min 0 W/m² 0,4 °C -7,3 °C 40,2 km/h (6 Bft)
21.01.2024 22:52 21,9 °C 3,2 °C 46 % 82 % 1021,3 hPa 0,0 l/m² 22,1 km/h (4 Bft) S-SO 168 ° 0 min 0 W/m² 0,4 °C -6,3 °C 29,0 km/h (5 Bft)
21.01.2024 22:53 21,9 °C 3,2 °C 46 % 82 % 1021,3 hPa 0,0 l/m² 25,4 km/h (4 Bft) S 169 ° 0 min 0 W/m² 0,4 °C -7,5 °C 30,6 km/h (5 Bft)
21.01.2024 22:55 21,9 °C 3,2 °C 46 % 82 % 1021,3 hPa 0,0 l/m² 23,8 km/h (4 Bft) S 175 ° 0 min 0 W/m² 0,4 °C -7,0 °C 32,2 km/h (5 Bft)
21.01.2024 22:57 21,9 °C 3,2 °C 46 % 81 % 1021,2 hPa 0,0 l/m² 21,9 km/h (4 Bft) S 180 ° 0 min 0 W/m² 0,3 °C -6,3 °C 29,0 km/h (5 Bft)
21.01.2024 22:59 21,9 °C 3,2 °C 46 % 81 % 1021,2 hPa 0,0 l/m² 18,0 km/h (3 Bft) S-SO 162 ° 0 min 0 W/m² 0,3 °C -4,6 °C 27,4 km/h (5 Bft)
21.01.2024 23:01 21,9 °C 3,1 °C 46 % 82 % 1021,1 hPa 0,0 l/m² 14,6 km/h (3 Bft) S 169 ° 0 min 0 W/m² 0,3 °C -3,0 °C 19,3 km/h (3 Bft)
21.01.2024 23:02 21,9 °C 3,1 °C 46 % 82 % 1021,1 hPa 0,0 l/m² 12,9 km/h (3 Bft) S 171 ° 0 min 0 W/m² 0,3 °C -2,0 °C 16,1 km/h (3 Bft)
21.01.2024 23:03 21,9 °C 3,0 °C 46 % 82 % 1021,1 hPa 0,0 l/m² 9,8 km/h (2 Bft) S-SO 163 ° 0 min 0 W/m² 0,2 °C 0,0 °C 12,9 km/h (3 Bft)
21.01.2024 23:05 21,9 °C 2,9 °C 46 % 82 % 1021,0 hPa 0,0 l/m² 13,6 km/h (3 Bft) S-SO 157 ° 0 min 0 W/m² 0,1 °C -2,7 °C 19,3 km/h (3 Bft)
21.01.2024 23:07 21,9 °C 2,8 °C 46 % 82 % 1020,9 hPa 0,2 l/m² 15,6 km/h (3 Bft) SO 132 ° 0 min 0 W/m² 0,0 °C -3,9 °C 22,5 km/h (4 Bft)
21.01.2024 23:09 21,9 °C 2,8 °C 46 % 82 % 1020,9 hPa 0,0 l/m² 14,0 km/h (3 Bft) S-SO 151 ° 0 min 0 W/m² 0,0 °C -3,0 °C 17,7 km/h (3 Bft)
21.01.2024 23:11 21,8 °C 2,8 °C 46 % 82 % 1021,1 hPa 0,0 l/m² 14,6 km/h (3 Bft) S-SO 152 ° 0 min 0 W/m² 0,0 °C -3,4 °C 20,9 km/h (4 Bft)
21.01.2024 23:12 21,8 °C 2,7 °C 46 % 82 % 1021,1 hPa 0,0 l/m² 13,2 km/h (3 Bft) S-SO 165 ° 0 min 0 W/m² -0,1 °C -2,7 °C 16,1 km/h (3 Bft)
21.01.2024 23:13 21,9 °C 2,7 °C 46 % 82 % 1021,0 hPa 0,0 l/m² 14,0 km/h (3 Bft) S-SO 151 ° 0 min 0 W/m² -0,1 °C -3,1 °C 16,1 km/h (3 Bft)
21.01.2024 23:15 21,9 °C 2,7 °C 46 % 83 % 1021,0 hPa 0,0 l/m² 12,6 km/h (3 Bft) SO 144 ° 0 min 0 W/m² 0,1 °C -2,3 °C 17,7 km/h (3 Bft)
21.01.2024 23:16 21,9 °C 2,7 °C 46 % 83 % 1021,0 hPa 0,0 l/m² 12,9 km/h (3 Bft) S-SO 157 ° 0 min 0 W/m² 0,1 °C -2,5 °C 16,1 km/h (3 Bft)
21.01.2024 23:17 21,8 °C 2,7 °C 46 % 83 % 1021,0 hPa 0,0 l/m² 14,5 km/h (3 Bft) S-SO 157 ° 0 min 0 W/m² 0,1 °C -3,4 °C 16,1 km/h (3 Bft)
21.01.2024 23:22 21,8 °C 2,7 °C 46 % 83 % 1020,9 hPa 0,0 l/m² 11,0 km/h (2 Bft) S-SO 149 ° 0 min 0 W/m² 0,1 °C -1,2 °C 16,1 km/h (3 Bft)
21.01.2024 23:24 21,8 °C 2,7 °C 46 % 83 % 1020,8 hPa 0,0 l/m² 11,6 km/h (2 Bft) S-SO 158 ° 0 min 0 W/m² 0,1 °C -1,6 °C 17,7 km/h (3 Bft)
21.01.2024 23:25 21,8 °C 2,8 °C 46 % 83 % 1020,8 hPa 0,0 l/m² 10,1 km/h (2 Bft) SO 136 ° 0 min 0 W/m² 0,2 °C -0,4 °C 12,9 km/h (3 Bft)
21.01.2024 23:27 21,8 °C 2,8 °C 46 % 83 % 1020,8 hPa 0,0 l/m² 7,9 km/h (2 Bft) S-SO 161 ° 0 min 0 W/m² 0,2 °C 1,4 °C 9,7 km/h (2 Bft)
21.01.2024 23:29 21,8 °C 2,8 °C 46 % 83 % 1020,8 hPa 0,0 l/m² 9,5 km/h (2 Bft) S-SO 153 ° 0 min 0 W/m² 0,2 °C 0,0 °C 14,5 km/h (3 Bft)
21.01.2024 23:30 21,8 °C 2,8 °C 46 % 83 % 1020,8 hPa 0,0 l/m² 9,1 km/h (2 Bft) S-SO 148 ° 0 min 0 W/m² 0,2 °C 0,4 °C 12,9 km/h (3 Bft)
21.01.2024 23:32 21,8 °C 2,8 °C 46 % 83 % 1020,6 hPa 0,0 l/m² 7,9 km/h (2 Bft) SO 145 ° 0 min 0 W/m² 0,2 °C 1,4 °C 11,3 km/h (2 Bft)
21.01.2024 23:34 21,8 °C 2,7 °C 46 % 83 % 1020,5 hPa 0,0 l/m² 8,4 km/h (2 Bft) S-SO 157 ° 0 min 0 W/m² 0,1 °C 0,8 °C 11,3 km/h (2 Bft)
21.01.2024 23:36 21,8 °C 2,6 °C 46 % 83 % 1020,4 hPa 0,0 l/m² 9,9 km/h (2 Bft) S-SO 159 ° 0 min 0 W/m² 0,0 °C -0,5 °C 14,5 km/h (3 Bft)
21.01.2024 23:38 21,8 °C 2,6 °C 46 % 83 % 1020,4 hPa 0,0 l/m² 11,0 km/h (2 Bft) S-SO 154 ° 0 min 0 W/m² 0,0 °C -1,3 °C 16,1 km/h (3 Bft)
21.01.2024 23:40 21,8 °C 2,5 °C 46 % 83 % 1020,2 hPa 0,0 l/m² 10,8 km/h (2 Bft) S-SO 149 ° 0 min 0 W/m² -0,1 °C -1,3 °C 16,1 km/h (3 Bft)
21.01.2024 23:41 21,8 °C 2,6 °C 46 % 83 % 1020,1 hPa 0,0 l/m² 11,8 km/h (2 Bft) S-SO 157 ° 0 min 0 W/m² 0,0 °C -1,9 °C 14,5 km/h (3 Bft)
21.01.2024 23:42 21,8 °C 2,5 °C 46 % 83 % 1020,1 hPa 0,0 l/m² 10,5 km/h (2 Bft) S-SO 155 ° 0 min 0 W/m² -0,1 °C -1,1 °C 14,5 km/h (3 Bft)
21.01.2024 23:44 21,8 °C 2,6 °C 46 % 83 % 1020,1 hPa 0,0 l/m² 9,6 km/h (2 Bft) S-SO 164 ° 0 min 0 W/m² 0,0 °C -0,3 °C 19,3 km/h (3 Bft)
21.01.2024 23:46 21,8 °C 2,6 °C 46 % 83 % 1020,2 hPa 0,0 l/m² 11,8 km/h (2 Bft) SO 146 ° 0 min 0 W/m² 0,0 °C -1,9 °C 17,7 km/h (3 Bft)
21.01.2024 23:48 21,8 °C 2,6 °C 45 % 84 % 1020,1 hPa 0,0 l/m² 11,1 km/h (2 Bft) S-SO 157 ° 0 min 0 W/m² 0,2 °C -1,4 °C 16,1 km/h (3 Bft)
21.01.2024 23:50 21,8 °C 2,6 °C 45 % 83 % 1020,1 hPa 0,0 l/m² 10,3 km/h (2 Bft) S-SO 148 ° 0 min 0 W/m² 0,0 °C -0,8 °C 14,5 km/h (3 Bft)
21.01.2024 23:51 21,8 °C 2,5 °C 45 % 83 % 1020,0 hPa 0,0 l/m² 9,7 km/h (2 Bft) S-SO 159 ° 0 min 0 W/m² -0,1 °C -0,5 °C 12,9 km/h (3 Bft)
21.01.2024 23:52 21,8 °C 2,5 °C 45 % 83 % 1020,0 hPa 0,0 l/m² 10,0 km/h (2 Bft) S-SO 156 ° 0 min 0 W/m² -0,1 °C -0,7 °C 12,9 km/h (3 Bft)
21.01.2024 23:53 21,8 °C 2,4 °C 46 % 83 % 1020,0 hPa 0,0 l/m² 12,0 km/h (2 Bft) S-SO 153 ° 0 min 0 W/m² -0,2 °C -2,2 °C 14,5 km/h (3 Bft)
21.01.2024 23:54 21,8 °C 2,4 °C 45 % 84 % 1020,0 hPa 0,0 l/m² 10,1 km/h (2 Bft) S-SO 163 ° 0 min 0 W/m² -0,0 °C -0,9 °C 12,9 km/h (3 Bft)
21.01.2024 23:56 21,8 °C 2,3 °C 45 % 84 % 1020,0 hPa 0,0 l/m² 10,8 km/h (2 Bft) S-SO 159 ° 0 min 0 W/m² -0,1 °C -1,5 °C 16,1 km/h (3 Bft)
21.01.2024 23:58 21,8 °C 2,3 °C 45 % 84 % 1020,0 hPa 0,0 l/m² 10,3 km/h (2 Bft) S-SO 151 ° 0 min 0 W/m² -0,1 °C -1,1 °C 16,1 km/h (3 Bft)
_ Min-Zeit 23:58 02:03 10:15 15:03 23:58 - 07:32 - - - - 02:03 09:57 07:32
Minimum _ 21,8 °C -10,2 °C 35 % 58 % 1020,0 hPa - 0,0 km/h (0 Bft) - - - - -12,1 °C -12,5 °C 0,0 km/h (0 Bft)
_ Max-Zeit 10:11 22:59 20:06 08:13 00:06 23:07 19:52 - - 12:48 14:23 22:55 14:56 19:52
Maximum _ 22,4 °C 3,2 °C 49 % 89 % 1030,6 hPa 0,2 l/m² 31,5 km/h
S (5 Bft)
- - 3 min 343 W/m² 0,4 °C 2,8 °C 43,5 km/h
S (6 Bft)
Durchschnitt _ 22,1 °C -2,2 °C 42 % 76 % 1025,8 hPa #0,6 l/m² 10,4 km/h (2 Bft) O - #6:43 h 45 W/m² -6,1 °C -6,2 °C 14,5 km/h (3 Bft)
© 2009 Mathias Hoßbach